[[{"header":{"parameterUnit":"m.s-1","parameterCategory":1,"la1":31.0,"la2":29.5877,"lo1":-88.7671,"lo2":-86.6584,"dy":0.0162,"dx":0.0185,"nx":115,"ny":88,"refTime":"2023-09-07T00:00:00:Z","depth":0,"parameterNumber":2,"parameterNumberName":"U-component_of_WINDS"},"data":[0.0,0.0,0.0,0.0,0.0,0.0,0.0,0.0,0.0,0.0,0.0,0.0,0.0,0.0,0.0,0.0,0.0,0.0,0.0,0.0,0.0,0.0,0.0,0.0,0.0,0.0,0.0,0.0,0.0,0.0,0.0,0.0,0.0,0.0,0.0,0.0,0.0,0.0,0.0,0.0,0.0,0.0,0.0,0.0,0.0,0.0,0.0,0.0,0.0,0.0,0.0,0.0,0.0,0.0,0.0,0.0,0.0,0.0,0.0,0.0,0.0,0.0,0.0,0.0,0.0,0.0,0.0,0.0,0.0,0.0,0.0,0.0,0.0,0.0,0.0,0.0,0.0,0.0,0.0,0.0,0.0,0.0,0.0,0.0,0.0,0.0,0.0,0.0,0.0,0.0,0.0,0.0,0.0,0.0,0.0,0.0,0.0,0.0,0.0,0.0,0.0,0.0,0.0,0.0,0.0,0.0,0.0,0.0,0.0,0.0,0.0,0.0,0.0,0.0,0.0,0.0,0.0,0.0,0.0,0.0,0.0,0.0,0.0,0.0,0.0,0.0,0.0,0.0,0.0,0.0,0.0,0.0,0.0,0.0,0.0,0.0,0.0,0.0,0.0,0.0,0.0,0.0,0.0,0.0,0.0,0.0,0.0,0.0,0.0,0.0,0.0,0.0,0.0,0.0,0.0,0.0,0.0,0.0,0.0,0.0,0.0,0.0,0.0,0.0,0.0,0.0,0.0,0.0,0.0,0.0,0.0,0.0,0.0,0.0,0.0,0.0,0.0,0.0,0.0,0.0,0.0,0.0,0.0,0.0,0.0,0.0,0.0,0.0,0.0,0.0,0.0,0.0,0.0,0.0,0.0,0.0,0.0,0.0,0.0,0.0,0.0,0.0,0.0,0.0,0.0,0.0,0.0,0.0,0.0,0.0,0.0,0.0,0.0,0.0,0.0,0.0,0.0,0.0,0.0,0.0,0.0,0.0,0.0,0.0,0.0,0.0,0.0,0.0,0.0,0.0,0.0,0.0,0.0,0.0,0.0,0.0,0.0,0.0,0.0,0.0,0.0,0.0,0.0,0.0,0.0,0.0,0.0,0.0,0.0,0.0,0.0,0.0,0.0,0.0,0.0,0.0,0.0,0.0,0.0,0.0,0.0,0.0,0.0,0.0,0.0,0.0,0.0,0.0,0.0,0.0,0.0,0.0,0.0,0.0,0.0,0.0,0.0,0.0,0.0,0.0,0.0,0.0,0.0,0.0,0.0,0.0,0.0,0.0,0.0,0.0,0.0,0.0,0.0,0.0,0.0,0.0,0.0,0.0,0.0,0.0,0.0,0.0,0.0,0.0,0.0,0.0,0.0,0.0,0.0,0.0,0.0,0.0,0.0,0.0,0.0,0.0,0.0,0.0,0.0,0.0,0.0,0.0,0.0,0.0,0.0,0.0,0.0,0.0,0.0,0.0,0.0,0.0,0.0,0.0,0.0,0.0,0.0,0.0,0.0,0.0,0.0,0.0,0.0,0.0,0.0,0.0,0.0,0.0,0.0,0.0,0.0,0.0,0.0,0.0,0.0,0.0,0.0,0.0,0.0,0.0,0.0,0.0,0.0,0.0,0.0,0.0,0.0,0.0,0.0,0.0,0.0,0.0,0.0,0.0,0.0,0.0,0.0,0.0,0.0,0.0,0.0,0.0,0.0,0.0,0.0,0.0,0.0,0.0,0.0,0.0,0.0,0.0,0.0,0.0,0.0,0.0,0.0,0.0,0.0,0.0,0.0,0.0,0.0,0.0,0.0,0.0,0.0,0.0,0.0,0.0,0.0,0.0,0.0,0.0,0.0,0.0,0.0,0.0,0.0,0.0,0.0,0.0,0.0,0.0,0.0,0.0,0.0,0.0,0.0,0.0,0.0,0.0,0.0,0.0,0.0,0.0,0.0,0.0,0.0,0.0,0.0,0.0,0.0,0.0,0.0,0.0,0.0,0.0,0.0,0.0,0.0,0.0,0.0,0.0,0.0,0.0,0.0,0.0,0.0,0.0,0.0,0.0,0.0,0.0,0.0,0.0,0.0,0.0,0.0,0.0,0.0,0.0,0.0,0.0,0.0,0.0,0.0,0.0,0.0,0.0,0.0,0.0,0.0,0.0,0.0,0.0,0.0,0.0,0.0,0.0,0.0,0.0,0.0,0.0,0.0,0.0,0.0,0.0,0.0,0.0,0.0,0.0,0.0,0.0,0.0,0.0,0.0,0.0,0.0,0.0,0.0,0.0,0.0,0.0,0.0,0.0,0.0,0.0,0.0,0.0,0.0,0.0,0.0,0.0,0.0,0.0,0.0,0.0,0.0,0.0,0.0,0.0,0.0,0.0,0.0,0.0,0.0,0.0,0.0,0.0,0.0,0.0,0.0,0.0,0.0,0.0,0.0,0.0,0.0,0.0,0.0,0.0,0.0,0.0,0.0,0.0,0.0,0.0,0.0,0.0,0.0,0.0,0.0,0.0,0.0,0.0,0.0,0.0,0.0,0.0,0.0,0.0,0.0,0.0,0.0,0.0,0.0,0.0,0.0,0.0,0.0,0.0,0.0,0.0,0.0,0.0,0.0,0.0,0.0,0.0,0.0,0.0,0.0,0.0,0.0,0.0,0.0,0.0,0.0,0.0,0.0,0.0,0.0,0.0,0.0,0.0,0.0,0.0,0.0,0.0,0.0,0.0,0.0,0.0,0.0,0.0,0.0,0.0,0.0,0.0,0.0,0.0,0.0,0.0,0.0,0.0,0.0,0.0,0.0,0.0,0.0,0.0,0.0,0.0,0.0,0.0,0.0,0.0,0.0,0.0,0.0,0.0,0.0,0.0,0.0,0.0,0.0,0.0,0.0,0.0,0.0,0.0,0.0,0.0,0.0,0.0,0.0,0.0,0.0,0.0,0.0,0.0,0.0,0.0,0.0,0.0,0.0,0.0,0.0,0.0,0.0,0.0,0.0,0.0,0.0,0.0,0.0,0.0,0.0,0.0,0.0,0.0,0.0,0.0,0.0,0.0,0.0,0.0,0.0,0.0,0.0,0.0,0.0,0.0,0.0,0.0,0.0,0.0,0.0,0.0,0.0,0.0,0.0,0.0,0.0,0.0,0.0,0.0,0.0,0.0,0.0,0.0,0.0,0.0,0.0,0.0,0.0,0.0,0.0,0.0,0.0,0.0,0.0,0.0,0.0,0.0,0.0,0.0,0.0,0.0,0.0,0.0,0.0,0.0,0.0,0.0,0.0,0.0,0.0,0.0,0.0,0.0,0.0,0.0,0.0,0.0,0.0,0.0,0.0,0.0,0.0,0.0,0.0,0.0,0.0,0.0,0.0,0.0,0.0,0.0,0.0,0.0,0.0,0.0,0.0,0.0,0.0,0.0,0.0,0.0,0.0,0.0,0.0,0.0,0.0,0.0,0.0,0.0,0.0,0.0,0.0,0.0,0.0,0.0,0.0,0.0,0.0,0.0,0.0,0.0,0.0,0.0,0.0,0.0,0.0,0.0,0.0,0.0,0.0,0.0,0.0,0.0,0.0,0.0,0.0,0.0,0.0,0.0,0.0,0.0,0.0,0.0,0.0,0.0,0.0,0.0,0.0,0.0,0.0,0.0,0.0,0.0,0.0,0.0,0.0,0.0,0.0,0.0,0.0,0.0,0.0,0.0,0.0,0.0,0.0,0.0,0.0,0.0,0.0,0.0,0.0,0.0,0.0,0.0,0.0,0.0,0.0,0.0,0.0,0.0,0.0,0.0,0.0,0.0,0.0,0.0,0.0,0.0,0.0,0.0,0.0,0.0,0.0,0.0,0.0,0.0,0.0,0.0,0.0,0.0,0.0,0.0,0.0,0.0,0.0,0.0,0.0,0.0,0.0,0.0,0.0,0.0,0.0,0.0,0.0,0.0,0.0,0.0,0.0,0.0,0.0,0.0,0.0,0.0,0.0,0.0,0.0,0.0,0.0,0.0,0.0,0.0,0.0,0.0,0.0,0.0,0.0,0.0,0.0,0.0,0.0,0.0,0.0,0.0,0.0,0.0,0.0,0.0,0.0,0.0,0.0,0.0,0.0,0.0,0.0,0.0,0.0,0.0,0.0,0.0,0.0,0.0,0.0,0.0,0.0,0.0,0.0,0.0,0.0,0.0,0.0,0.0,0.0,0.0,0.0,0.0,0.0,0.0,0.0,0.0,0.0,0.0,0.0,0.0,0.0,0.0,0.0,0.0,0.0,0.0,0.0,0.0,0.0,0.0,0.0,0.0,1.3524,0.0,0.0,0.0,0.0,0.0,0.0,0.0,0.0,0.0,0.0,0.0,0.0,0.0,0.0,0.0,0.0,0.0,0.0,0.0,0.0,0.0,0.0,0.0,0.0,0.0,0.0,0.0,0.0,0.0,0.0,0.0,0.0,0.0,0.0,0.0,0.0,0.0,0.0,0.0,0.0,0.0,0.0,0.0,0.0,0.0,0.0,0.0,0.0,0.0,0.0,0.0,0.0,0.0,0.0,0.0,0.0,0.0,0.0,0.0,0.0,0.0,0.0,0.0,0.0,0.0,0.0,0.0,0.0,0.0,0.0,0.0,0.0,0.0,0.0,0.0,0.0,0.0,0.0,0.0,0.0,0.0,0.0,0.0,0.0,0.0,0.0,0.0,0.0,0.0,0.0,0.0,0.0,0.0,0.0,0.0,0.0,0.0,0.0,0.0,0.0,0.0,0.0,0.0,0.0,0.0,0.0,0.0,0.0,0.0,0.0,1.3952,1.3853,1.383,1.3859,1.391,0.0,0.0,0.0,0.0,0.0,0.0,0.0,0.0,0.0,0.0,0.0,0.0,0.0,0.0,0.0,0.0,0.0,0.0,0.0,0.0,0.0,0.0,0.0,0.0,0.0,0.0,0.0,0.0,0.0,0.0,0.0,0.0,0.0,0.0,0.0,0.0,0.0,0.0,0.0,0.0,0.0,0.0,0.0,0.0,0.0,0.0,0.0,0.0,0.0,0.0,0.0,0.0,0.0,0.0,0.0,0.0,0.0,0.0,0.0,0.0,0.0,0.0,0.0,0.0,0.0,0.0,0.0,0.0,0.0,0.0,0.0,0.0,0.0,0.0,0.0,0.0,0.0,0.0,0.0,0.0,0.0,0.0,0.0,0.0,0.0,0.0,0.0,0.0,0.0,0.0,0.0,0.0,0.0,0.0,0.0,0.0,0.0,0.0,0.0,0.0,0.0,0.0,0.0,0.0,0.0,0.0,0.0,0.0,0.0,0.0,0.0,0.0,1.4227,1.4252,1.4313,0.0,0.0,0.0,0.0,0.0,0.0,0.0,0.0,0.0,0.0,0.0,0.0,0.0,0.0,0.0,0.0,0.0,0.0,0.0,0.0,0.0,0.0,0.0,0.0,0.0,0.0,0.0,0.0,0.0,0.0,0.0,0.0,0.0,0.0,0.0,0.0,0.0,0.0,0.0,0.0,0.0,0.0,0.0,0.0,0.0,0.0,0.0,0.0,0.0,0.0,0.0,0.0,0.0,0.0,0.0,0.0,0.0,0.0,0.0,0.0,0.0,0.0,0.0,0.0,0.0,0.0,0.0,0.0,0.0,0.0,0.0,0.0,0.0,0.0,0.0,0.0,0.0,0.0,0.0,0.0,0.0,0.0,0.0,0.0,0.0,0.0,0.0,0.0,0.0,0.0,0.0,0.0,0.0,0.0,0.0,0.0,0.0,0.0,0.0,0.0,0.0,0.0,0.0,0.0,0.0,0.0,0.0,0.0,0.0,0.0,1.4626,1.455,1.4567,0.0,1.471,0.0,0.0,0.0,0.0,0.0,0.0,0.0,0.0,0.0,0.0,0.0,0.0,0.0,0.0,0.0,0.0,0.0,0.0,0.0,0.0,0.0,0.0,0.0,0.0,0.0,0.0,0.0,0.0,0.0,0.0,0.0,0.0,0.0,0.0,0.0,0.0,0.0,0.0,0.0,0.0,0.0,0.0,0.0,0.0,0.0,0.0,0.0,0.0,0.0,0.0,0.0,0.0,0.0,0.0,0.0,0.0,0.0,0.0,0.0,0.0,0.0,0.0,0.0,0.0,0.0,0.0,0.0,0.0,0.0,0.0,0.0,0.0,0.0,0.0,0.0,0.0,0.0,0.0,0.0,0.0,0.0,0.0,0.0,0.0,0.0,0.0,0.0,0.0,0.0,0.0,0.0,0.0,0.0,0.0,0.0,0.0,0.0,0.0,0.0,0.0,0.0,0.0,0.0,0.0,0.0,0.0,0.0,0.0,0.0,0.0,1.4887,1.4897,1.49,1.4902,0.0,0.0,0.0,0.0,0.0,0.0,0.0,0.0,0.0,0.0,0.0,0.0,0.0,0.0,0.0,0.0,0.0,0.0,0.0,0.0,0.0,0.0,0.0,0.0,0.0,0.0,0.0,0.0,0.0,0.0,0.0,0.0,0.0,0.0,0.0,0.0,0.0,0.0,0.0,0.0,0.0,0.0,0.0,0.0,0.0,0.0,0.0,0.0,0.0,0.0,0.0,0.0,0.0,0.0,0.0,0.0,0.0,0.0,0.0,0.0,0.0,0.0,0.0,0.0,0.0,0.0,0.0,0.0,0.0,0.0,0.0,0.0,0.0,0.0,0.0,0.0,0.0,0.0,0.0,0.0,0.0,0.0,0.0,0.0,0.0,0.0,0.0,0.0,0.0,0.0,0.0,0.0,0.0,0.0,0.0,0.0,0.0,0.0,0.0,0.0,0.0,0.0,0.0,0.0,0.0,0.0,0.0,0.0,0.0,0.0,1.5071,1.5078,1.512,1.5146,1.5124,1.5078,0.0,0.0,0.0,0.0,0.0,0.0,0.0,0.0,0.0,0.0,0.0,0.0,0.0,0.0,0.0,0.0,0.0,0.0,0.0,0.0,0.0,0.0,0.0,0.0,0.0,0.0,0.0,0.0,0.0,0.0,0.0,0.0,0.0,0.0,0.0,0.0,0.0,0.0,0.0,0.0,0.0,0.0,0.0,0.0,0.0,0.0,0.0,0.0,0.0,0.0,0.0,0.0,0.0,0.0,0.0,0.0,0.0,0.0,0.0,0.0,0.0,0.0,0.0,0.0,0.0,0.0,0.0,0.0,0.0,0.0,0.0,0.0,0.0,0.0,0.0,0.0,0.0,0.0,0.0,0.0,0.0,0.0,0.0,0.0,0.0,0.0,0.0,0.0,0.0,0.0,0.0,0.0,0.0,0.0,0.0,0.0,0.0,0.0,0.0,0.0,0.0,0.0,0.0,0.0,0.0,0.0,0.0,0.0,1.509,1.5093,1.5131,1.5195,1.5253,1.5291,0.0,0.0,0.0,0.0,0.0,0.0,0.0,0.0,0.0,0.0,0.0,0.0,0.0,0.0,0.0,0.0,0.0,0.0,0.0,0.0,0.0,0.0,0.0,0.0,0.0,0.0,0.0,0.0,0.0,0.0,0.0,0.0,0.0,0.0,0.0,0.0,0.0,0.0,0.0,0.0,0.0,0.0,0.0,0.0,0.0,0.0,0.0,0.0,0.0,0.0,0.0,0.0,0.0,0.0,0.0,0.0,0.0,0.0,0.0,0.0,0.0,0.0,0.0,0.0,0.0,0.0,0.0,0.0,0.0,0.0,0.0,0.0,0.0,0.0,0.0,0.0,0.0,0.0,0.0,0.0,0.0,0.0,0.0,0.0,0.0,0.0,0.0,0.0,0.0,0.0,0.0,0.0,0.0,0.0,0.0,0.0,0.0,0.0,0.0,0.0,0.0,0.0,0.0,0.0,0.0,0.0,0.0,0.0,0.0,1.4769,1.4874,1.4907,1.4942,1.5078,1.518,0.0,0.0,0.0,0.0,0.0,0.0,0.0,0.0,0.0,0.0,0.0,0.0,0.0,0.0,0.0,0.0,0.0,0.0,0.0,0.0,0.0,0.0,0.0,0.0,0.0,0.0,0.0,0.0,0.0,0.0,0.0,0.0,0.0,0.0,0.0,0.0,0.0,0.0,0.0,0.0,0.0,0.0,0.0,0.0,0.0,0.0,0.0,0.0,0.0,0.0,0.0,0.0,0.0,0.0,0.0,0.0,0.0,0.0,0.0,0.0,0.0,0.0,0.0,0.0,0.0,0.0,0.0,0.0,0.0,0.0,0.0,0.0,0.0,0.0,0.0,0.0,0.0,0.0,0.0,0.0,0.0,0.0,0.0,0.0,0.0,0.0,0.0,0.0,0.0,0.0,0.0,0.0,0.0,0.0,0.0,0.0,0.0,0.0,0.0,0.0,0.0,0.0,0.0,0.0,0.0,0.0,0.0,0.0,0.0,1.4444,0.0,1.4691,1.4671,1.4728,1.4797,0.0,0.0,0.0,0.0,0.0,0.0,0.0,0.0,0.0,0.0,0.0,0.0,0.0,0.0,0.0,0.0,0.0,0.0,0.0,0.0,0.0,0.0,0.0,0.0,0.0,0.0,0.0,0.0,0.0,0.0,0.0,0.0,0.0,0.0,0.0,0.0,0.0,0.0,0.0,0.0,0.0,0.0,0.0,0.0,0.0,0.0,0.0,0.0,0.0,0.0,0.0,0.0,0.0,0.0,0.0,0.0,0.0,0.0,0.0,0.0,0.0,0.0,0.0,0.0,0.0,0.0,0.0,0.0,0.0,0.0,0.0,0.0,0.0,0.0,0.0,0.0,0.0,0.0,0.0,0.0,0.0,0.0,0.0,0.0,0.0,0.0,0.0,0.0,0.0,0.0,0.0,0.0,0.0,0.0,0.0,0.0,0.0,0.0,0.0,0.0,0.0,0.0,0.0,0.0,0.0,0.0,0.0,0.0,1.3596,1.4059,1.4329,1.439,1.437,1.4127,1.4123,0.0,0.0,0.0,0.0,0.0,0.0,0.0,0.0,0.0,0.0,0.0,0.0,0.0,0.0,0.0,0.0,0.0,0.0,0.0,0.0,0.0,0.0,0.0,0.0,0.0,0.0,0.0,0.0,0.0,0.0,0.0,0.0,0.0,0.0,0.0,0.0,0.0,0.0,0.0,0.0,0.0,0.0,0.0,0.0,0.0,0.0,0.0,0.0,0.0,0.0,0.0,0.0,0.0,0.0,0.0,0.0,0.0,0.0,0.0,0.0,0.0,0.0,0.0,0.0,0.0,0.0,0.0,0.0,0.0,0.0,0.0,0.0,0.0,0.0,0.0,0.0,0.0,0.0,0.0,0.0,0.0,0.0,0.0,0.0,0.0,0.0,0.0,0.0,0.0,0.0,0.0,0.0,0.0,0.0,0.0,0.0,0.0,0.0,0.0,0.0,0.0,0.0,0.0,0.0,0.0,0.0,0.0,0.0,0.0,1.2912,1.3115,1.3145,1.3037,1.3521,1.374,0.0,0.0,0.0,0.0,0.0,0.0,0.0,0.0,0.0,0.0,0.0,0.0,0.0,0.0,0.0,0.0,0.0,0.0,0.0,0.0,0.0,0.0,0.0,0.0,0.0,0.0,0.0,0.0,0.0,0.0,0.0,0.0,0.0,0.0,0.0,0.0,0.0,0.0,0.0,0.0,0.0,0.0,0.0,0.0,0.0,0.0,0.0,0.0,0.0,0.0,0.0,0.0,0.0,0.0,0.0,0.0,0.0,0.0,0.0,0.0,0.0,0.0,0.0,0.0,0.0,0.0,0.0,0.0,0.0,0.0,0.0,0.0,0.0,0.0,0.0,0.0,0.0,0.0,0.0,0.0,0.0,0.0,0.0,0.0,0.0,0.0,0.0,0.0,0.0,0.0,0.0,0.0,0.0,0.0,0.0,0.0,0.0,0.0,0.0,0.0,0.0,0.0,0.0,0.0,0.0,0.0,0.0,0.0,0.0,1.04,1.1226,1.1619,1.1526,1.2059,1.2375,1.2509,0.0,0.0,0.0,0.0,0.0,0.0,0.0,0.0,0.0,0.0,0.0,0.0,0.0,0.0,0.0,0.0,0.0,0.0,0.0,0.0,0.0,0.0,0.0,0.0,0.0,0.0,0.0,0.0,0.0,0.0,0.0,0.0,0.0,0.0,0.0,0.0,0.0,0.0,0.0,0.0,0.0,0.0,0.0,0.0,0.0,0.0,0.0,0.0,0.0,0.0,0.0,0.0,0.0,0.0,0.0,0.0,0.0,0.0,0.0,0.0,0.0,0.0,0.0,0.0,0.0,0.0,0.0,0.0,0.0,0.0,0.0,0.0,0.0,0.0,0.0,0.0,0.0,0.0,0.0,0.0,0.0,0.0,0.0,0.0,0.0,0.0,0.0,0.0,0.0,0.0,0.0,0.0,0.0,0.0,0.0,0.0,0.0,0.0,0.0,0.0,0.0,0.0,0.0,0.0,0.0,0.0,0.0,0.0,0.6922,0.8775,0.975,0.9808,0.9874,1.0247,0.0,0.0,0.0,0.0,0.0,0.0,0.0,0.0,0.0,0.0,0.0,0.0,0.0,0.0,0.0,0.0,0.0,0.0,0.0,0.0,0.0,0.0,0.0,0.0,0.0,0.0,0.0,0.0,0.0,0.0,0.0,0.0,0.0,0.0,0.0,0.0,0.0,0.0,0.0,0.0,0.0,0.0,0.0,0.0,0.0,0.0,0.0,0.0,0.0,0.0,0.0,0.0,0.0,0.0,0.0,0.0,0.0,0.0,0.0,0.0,0.0,0.0,0.0,0.0,0.0,0.0,0.0,0.0,0.0,0.0,0.0,0.0,0.0,0.0,0.0,0.0,0.0,0.0,0.0,0.0,0.0,0.0,0.0,0.0,0.0,0.0,0.0,0.0,0.0,0.0,0.0,0.0,0.0,0.0,0.0,0.0,0.0,0.0,0.0,0.0,0.0,0.0,0.0,0.0,0.0,0.0,0.0,0.0,0.0,0.6004,0.5847,0.6288,0.7371,0.8177,0.873,0.0,0.0,0.0,0.0,0.0,0.0,0.0,0.0,0.0,0.0,0.0,0.0,0.0,0.0,0.0,0.0,0.0,0.0,0.0,0.0,0.0,0.0,0.0,0.0,0.0,0.0,0.0,0.0,0.0,0.0,0.0,0.0,0.0,0.0,0.0,0.0,0.0,0.0,0.0,0.0,0.0,0.0,0.0,0.0,0.0,0.0,0.0,0.0,0.0,0.0,0.0,0.0,0.0,0.0,0.0,0.0,0.0,0.0,0.0,0.0,0.0,0.0,0.0,0.0,0.0,0.0,0.0,0.0,0.0,0.0,0.0,0.0,0.0,0.0,0.0,0.0,0.0,0.0,0.0,0.0,0.0,0.0,0.0,0.0,0.0,0.0,0.0,0.0,0.0,0.0,0.0,0.0,0.0,0.0,0.0,0.0,0.0,0.0,0.0,0.0,0.0,0.0,0.0,0.0,0.0,0.0,0.0,0.0,0.5034,0.3851,0.3061,0.3087,0.4038,0.5444,0.6437,0.0,0.0,0.0,0.0,0.0,0.0,0.0,0.0,0.0,0.0,0.0,0.0,0.0,0.0,0.0,0.0,0.0,0.0,0.0,0.0,0.0,0.0,0.0,0.0,0.0,0.0,0.0,0.0,0.0,0.0,0.0,0.0,0.0,0.0,0.0,0.0,0.0,0.0,0.0,0.0,0.0,0.0,0.0,0.0,0.0,0.0,0.0,0.0,0.0,0.0,0.0,0.0,0.0,0.0,0.0,0.0,0.0,0.0,0.0,0.0,0.0,0.0,0.0,0.0,0.0,0.0,0.0,0.0,0.0,0.0,0.0,0.0,0.0,0.0,0.0,0.0,0.0,0.0,0.0,0.0,0.0,0.0,0.0,0.0,0.0,0.0,0.0,0.0,0.0,0.0,0.0,0.0,0.0,0.0,0.0,0.0,0.0,0.0,0.0,0.0,0.0,0.0,0.0,0.0,0.0,0.0,0.0,0.0,0.2568,0.1355,0.0631,0.036,0.0495,0.2339,0.3795,0.0,0.0,0.0,0.0,0.0,0.0,0.0,0.0,0.0,0.0,0.0,0.0,0.0,0.0,0.0,0.0,0.0,0.0,0.0,0.0,0.0,0.0,0.0,0.0,0.0,0.0,0.0,0.0,0.0,0.0,0.0,0.0,0.0,0.0,0.0,0.0,0.0,0.0,0.0,0.0,0.0,0.0,0.0,0.0,0.0,0.0,0.0,0.0,0.0,0.0,0.0,0.0,0.0,0.0,0.0,0.0,0.0,0.0,0.0,0.0,0.0,0.0,0.0,0.0,0.0,0.0,0.0,0.0,0.0,0.0,0.0,0.0,0.0,0.0,0.0,0.0,0.0,0.0,0.0,0.0,0.0,0.0,0.0,0.0,0.0,0.0,0.0,0.0,0.0,0.0,0.0,0.0,0.0,0.0,0.0,0.0,0.0,0.0,0.0,0.0,0.0,0.0,0.0,0.0,0.0,0.0,0.0,0.0,0.2583,0.0785,-0.0381,-0.1082,-0.1269,0.0768,0.2302,0.0,0.0,0.0,0.0,0.0,0.0,0.0,0.0,0.0,0.0,0.0,0.0,0.0,0.0,0.0,0.0,0.0,0.0,0.0,0.0,0.0,0.0,0.0,0.0,0.0,0.0,0.0,0.0,0.0,0.0,0.0,0.0,0.0,0.0,0.0,0.0,0.0,0.0,0.0,0.0,0.0,0.0,0.0,0.0,0.0,0.0,0.0,0.0,-0.5868,0.0,0.0,0.0,0.0,0.0,0.0,0.0,0.0,0.0,0.0,0.0,0.0,0.0,0.0,0.0,0.0,0.0,0.0,0.0,0.0,0.0,0.0,0.0,0.0,0.0,0.0,0.0,0.0,0.0,0.0,0.0,0.0,0.0,0.0,0.0,0.0,0.0,0.0,0.0,0.0,0.0,0.0,0.0,0.0,0.0,0.0,0.0,0.0,0.0,0.0,0.0,0.0,0.0,0.0,0.0,0.0,0.0,0.0,0.0,0.1088,-0.0201,-0.1187,-0.1762,-0.2003,-0.0891,0.0227,0.0,0.0,0.0,0.0,0.0,0.0,0.0,0.0,0.0,0.0,0.0,0.0,0.0,0.0,0.0,0.0,0.0,0.0,0.0,0.0,0.0,0.0,0.0,0.0,0.0,0.0,0.0,0.0,0.0,0.0,0.0,0.0,0.0,0.0,0.0,0.0,0.0,0.0,0.0,0.0,0.0,0.0,0.0,0.0,0.0,0.0,0.0,0.0,0.0,0.0,0.0,0.0,0.0,0.0,0.0,0.0,0.0,0.0,0.0,0.0,0.0,0.0,0.0,0.0,0.0,0.0,0.0,0.0,0.0,0.0,0.0,0.0,0.0,0.0,0.0,0.0,0.0,0.0,0.0,0.0,0.0,0.0,0.0,0.0,0.0,0.0,0.0,0.0,0.0,0.0,0.0,0.0,0.0,0.0,0.0,0.0,0.0,0.0,0.0,0.0,0.0,0.0,0.0,0.0,0.0,0.0,0.0,-0.07,-0.102,-0.1384,-0.1992,-0.234,-0.2484,-0.238,-0.1916,-0.0993,0.0,0.0,0.0,0.0,0.0,0.0,0.0,0.0,0.0,0.0,0.0,0.0,0.0,0.0,0.0,0.0,0.0,0.0,0.0,0.0,0.0,0.0,0.0,0.0,0.0,0.0,0.0,0.0,0.0,0.0,0.0,0.0,0.0,0.0,0.0,0.0,0.0,0.0,-0.3262,-0.3792,0.0,0.0,0.0,0.0,0.0,0.0,0.0,0.0,-0.3217,0.0,0.0,0.0,0.0,0.0,0.0,0.0,0.0,0.0,0.0,0.0,0.0,0.0,0.0,0.0,0.0,0.0,0.0,0.0,0.0,0.0,0.0,0.0,0.0,0.0,0.0,0.0,0.0,0.0,0.0,0.0,0.0,0.0,0.0,0.0,0.0,0.0,0.0,0.0,0.0,0.0,0.0,0.0,0.0,0.0,0.0,0.0,0.0,0.0,0.0,0.0,0.0,0.0,0.0,0.0,0.0,-0.2245,-0.2525,-0.2677,-0.2701,-0.3215,-0.3478,-0.3409,-0.3291,-0.3257,-0.3138,0.0,0.0,0.0,0.0,0.0,0.0,0.0,0.0,0.0,0.0,0.0,0.0,0.0,0.0,0.0,0.0,0.0,0.0,0.0,0.0,0.0,0.0,0.0,0.0,0.0,0.0,0.0,0.0,0.0,0.0,0.0,0.0,0.0,0.0,0.0,0.0,0.0,0.0,0.0,-0.4184,-0.4679,0.0,0.0,0.0,0.0,0.0,0.0,0.0,0.0,-0.4127,0.0,0.0,0.0,0.0,0.0,0.0,0.0,0.0,0.0,0.0,0.0,0.0,0.0,0.0,0.0,0.0,0.0,0.0,0.0,0.0,0.0,0.0,0.0,0.0,0.0,0.0,0.0,0.0,0.0,0.0,0.0,0.0,0.0,0.0,0.0,0.0,0.0,0.0,0.0,0.0,0.0,0.0,0.0,0.0,0.0,0.0,0.0,0.0,0.0,0.0,0.0,0.0,0.0,0.0,0.0,-0.2973,-0.3245,-0.3413,-0.3408,-0.3796,-0.4085,-0.4291,-0.4233,-0.4224,0.0,0.0,0.0,0.0,0.0,0.0,0.0,0.0,0.0,0.0,0.0,0.0,0.0,0.0,0.0,0.0,0.0,0.0,0.0,0.0,0.0,0.0,0.0,0.0,0.0,0.0,0.0,0.0,0.0,0.0,0.0,0.0,0.0,0.0,0.0,0.0,0.0,0.0,0.0,0.0,-0.4781,-0.519,-0.5534,0.0,0.0,0.0,0.0,0.0,0.0,-0.5363,-0.4848,0.0,0.0,0.0,0.0,0.0,0.0,0.0,0.0,0.0,0.0,0.0,0.0,0.0,0.0,0.0,0.0,0.0,0.0,0.0,0.0,0.0,0.0,0.0,0.0,0.0,0.0,0.0,0.0,0.0,0.0,0.0,0.0,0.0,0.0,0.0,0.0,0.0,0.0,0.0,0.0,0.0,0.0,0.0,0.0,0.0,0.0,0.0,0.0,0.0,0.0,0.0,0.0,0.0,0.0,0.0,-0.3542,-0.3799,-0.3959,-0.4125,-0.4398,-0.4728,-0.5167,-0.5161,-0.5089,0.0,0.0,0.0,0.0,0.0,0.0,0.0,0.0,0.0,0.0,0.0,0.0,0.0,0.0,0.0,0.0,0.0,0.0,0.0,0.0,0.0,0.0,0.0,0.0,0.0,0.0,0.0,0.0,0.0,0.0,0.0,0.0,0.0,0.0,0.0,0.0,0.0,0.0,0.0,0.0,0.0,-0.5667,-0.6002,-0.6056,0.0,0.0,0.0,0.0,-0.6326,-0.5988,0.0,0.0,0.0,0.0,0.0,0.0,0.0,0.0,0.0,0.0,0.0,0.0,0.0,0.0,0.0,0.0,0.0,0.0,0.0,0.0,0.0,0.0,0.0,0.0,0.0,0.0,0.0,0.0,0.0,0.0,0.0,0.0,0.0,0.0,0.0,0.0,0.0,0.0,0.0,0.0,0.0,0.0,0.0,0.0,0.0,0.0,0.0,0.0,0.0,0.0,0.0,0.0,0.0,0.0,0.0,0.0,-0.4378,-0.4728,-0.5014,-0.5113,-0.5445,-0.5828,-0.6218,-0.6063,-0.5904,0.0,0.0,0.0,0.0,0.0,0.0,0.0,0.0,0.0,0.0,0.0,0.0,0.0,0.0,0.0,0.0,0.0,0.0,0.0,0.0,0.0,0.0,0.0,0.0,0.0,0.0,0.0,0.0,0.0,0.0,0.0,0.0,0.0,0.0,0.0,0.0,0.0,0.0,0.0,0.0,0.0,-0.5962,-0.6457,-0.6381,-0.6406,0.0,0.0,-0.6523,-0.6796,-0.6176,0.0,0.0,0.0,0.0,0.0,0.0,0.0,0.0,0.0,0.0,0.0,0.0,0.0,0.0,0.0,0.0,0.0,0.0,0.0,0.0,0.0,0.0,0.0,0.0,0.0,0.0,0.0,0.0,0.0,0.0,0.0,0.0,0.0,0.0,0.0,0.0,0.0,0.0,0.0,0.0,0.0,0.0,0.0,0.0,0.0,0.0,0.0,0.0,0.0,0.0,0.0,0.0,0.0,0.0,0.0,-0.488,-0.5226,-0.5555,-0.5778,-0.5941,-0.6273,-0.6593,-0.6918,-0.6818,-0.6706,0.0,0.0,0.0,0.0,0.0,0.0,0.0,0.0,0.0,0.0,0.0,0.0,0.0,0.0,0.0,0.0,0.0,0.0,0.0,0.0,0.0,0.0,0.0,0.0,0.0,0.0,0.0,0.0,0.0,0.0,0.0,0.0,0.0,0.0,0.0,0.0,0.0,0.0,0.0,0.0,0.0,0.0,-0.6601,-0.6559,0.0,0.0,0.0,-0.6386,-0.6381,0.0,0.0,0.0,0.0,0.0,0.0,0.0,0.0,0.0,0.0,0.0,0.0,0.0,0.0,0.0,0.0,0.0,0.0,0.0,0.0,0.0,0.0,0.0,0.0,0.0,0.0,0.0,0.0,0.0,0.0,0.0,0.0,0.0,0.0,0.0,0.0,0.0,0.0,0.0,0.0,0.0,0.0,0.0,0.0,0.0,0.0,0.0,0.0,0.0,0.0,0.0,0.0,0.0,0.0,0.0,0.0,0.0,-0.6046,-0.6317,-0.6534,-0.6707,-0.7031,-0.73,-0.761,-0.7557,0.0,0.0,0.0,0.0,0.0,0.0,0.0,0.0,0.0,0.0,0.0,0.0,0.0,0.0,0.0,0.0,0.0,0.0,0.0,0.0,0.0,0.0,0.0,0.0,0.0,0.0,0.0,-0.4033,0.0,0.0,0.0,0.0,0.0,0.0,0.0,0.0,0.0,0.0,0.0,0.0,0.0,0.0,-0.649,-0.6652,-0.6647,-0.6544,0.0,0.0,-0.6114,-0.5837,-0.5503,-0.5132,0.0,0.0,0.0,0.0,0.0,0.0,0.0,0.0,0.0,0.0,0.0,0.0,0.0,0.0,0.0,0.0,0.0,0.0,0.0,0.0,0.0,0.0,0.0,0.0,0.0,0.0,0.0,0.0,0.0,0.0,0.0,0.0,0.0,0.0,0.0,0.0,0.0,0.0,0.0,0.0,0.0,0.0,0.0,0.0,0.0,0.0,0.0,0.0,0.0,0.0,0.0,0.0,0.0,0.0,0.0,-0.6647,-0.702,-0.7354,-0.7616,-0.7771,-0.8037,-0.8468,-0.8268,-0.8032,0.0,0.0,0.0,0.0,0.0,0.0,0.0,0.0,0.0,0.0,0.0,0.0,0.0,0.0,0.0,0.0,0.0,0.0,0.0,0.0,0.0,0.0,0.0,0.0,0.0,0.0,0.0,0.0,0.0,0.0,0.0,0.0,0.0,0.0,0.0,0.0,0.0,0.0,0.0,0.0,0.0,-0.649,-0.6707,-0.6544,-0.6381,0.0,0.0,-0.5567,-0.5411,-0.5011,-0.4779,-0.4875,0.0,0.0,0.0,0.0,0.0,0.0,0.0,0.0,0.0,0.0,0.0,0.0,0.0,0.0,0.0,0.0,0.0,0.0,0.0,0.0,0.0,0.0,0.0,0.0,0.0,0.0,0.0,0.0,0.0,0.0,0.0,0.0,0.0,0.0,0.0,0.0,0.0,0.0,0.0,0.0,0.0,0.0,0.0,0.0,0.0,0.0,0.0,0.0,0.0,0.0,0.0,0.0,0.0,-0.7415,-0.8074,-0.8262,-0.8601,-0.8989,-0.9151,-0.928,-0.9383,-0.9228,-0.8978,0.0,0.0,0.0,0.0,0.0,0.0,0.0,0.0,0.0,0.0,0.0,0.0,0.0,0.0,0.0,0.0,0.0,0.0,0.0,0.0,0.0,0.0,0.0,0.0,0.0,0.0,0.0,0.0,-0.6774,-0.6754,-0.6788,0.0,0.0,0.0,0.0,0.0,0.0,0.0,0.0,0.0,0.0,-0.6598,-0.6707,-0.6652,0.0,0.0,-0.5941,-0.5656,-0.5434,-0.5139,-0.4992,-0.5193,-0.5615,0.0,0.0,0.0,0.0,0.0,0.0,0.0,0.0,0.0,0.0,0.0,0.0,0.0,0.0,0.0,0.0,0.0,0.0,0.0,0.0,0.0,0.0,0.0,0.0,0.0,0.0,0.0,0.0,0.0,0.0,0.0,0.0,0.0,0.0,0.0,0.0,0.0,0.0,0.0,0.0,0.0,0.0,0.0,0.0,0.0,0.0,0.0,0.0,0.0,0.0,0.0,0.0,-0.8534,-0.9247,-0.9427,-0.9782,-1.0229,-1.0351,-1.0421,-1.0313,-1.0202,-0.994,0.0,0.0,0.0,0.0,0.0,0.0,0.0,0.0,0.0,0.0,0.0,0.0,0.0,0.0,0.0,0.0,0.0,0.0,0.0,0.0,0.0,0.0,0.0,0.0,0.0,0.0,0.0,0.0,-0.8038,-0.7996,-0.8082,0.0,0.0,0.0,0.0,0.0,0.0,0.0,0.0,0.0,0.0,-0.7088,-0.6999,-0.7041,-0.6976,-0.6633,-0.637,-0.6167,-0.5897,-0.5751,-0.5776,-0.6108,0.0,0.0,0.0,0.0,0.0,0.0,0.0,0.0,0.0,0.0,0.0,0.0,0.0,0.0,0.0,0.0,0.0,0.0,0.0,0.0,0.0,0.0,0.0,0.0,0.0,0.0,0.0,0.0,0.0,0.0,-1.0363,0.0,0.0,0.0,0.0,0.0,0.0,0.0,0.0,0.0,0.0,0.0,0.0,0.0,0.0,0.0,0.0,0.0,0.0,0.0,0.0,0.0,0.0,-0.9485,-1.0006,-1.043,-1.0808,-1.1156,-1.1341,-1.1349,-1.1262,-1.1148,-1.0826,-1.0369,0.0,0.0,0.0,0.0,0.0,0.0,0.0,0.0,0.0,0.0,0.0,0.0,0.0,0.0,0.0,0.0,0.0,0.0,0.0,0.0,0.0,0.0,0.0,0.0,0.0,0.0,-0.8724,-0.8381,-0.8166,0.0,0.0,0.0,0.0,0.0,0.0,0.0,0.0,0.0,0.0,-0.7671,-0.7915,-0.7703,-0.791,-0.786,-0.7466,-0.7255,-0.7116,-0.7012,-0.6992,-0.722,0.0,0.0,0.0,0.0,0.0,0.0,0.0,0.0,0.0,0.0,0.0,0.0,0.0,0.0,0.0,0.0,0.0,0.0,0.0,0.0,0.0,0.0,0.0,0.0,0.0,0.0,0.0,-0.9802,-1.0129,0.0,0.0,0.0,0.0,0.0,0.0,0.0,0.0,0.0,0.0,0.0,-1.266,-1.2448,0.0,0.0,0.0,0.0,0.0,0.0,0.0,0.0,0.0,0.0,0.0,0.0,-1.078,-1.1405,-1.1654,-1.1955,-1.2262,-1.2322,-1.2268,-1.2092,-1.1961,-1.1574,-1.0933,0.0,0.0,0.0,0.0,0.0,0.0,0.0,0.0,0.0,0.0,0.0,0.0,0.0,0.0,0.0,0.0,0.0,0.0,0.0,0.0,0.0,0.0,0.0,0.0,0.0,-0.9309,0.0,0.0,0.0,0.0,0.0,0.0,0.0,0.0,0.0,0.0,0.0,-0.8051,-0.8166,-0.8386,-0.8583,-0.8625,-0.8703,-0.864,0.0,0.0,0.0,0.0,0.0,0.0,0.0,0.0,0.0,0.0,0.0,0.0,0.0,0.0,-1.2793,-1.291,-1.3238,-1.361,-1.3988,0.0,0.0,0.0,0.0,0.0,0.0,0.0,0.0,0.0,0.0,0.0,0.0,0.0,0.0,-1.1075,0.0,-1.1546,0.0,0.0,0.0,0.0,0.0,0.0,0.0,0.0,-1.3482,-1.3609,-1.3814,-1.3555,-1.3489,0.0,-1.3413,-1.2851,0.0,0.0,0.0,0.0,0.0,0.0,0.0,0.0,-1.1943,-1.2482,-1.2728,-1.2981,-1.3224,-1.3224,-1.3176,-1.305,-1.2856,-1.2552,-1.2172,-1.2143,-1.1956,0.0,0.0,0.0,0.0,0.0,0.0,0.0,0.0,0.0,0.0,0.0,0.0,0.0,0.0,0.0,0.0,0.0,0.0,0.0,0.0,0.0,0.0,0.0,-1.0097,0.0,0.0,0.0,0.0,0.0,0.0,0.0,0.0,0.0,-0.9255,-0.9126,-0.9207,-0.9276,-0.9396,-0.9548,-0.9571,0.0,0.0,0.0,0.0,0.0,0.0,0.0,-0.9605,-1.0336,-1.1041,-1.1789,-1.2473,-1.2969,-1.3294,-1.333,0.0,0.0,-1.3192,-1.3382,-1.3705,-1.4129,-1.4362,-1.4593,-1.4858,-1.4949,-1.5108,0.0,0.0,0.0,0.0,0.0,0.0,0.0,0.0,-1.2325,-1.2667,0.0,-1.3094,0.0,0.0,0.0,0.0,0.0,-1.3721,0.0,0.0,-1.4438,-1.4672,-1.4797,-1.4576,-1.4417,-1.4427,-1.417,-1.4276,-1.4532,-1.3146,0.0,0.0,0.0,0.0,0.0,0.0,-1.3017,-1.3329,-1.364,-1.3881,-1.401,-1.401,-1.401,-1.4001,-1.3705,-1.3663,-1.3864,-1.3608,-1.321,-1.2752,-1.2629,0.0,0.0,0.0,0.0,0.0,0.0,0.0,0.0,0.0,0.0,0.0,0.0,0.0,0.0,0.0,0.0,0.0,0.0,0.0,0.0,-1.0751,0.0,0.0,0.0,0.0,0.0,0.0,0.0,0.0,0.0,0.0,-1.1179,-1.0857,-1.0686,-1.0523,0.0,0.0,0.0,0.0,-1.0737,-1.0351,-1.0364,-1.0358,-1.0541,-1.0667,-1.1101,-1.1919,0.0,0.0,-1.3995,-1.4315,-1.445,-1.4609,-1.4935,-1.4912,-1.3741,-1.3868,-1.4142,-1.4309,-1.4622,-1.4799,-1.4937,-1.5234,-1.537,-1.1035,0.0,0.0,0.0,0.0,-1.1792,-1.2227,-1.2628,-1.3441,-1.3938,-1.4167,-1.4589,0.0,0.0,0.0,0.0,0.0,0.0,-1.4986,-1.5047,-1.5081,-1.5216,-1.544,-1.5257,-1.5255,-1.5455,-1.5409,-1.5355,-1.5349,-1.4945,-1.4475,-1.3933,0.0,0.0,0.0,0.0,-1.3821,-1.3821,-1.4112,-1.4291,-1.4359,-1.4359,-1.4419,-1.4469,-1.4545,-1.4524,-1.4402,-1.4472,-1.4321,-1.3806,-1.3715,0.0,0.0,0.0,0.0,0.0,0.0,0.0,0.0,0.0,0.0,0.0,0.0,0.0,0.0,0.0,0.0,0.0,0.0,0.0,-1.1802,-1.1856,-1.1952,0.0,0.0,0.0,0.0,0.0,0.0,0.0,0.0,0.0,-1.3151,-1.2085,-1.1363,0.0,0.0,-1.1518,-1.1385,-1.1494,-1.1428,-1.1247,-1.124,0.0,-1.1421,-1.1622,-1.1926,-1.2589,-1.3494,-1.4323,-1.4807,-1.5009,-1.5134,-1.5154,-1.5455,-1.5615,-1.5387,-1.5389,-1.5598,-1.5796,-1.6052,-1.6169,-1.5939,-1.5963,-1.5904,-1.2912,-1.231,-1.2112,-1.2277,-1.2679,-1.3147,-1.3591,-1.399,-1.4679,-1.5128,-1.5289,-1.5673,-1.5793,-1.5804,-1.5672,0.0,0.0,0.0,-1.5774,-1.5785,-1.5871,-1.5953,-1.6106,-1.5995,-1.6028,-1.6181,-1.6144,-1.6029,-1.5972,-1.5904,-1.5594,-1.5118,0.0,0.0,-1.4414,-1.4596,-1.4739,-1.4823,-1.5139,-1.5261,-1.5322,-1.5223,-1.5308,-1.5427,-1.5459,-1.5418,-1.5379,-1.5527,-1.5426,-1.4881,-1.4807,-1.4576,0.0,0.0,0.0,0.0,0.0,0.0,0.0,0.0,0.0,0.0,0.0,-1.2559,-1.276,0.0,0.0,0.0,-1.2958,-1.2793,-1.2683,-1.2619,0.0,0.0,0.0,0.0,0.0,0.0,0.0,-1.4218,-1.4121,-1.4145,-1.4264,-1.3409,-1.2688,-1.2433,-1.2346,-1.2245,-1.2089,0.0,-1.2311,-1.2185,-1.2185,-1.2248,-1.2437,-1.2453,-1.2674,-1.3381,-1.4231,-1.4944,-1.5345,-1.5604,-1.578,-1.5977,-1.6276,-1.6541,-1.6647,-1.6856,-1.6894,-1.6653,-1.6811,-1.6963,-1.6764,-1.6717,-1.6658,-1.46,-1.478,-1.4227,-1.4096,-1.4334,-1.4714,-1.5195,-1.5712,-1.591,-1.6125,-1.6379,-1.6424,-1.6486,-1.6435,-1.6305,0.0,-1.606,-1.6319,-1.6407,-1.6418,-1.6716,-1.6874,-1.6807,-1.6684,-1.6637,-1.6581,-1.6477,-1.6431,-1.6441,-1.628,-1.6222,-1.6165,-1.5576,-1.5305,-1.5435,-1.5543,-1.5751,-1.6045,-1.6392,-1.6529,-1.6583,-1.6451,-1.6477,-1.6718,-1.6351,-1.6347,-1.6623,-1.6648,-1.6427,-1.6016,-1.5865,-1.5515,-1.4793,0.0,0.0,0.0,0.0,0.0,0.0,0.0,0.0,0.0,0.0,0.0,0.0,0.0,0.0,0.0,-1.3442,0.0,-1.3387,-1.3167,0.0,0.0,0.0,-1.4133,-1.4542,-1.4843,-1.5029,-1.5029,0.0,0.0,-1.4852,-1.4771,-1.4441,-1.364,-1.3266,-1.3038,-1.2685,-1.3027,-1.322,-1.3228,-1.322,-1.3292,-1.3484,-1.3339,-1.3483,-1.4201,-1.4693,-1.5196,-1.5642,-1.6046,-1.6457,-1.6698,-1.719,-1.7501,-1.77,-1.8015,-1.8119,-1.7136,-1.7211,-1.7397,-1.7447,-1.7423,-1.7448,-1.6376,-1.6686,-1.704,-1.6373,-1.5091,-1.5341,-1.5599,-1.5899,-1.6584,-1.6949,-1.7035,-1.7622,-1.7889,-1.7889,-1.7676,-1.7557,-1.7396,-1.741,-1.7302,-1.7236,-1.7302,-1.7179,-1.6955,-1.6899,-1.6853,-1.6761,-1.6694,-1.6627,-1.6726,-1.7043,-1.7153,-1.7009,-1.7222,-1.6911,-1.6145,-1.6572,-1.6799,-1.6772,-1.6971,-1.7096,-1.7086,-1.7183,-1.7298,-1.7492,-1.7168,-1.7095,-1.726,-1.7226,-1.7034,-1.6738,-1.686,-1.6695,-1.6311,-1.6032,0.0,0.0,0.0,0.0,0.0,0.0,0.0,0.0,0.0,-1.3598,-1.3951,0.0,-1.4345,0.0,-1.4619,-1.4503,-1.4369,-1.4194,0.0,0.0,-1.444,-1.4721,-1.5177,-1.5371,-1.5556,-1.5498,-1.5891,-1.6138,-1.5989,-1.6276,-1.6276,-1.5823,-1.4852,-1.4176,-1.4204,-1.425,-1.4317,-1.4309,-1.4317,-1.4382,-1.4543,-1.4584,-1.4762,-1.5191,-1.5298,-1.5478,-1.5941,-1.6285,-1.6627,-1.6909,-1.7368,-1.7656,-1.7711,-1.8139,-1.8447,-1.8242,-1.8301,-1.8339,-1.8058,-1.7924,-1.7804,-1.7828,-1.8078,-1.8518,-1.8123,-1.7159,-1.7247,-1.7235,-1.7295,-1.7824,-1.7986,-1.7855,-1.8293,-1.8464,-1.8464,-1.8356,-1.8236,-1.8139,-1.7975,-1.781,-1.77,-1.7868,-1.7856,-1.7687,-1.7838,-1.7821,-1.7785,-1.7658,-1.7668,-1.769,-1.7927,-1.8067,-1.7948,-1.8408,-1.8371,-1.7842,-1.7822,-1.7849,-1.8042,-1.8117,-1.8255,-1.8309,-1.8312,-1.8343,-1.8509,-1.8244,-1.8105,-1.8283,-1.8008,-1.7754,-1.7676,-1.7556,-1.7345,-1.7054,-1.6984,-1.6659,0.0,0.0,0.0,0.0,0.0,0.0,0.0,0.0,0.0,0.0,0.0,-1.4849,-1.5118,-1.5147,-1.5029,-1.4961,-1.4784,-1.4725,-1.4843,-1.5112,-1.5405,-1.5703,-1.6178,-1.6497,-1.6497,-1.693,-1.7203,-1.716,-1.7328,-1.7491,-1.7312,-1.6573,-1.5817,-1.5366,-1.5379,-1.5561,-1.5569,-1.5626,-1.5685,-1.5652,-1.5804,-1.6038,-1.6257,-1.6227,-1.6293,-1.6632,-1.6753,-1.6842,-1.7179,-1.7523,-1.781,-1.7877,-1.8247,-1.8614,-1.8679,-1.8744,-1.8744,-1.8574,-1.8514,-1.8394,-1.9099,-1.9208,-1.9422,-1.9659,-1.979,-1.9647,-1.9376,-1.9102,-1.9204,-1.9116,-1.8922,-1.8868,-1.8922,-1.8868,-1.8868,-1.8771,-1.8674,-1.8455,-1.8279,-1.818,-1.8498,-1.8644,-1.8678,-1.8988,-1.9119,-1.9108,-1.9033,-1.8983,-1.8912,-1.8956,-1.8929,-1.8951,-1.9368,-1.9662,-1.9883,-1.9168,-1.8975,-1.942,-1.9396,-1.9473,-1.966,-1.9458,-1.9432,-1.9558,-1.9343,-1.9208,-1.9317,-1.8915,-1.8644,-1.8633,-1.8216,-1.7857,-1.76,-1.7752,-1.7477,0.0,-1.6734,0.0,0.0,0.0,0.0,0.0,0.0,0.0,0.0,-1.5215,-1.5254,-1.541,-1.5313,-1.5215,-1.5215,-1.5136,-1.5105,-1.5183,-1.5778,-1.6204,-1.6284,-1.7042,-1.7585,-1.7595,-1.7997,-1.8203,-1.8211,-1.8286,-1.8416,-1.8499,-1.824,-1.7601,-1.656,-1.6572,-1.6778,-1.6788,-1.6978,-1.6977,-1.6864,-1.7026,-1.7219,-1.7377,-1.7358,-1.7336,-1.7525,-1.7367,-1.7266,-1.7545,-1.7799,-1.8018,-1.8139,-1.841,-1.8667,-1.8839,-1.8905,-1.8946,-1.8963,-1.8951,-1.9105,-2.0335,-2.043,-2.112,-2.1407,-2.1469,-2.1665,-2.1069,-1.9959,-2.0086,-2.0268,-2.0455,-2.0455,-2.0455,-2.0411,-2.0273,-2.016,-2.0001,-1.9898,-1.9714,-1.9518,-1.9611,-1.961,-1.9516,-1.9818,-1.9864,-1.9595,-1.9981,-1.9922,-1.9392,-1.9765,-1.9884,-1.9722,-2.0317,-2.0692,-2.0894,0.0,0.0,0.0,-2.0031,-1.9977,-2.0031,-2.0213,-2.0373,-2.0362,-2.0183,0.0,-2.0144,-1.9805,-1.961,-1.9505,-1.9366,0.0,0.0,0.0,0.0,0.0,0.0,0.0,0.0,0.0,0.0,0.0,-1.6898,-1.6365,-1.5341,-1.5303,-1.5362,-1.541,-1.5352,-1.5362,-1.5362,-1.5563,-1.5715,-1.5906,-1.6338,-1.6842,-1.7225,-1.7657,-1.8006,-1.8262,-1.8964,-1.9375,-1.9393,-1.9714,-1.9856,-1.9641,-1.9391,-1.9107,-1.8543,-1.7994,-1.7803,-1.7939,-1.8101,-1.8215,-1.8364,-1.8161,-1.813,-1.8333,-1.8258,-1.8137,-1.8101,-1.8121,-1.8036,-1.8011,-1.8139,-1.8356,-1.8518,-1.8721,-1.8987,-1.9093,-1.921,-1.921,-1.904,-1.8987,-1.9093,-2.1544,0.0,-2.2041,-2.2261,0.0,-2.2543,-2.2333,-2.1746,-2.1326,-2.1083,-2.1011,-2.0998,-2.1011,-2.0954,-2.0758,-2.0644,-2.0517,-2.0367,-2.0181,-2.0077,-2.0311,-2.0357,-2.0321,-2.0708,-2.0836,-2.0717,-2.0944,-2.0944,-2.0618,-2.0715,-2.0756,-2.0631,-2.0957,-2.1285,-2.1549,-2.1788,-2.1577,-2.088,-2.0752,-2.0688,-2.0741,-2.1008,-2.1146,-2.125,-2.1269,0.0,0.0,0.0,0.0,0.0,0.0,0.0,0.0,-1.9553,0.0,-1.879,-1.8776,-1.858,-1.8038,-1.7894,-1.7781,-1.7595,-1.7399,-1.703,-1.6286,-1.6186,-1.6176,-1.6176,-1.6115,-1.6064,-1.6074,-1.6146,-1.6334,-1.654,-1.701,-1.747,-1.7934,-1.8438,-1.8934,-1.9271,-1.9794,-2.0232,-2.0296,-2.0452,-2.0549,-2.0386,-2.0161,-1.9933,-1.9736,-1.9142,-1.8741,-1.8998,-1.9187,-1.9309,-1.9431,-1.9424,-1.9437,-1.9564,-1.9467,-1.9298,-1.9147,-1.9034,-1.8825,-1.8581,-1.8667,-1.8827,-1.8881,-1.9146,-1.9291,-1.9396,-1.95,-1.9604,-1.95,-1.9396,-1.9356,-2.2604,-2.2566,-2.285,-2.2911,-2.2972,-2.3106,-2.3299,-2.3378,0.0,0.0,0.0,-2.1477,-2.1453,-2.1408,-2.1223,-2.1095,-2.0967,-2.0863,-2.077,-2.0676,-2.1021,-2.1138,-2.1173,-2.1599,-2.1824,-2.1824,-2.1886,-2.1824,-2.1824,-2.1612,-2.1572,-2.1654,-2.1591,-2.1902,-2.2324,-2.2575,-2.2501,-2.1973,-2.1568,-2.1411,-2.1526,-2.1714,-2.1901,-2.2013,-2.2235,-2.2309,-2.2309,-2.1922,-2.1572,-2.1392,-2.0996,-2.0544,-2.0143,-2.0375,-2.0256,-1.9454,-1.9694,-1.9552,-1.8837,-1.8693,-1.8456,-1.8093,-1.7832,-1.7571,-1.7357,-1.7096,-1.6981,-1.6981,-1.6792,-1.6665,-1.6665,-1.6807,-1.6909,-1.709,-1.766,-1.8106,-1.8516,-1.923,-1.9748,-2.0118,-2.0484,-2.0786,-2.0828,-2.088,-2.0955,-2.0846,-2.0624,-2.0464,-2.0399,-1.9878,-1.9605,-1.9868,-2.0042,-2.0237,-2.0302,-2.0484,-2.07,-2.0707,-2.0631,-2.0552,-2.0217,-1.9873,-1.9543,-1.9148,-1.9198,-1.9239,-1.9344,-1.9512,-1.9656,-1.972,-1.9798,-1.9952,-2.0105,-2.0003,-1.9875,-2.3548,-2.3952,-2.4149,-2.4211,-2.4211,-2.4285,-2.4016,-2.3569,-2.3314,-2.3119,-2.3043,-2.2912,-2.2733,-2.2625,-2.2625,-2.2565,-2.2396,-2.2396,-2.2384,-2.2335,-2.2213,-2.2176,-2.2188,-2.2261,-2.2297,-2.2309,-2.2494,-2.2494,-2.2309,-2.2185,-2.2214,-2.2479,-2.2526,-2.3011,-2.39,-2.4002,-2.4067,-2.4119,-2.2769,-2.2061,-2.2061,-2.2235,-2.2347,-2.2519,-2.2714,-2.28,-2.2787,-2.2713,-2.2542,-2.225,-2.2053,-2.182,-2.1587,-2.1346,-2.1106,-2.09,-2.0819,-2.0501,-1.9899,-1.9846,-1.9587,-1.9152,-1.902,-1.8557,-1.7417,-1.7096,-1.6981,-1.6981,-1.6894,-1.6665,-1.6685,-1.708,-1.735,-1.7546,-1.8045,-1.8649,-1.9083,-1.9552,-1.9933,-2.0335,-2.0646,-2.088,-2.091,-2.106,-2.1106,-2.0914,-2.085,-2.0839,-2.0786,-2.0529,-2.0335,-2.0453,-2.0635,-2.0828,-2.1031,-2.1198,-2.1262,-2.1273,-2.1506,-2.1341,-2.0602,-2.0547,-2.028,-1.9633,-1.9473,-1.9512,-1.9784,-1.9811,-1.9965,-2.0169,-2.0321,-2.0409,-2.066,-2.0723,-2.0686,-2.4397,-2.4822,-2.5047,-2.5123,-2.5097,-2.4971,-2.4562,-2.3969,-2.3865,-2.3628,-2.3403,-2.3283,-2.315,-2.3017,-2.2909,-2.2848,-2.28,-2.2739,-2.2678,-2.2678,-2.2616,-2.2555,-2.2555,-2.2555,-2.2616,-2.2665,-2.28,-2.2997,-2.3245,-2.3033,-2.3113,-2.3535,-2.3701,-2.403,-2.4576,-2.473,-2.4859,-2.4936,-2.3924,-2.3213,-2.3058,-2.3045,-2.3096,-2.303,-2.315,-2.3223,-2.3258,-2.3271,-2.315,-2.2775,-2.2714,-2.2482,-2.2061,-2.1925,-2.1737,-2.1498,-2.1285,-2.1008,-2.07,-2.0302,-1.9911,-1.9473,-1.9351,-1.9052,-1.8356,-1.8056,-1.8001,-1.7936,-1.7815,-1.7684,-1.7553,-1.7807,-1.8048,-1.8095,-1.8429,-1.8875,-1.9341,-1.9605,-1.9933,-2.0335,-2.0593,-2.0828,-2.0876,-2.106,-2.1169,-2.1106,-2.1094,-2.121,-2.1296,-2.1233,-2.1221,-2.1221,-2.1348,-2.1549,-2.1749,-2.1862,-2.1901,-2.1963,-2.2161,-2.1958,-2.1231,-2.1156,-2.0797,-2.0127,-1.9875,-1.9926,-2.0182,-2.022,-2.0359,-2.0623,-2.0772,-2.0921,-2.1166,-2.141,-2.1458,-2.5335,-2.5741,-2.5881,-2.5957,-2.5968,-2.5651,-2.5163,-2.4575,-2.4471,-2.4158,-2.3628,-2.3509,-2.333,-2.3198,-2.309,-2.309,-2.303,-2.2969,-2.2934,-2.2921,-2.286,-2.286,-2.2873,-2.2873,-2.2909,-2.303,-2.309,-2.3424,-2.39,-2.3679,-2.384,-2.4462,-2.4903,-2.5159,-2.5212,-2.5549,-2.5743,-2.5743,-2.5302,-2.4716,-2.4054,-2.3979,-2.3815,-2.3679,-2.3586,-2.3582,-2.3641,-2.3688,-2.3509,-2.3258,-2.3138,-2.2896,-2.242,-2.2309,-2.2135,-2.1812,-2.1612,-2.14,-2.1221,-2.0571,-2.0118,-1.9726,-1.9605,-1.9396,-1.9208,-1.9075,-1.8942,-1.8808,-1.8576,-1.8452,-1.8297,-1.8385,-1.8549,-1.8549,-1.8741,-1.9075,-1.9473,-1.9605,-1.9802,-2.0281,-2.0529,-2.0775,-2.0858,-2.106,-2.1221,-2.1296,-2.1411,-2.16,-2.1749,-2.1937,-2.1987,-2.2037,-2.2037,-2.2173,-2.2371,-2.2543,-2.2604,-2.2592,-2.2726,-2.2471,-2.1901,-2.1592,-2.1301,-2.0579,-2.0321,-2.0422,-2.0573,-2.066,-2.0822,-2.1082,-2.1215,-2.1375,-2.165,-2.1935,-2.2091,-2.6498,-2.699,-2.703,-2.7093,-2.7,-2.6639,-2.6002,-2.5388,-2.5467,-2.5029,-2.4281,-2.3806,-2.3582,-2.3556,-2.3569,-2.3509,-2.3509,-2.3509,-2.3509,-2.3497,-2.3403,-2.3343,-2.3343,-2.333,-2.339,-2.3569,-2.37,-2.3929,-2.4125,-2.3935,-2.4243,-2.5027,-2.6161,-2.6646,-2.6604,-2.6873,-2.7087,-2.7113,-2.7167,-2.6569,-2.5205,-2.4655,-2.4497,-2.4554,-2.409,-2.3891,-2.3929,-2.3878,-2.376,-2.3556,-2.3258,-2.3078,-2.2957,-2.2592,-2.2297,-2.2197,-2.1937,-2.1675,-2.1221,-2.085,-2.0453,-2.0107,-2.0042,-1.9857,-1.9605,-1.9539,-1.9341,-1.8942,-1.8684,-1.8549,-1.8482,-1.8549,-1.8617,-1.8741,-1.8942,-1.9198,-1.9539,-1.9736,-1.9933,-2.0074,-2.0475,-2.0722,-2.0775,-2.1083,-2.1411,-2.1624,-2.1749,-2.1925,-2.2061,-2.2297,-2.2482,-2.2775,-2.2775,-2.2714,-2.2957,-2.321,-2.3198,-2.3138,-2.3318,-2.3025,-2.2373,-2.2034,-2.1781,-2.1366,-2.0904,-2.1043,-2.1086,-2.118,-2.1256,-2.1471,-2.1602,-2.1712,-2.2044,-2.2324,-2.2463,-2.7427,-2.8015,-2.8029,-2.7863,-2.7575,-2.7455,-2.7033,-2.647,-2.6503,-2.6234,-2.5854,-2.5661,-2.4906,-2.391,-2.3897,-2.3897,-2.391,-2.3897,-2.391,-2.3897,-2.3839,-2.3793,-2.3793,-2.378,-2.391,-2.4015,-2.4086,-2.4386,-2.4886,-2.5371,-2.5762,-2.6052,-2.6986,-2.7443,-2.739,-2.7603,-2.7802,-2.7908,-2.7973,-2.7748,-2.7205,-2.6179,-2.5484,-2.5198,-2.4788,-2.4489,-2.4523,-2.4295,-2.4041,-2.3819,-2.3641,-2.345,-2.3125,-2.2896,-2.2726,-2.2506,-2.2247,-2.1862,-2.1348,-2.1221,-2.0892,-2.0442,-2.0377,-2.0237,-1.9922,-1.9911,-1.9791,-1.9594,-1.933,-1.9075,-1.8875,-1.8952,-1.9019,-1.9008,-1.9142,-1.9351,-1.9736,-1.9922,-2.0118,-2.0281,-2.0593,-2.0786,-2.0839,-2.1146,-2.1463,-2.1737,-2.1937,-2.2123,-2.2309,-2.2592,-2.2909,-2.3198,-2.339,-2.3509,-2.3569,-2.3734,-2.3721,-2.3721,-2.378,-2.3534,-2.3175,-2.2981,-2.2855,-2.2333,-2.2224,-2.2086,-2.2034,-2.2002,-2.2046,-2.2062,-2.2123,-2.2263,-2.2586,-2.2723,-2.2768,-2.8293,-2.8739,-2.8844,-2.8647,-2.836,-2.8408,-2.8077,-2.7566,-2.7585,-2.7442,-2.7157,-2.7171,-2.638,-2.5127,-2.4739,-2.4588,-2.4575,-2.4429,-2.4363,-2.4363,-2.435,-2.435,-2.4363,-2.4363,-2.4514,-2.4762,-2.4789,-2.5095,-2.5782,-2.6667,-2.7046,-2.7048,-2.7629,-2.7973,-2.8039,-2.8197,-2.8314,-2.8417,-2.8495,-2.856,-2.8505,-2.7613,-2.6737,-2.6136,-2.5608,-2.5287,-2.5129,-2.4767,-2.4405,-2.4125,-2.4054,-2.3806,-2.3378,-2.3318,-2.3078,-2.28,-2.2494,-2.2111,-2.1714,-2.1651,-2.14,-2.0955,-2.0816,-2.07,-2.0366,-2.0313,-2.0248,-2.0248,-2.0064,-1.9747,-1.9407,-1.9341,-1.9351,-1.9274,-1.9341,-1.9615,-1.9922,-2.0118,-2.0259,-2.0464,-2.0711,-2.0967,-2.1094,-2.1348,-2.1663,-2.1987,-2.2247,-2.2371,-2.2543,-2.2896,-2.3271,-2.3522,-2.3878,-2.4041,-2.4041,-2.4144,-2.4247,-2.4305,-2.4292,-2.4209,-2.3928,-2.3849,-2.3757,-2.3207,-2.3409,-2.3293,-2.281,-2.272,-2.263,-2.2489,-2.2495,-2.2723,-2.2859,-2.2949,-2.3127,-2.9233,-2.9296,-2.9463,-2.9512,-2.9484,-2.9628,-2.9304,-2.8619,-2.8739,-2.8415,-2.786,-2.7804,-2.7617,-2.7357,-2.6394,-2.586,-2.572,-2.5246,-2.5003,-2.5003,-2.4948,-2.4935,-2.4948,-2.4962,-2.5361,-2.587,-2.5809,-2.6104,-2.6695,-2.7317,-2.7642,-2.7669,-2.8238,-2.8522,-2.8587,-2.8688,-2.8739,-2.8803,-2.8958,-2.9022,-2.8867,-2.8748,-2.8257,-2.749,-2.6822,-2.6196,-2.5562,-2.5356,-2.5076,-2.4589,-2.4376,-2.4189,-2.4054,-2.3747,-2.339,-2.2969,-2.2726,-2.2531,-2.2347,-2.2247,-2.1987,-2.1663,-2.1463,-2.121,-2.0892,-2.0786,-2.0722,-2.0669,-2.0669,-2.0388,-1.9933,-1.9736,-1.9605,-1.9605,-1.9747,-1.9933,-2.0107,-2.0259,-2.0475,-2.0669,-2.0839,-2.1094,-2.1572,-2.1812,-2.1987,-2.2297,-2.2555,-2.2678,-2.2848,-2.3163,-2.3463,-2.3819,-2.4099,-2.4305,-2.4292,-2.4478,-2.4607,-2.4721,-2.4724,-2.466,-2.4449,-2.4231,-2.4116,-2.4066,-2.4235,-2.4081,-2.354,-2.3197,-2.3036,-2.2876,-2.2797,-2.2934,-2.3127,-2.3216,-2.3348,-2.9747,-2.9946,-3.0021,-2.9974,-2.9927,-2.996,-2.9832,-2.9586,-2.9633,-2.9533,-2.932,-2.9291,-2.9259,-2.9157,-2.8355,-2.7541,-2.6758,-2.615,-2.589,-2.5835,-2.5492,-2.5355,-2.5453,-2.5453,-2.555,-2.5868,-2.6171,-2.661,-2.7157,-2.7714,-2.8016,-2.8112,-2.862,-2.8908,-2.8958,-2.9071,-2.9184,-2.9338,-2.9449,-2.9588,-2.9588,-2.9651,-2.94,-2.8976,-2.7961,-2.7244,-2.6904,-2.6129,-2.5603,-2.5298,-2.482,-2.4376,-2.4112,-2.3747,-2.3509,-2.3271,-2.315,-2.2969,-2.2787,-2.2678,-2.2482,-2.2173,-2.1975,-2.1788,-2.1612,-2.1423,-2.1308,-2.1308,-2.1117,-2.0914,-2.0711,-2.0237,-1.9857,-1.9802,-1.9922,-2.0042,-2.015,-2.0431,-2.0711,-2.0828,-2.1019,-2.1348,-2.1624,-2.1812,-2.2049,-2.2359,-2.2555,-2.28,-2.303,-2.333,-2.3628,-2.3995,-2.4332,-2.4664,-2.4765,-2.4892,-2.5005,-2.5075,-2.509,-2.5231,-2.5122,-2.5202,-2.5101,-2.5177,-2.5222,-2.4858,-2.4305,-2.3339,-2.3233,-2.3033,-2.2979,-2.3172,-2.3392,-2.3436,-2.361,-3.0326,-3.0507,-3.0507,-3.0401,-3.0355,-3.0355,-3.0341,-3.0355,-3.0416,-3.0416,-3.0416,-3.0355,-3.0294,-3.0162,-2.9789,-2.9075,-2.8134,-2.7349,-2.6972,-2.693,-2.6539,-2.6302,-2.6217,-2.6188,-2.6202,-2.6343,-2.6988,-2.7558,-2.7936,-2.8393,-2.8663,-2.8719,-2.9094,-2.9338,-2.9415,-2.9512,-2.9651,-2.9789,-2.9837,-2.9974,-3.0111,-3.0111,-3.005,-2.9766,-2.9044,-2.8415,-2.7961,-2.7133,-2.6481,-2.619,-2.5499,-2.4878,-2.43,-2.3969,-2.3747,-2.3582,-2.3582,-2.339,-2.3138,-2.315,-2.2969,-2.2665,-2.2482,-2.2309,-2.2123,-2.1937,-2.1824,-2.1749,-2.1612,-2.1411,-2.1221,-2.0839,-2.0453,-2.0194,-2.0248,-2.0302,-2.0473,-2.0752,-2.1019,-2.1158,-2.14,-2.1675,-2.1824,-2.1999,-2.2235,-2.2543,-2.2726,-2.2921,-2.315,-2.3509,-2.3852,-2.4203,-2.4549,-2.4905,-2.5061,-2.523,-2.5342,-2.5397,-2.5411,-2.5578,-2.5798,-2.5893,-2.6042,-2.6165,-2.604,-2.5606,-2.4869,-2.3789,-2.3285,-2.3127,-2.3216,-2.3407,-2.3523,-2.3653,-2.3782,-3.0881,-3.1014,-3.0895,-3.0762,-3.0762,-3.0776,-3.0776,-3.0836,-3.0955,-3.0969,-3.0955,-3.0895,-3.0702,-3.0568,-3.0375,-3.0147,-2.974,-2.8797,-2.8211,-2.814,-2.804,-2.7712,-2.7297,-2.7197,-2.7226,-2.7326,-2.8308,-2.8947,-2.9205,-2.94,-2.9518,-2.956,-2.9656,-2.9822,-3.005,-3.0036,-3.0111,-3.0111,-3.0158,-3.0172,-3.0111,-3.0172,-3.0172,-3.0111,-2.9993,-2.945,-2.8535,-2.8255,-2.7801,-2.7276,-2.6593,-2.5714,-2.4838,-2.4443,-2.4171,-2.3936,-2.3891,-2.3747,-2.3531,-2.3556,-2.3378,-2.3138,-2.2969,-2.2726,-2.2543,-2.2297,-2.2185,-2.2061,-2.1925,-2.18,-2.1526,-2.1371,-2.1152,-2.0797,-2.0658,-2.0786,-2.1031,-2.1221,-2.136,-2.1624,-2.1812,-2.1999,-2.2185,-2.2309,-2.2543,-2.2787,-2.303,-2.321,-2.3463,-2.3819,-2.4144,-2.4478,-2.4765,-2.5061,-2.5355,-2.5578,-2.5674,-2.5729,-2.5729,-2.5784,-2.5962,-2.6111,-2.6204,-2.6336,-2.5969,-2.5582,-2.5116,-2.4109,-2.3496,-2.3319,-2.3451,-2.3596,-2.3711,-2.3839,-2.3967,-3.1176,-3.1249,-3.1176,-3.1117,-3.1014,-3.1014,-3.1014,-3.1028,-3.1087,-3.1087,-3.1087,-3.1014,-3.0955,-3.0881,-3.0747,-3.0702,-3.0747,-3.0191,-2.9579,-2.8927,-2.8426,-2.824,-2.8052,-2.765,-2.7679,-2.801,-2.8283,-2.895,-2.9742,-2.9927,-2.9927,-2.9988,-3.0083,-3.0129,-3.0266,-3.0462,-3.0582,-3.0582,-3.0731,-3.0776,-3.0776,-3.0657,-3.0582,-3.0522,-3.0326,-3.0029,-2.9708,-2.9068,-2.8577,-2.826,-2.7569,-2.6665,-2.5693,-2.5207,-2.4858,-2.4443,-2.4261,-2.4086,-2.3923,-2.3865,-2.3688,-2.3509,-2.333,-2.321,-2.309,-2.2909,-2.2775,-2.2592,-2.2469,-2.2273,-2.2099,-2.1862,-2.1572,-2.1106,-2.1042,-2.1083,-2.125,-2.1474,-2.1635,-2.1812,-2.1999,-2.2185,-2.2359,-2.2543,-2.2836,-2.303,-2.321,-2.345,-2.3806,-2.3982,-2.4332,-2.4721,-2.5005,-2.5286,-2.5619,-2.5839,-2.5948,-2.5948,-2.6002,-2.6002,-2.6165,-2.6272,-2.6365,-2.6237,-2.5915,-2.55,-2.4974,-2.4427,-2.3718,-2.3538,-2.3581,-2.3711,-2.3882,-2.4024,-2.4109,-3.1351,-3.1351,-3.1351,-3.1234,-3.119,-3.119,-3.1176,-3.119,-3.1249,-3.1249,-3.1249,-3.119,-3.119,-3.1117,-3.0999,-3.0955,-3.1087,-3.0955,-3.0572,-2.9942,-2.9493,-2.9276,-2.9028,-2.8417,-2.8446,-2.8913,-2.8957,-2.9435,-3.0283,-3.0416,-3.0416,-3.0416,-3.0522,-3.0568,-3.0642,-3.0821,-3.0881,-3.0955,-3.1028,-3.1087,-3.1073,-3.0955,-3.0895,-3.0895,-3.0642,-3.0507,-3.0418,-2.9863,-2.9437,-2.911,-2.845,-2.7464,-2.6471,-2.5905,-2.5504,-2.5065,-2.4656,-2.4421,-2.4247,-2.4157,-2.4099,-2.3923,-2.3806,-2.3747,-2.3675,-2.3543,-2.3424,-2.315,-2.3078,-2.2896,-2.2592,-2.2383,-2.2135,-2.18,-2.1549,-2.1526,-2.1628,-2.1913,-2.2135,-2.2247,-2.2359,-2.2482,-2.2665,-2.2909,-2.315,-2.333,-2.3569,-2.3747,-2.4099,-2.4287,-2.462,-2.4948,-2.5286,-2.5564,-2.5893,-2.6056,-2.6218,-2.6218,-2.6218,-2.6272,-2.6312,-2.6404,-2.6496,-2.6104,-2.5748,-2.5253,-2.472,-2.4119,-2.3523,-2.361,-2.3711,-2.3839,-2.3982,-2.4124,-2.4208,-3.1539,-3.1482,-3.1409,-3.1394,-3.1351,-3.1351,-3.1409,-3.1394,-3.1467,-3.1539,-3.1539,-3.1409,-3.1351,-3.1351,-3.1234,-3.119,-3.1146,-3.1117,-3.1117,-3.1014,-3.0881,-3.0572,-2.9881,-2.9337,-2.941,-2.9837,-2.9925,-3.0279,-3.0732,-3.0895,-3.1014,-3.0836,-3.0955,-3.1073,-3.1073,-3.1146,-3.1132,-3.1132,-3.1146,-3.1146,-3.1146,-3.1146,-3.1146,-3.1073,-3.0881,-3.0762,-3.0687,-3.0495,-3.0343,-3.0025,-2.9181,-2.827,-2.7327,-2.6617,-2.6294,-2.5824,-2.5226,-2.4855,-2.4633,-2.4563,-2.4492,-2.439,-2.4319,-2.4292,-2.4131,-2.4073,-2.3956,-2.3675,-2.3616,-2.3437,-2.309,-2.2885,-2.2776,-2.2629,-2.2247,-2.2111,-2.2359,-2.2555,-2.2616,-2.2678,-2.286,-2.2969,-2.3065,-2.3271,-2.3522,-2.3772,-2.3995,-2.4144,-2.4319,-2.4607,-2.4892,-2.5174,-2.5453,-2.5729,-2.6056,-2.6218,-2.6379,-2.6486,-2.6486,-2.6486,-2.6539,-2.6578,-2.648,-2.6068,-2.5668,-2.5073,-2.4534,-2.4044,-2.3713,-2.3797,-2.3882,-2.3982,-2.4067,-2.4208,-2.4333,-3.1727,-3.1727,-3.1826,-3.1811,-3.1826,-3.1826,-3.1811,-3.1826,-3.1826,-3.1826,-3.1811,-3.1826,-3.1769,-3.1754,-3.1625,-3.1582,-3.1539,-3.1467,-3.1394,-3.1366,-3.1366,-3.0878,-3.0231,-2.998,-2.9965,-3.0142,-3.0258,-3.0424,-3.097,-3.1132,-3.1087,-3.1028,-3.1176,-3.1234,-3.1234,-3.1366,-3.1424,-3.1409,-3.1366,-3.1351,-3.1351,-3.1292,-3.1234,-3.1234,-3.1132,-3.094,-3.0821,-3.0687,-3.0507,-3.0251,-2.9818,-2.9116,-2.8326,-2.7913,-2.7474,-2.6868,-2.6198,-2.5741,-2.5445,-2.502,-2.4704,-2.4563,-2.4576,-2.4492,-2.4492,-2.4434,-2.4319,-2.4189,-2.4131,-2.3956,-2.37,-2.3403,-2.315,-2.286,-2.2616,-2.2555,-2.2629,-2.269,-2.2739,-2.2969,-2.3017,-2.3198,-2.345,-2.3628,-2.3819,-2.3995,-2.4203,-2.4363,-2.4593,-2.4765,-2.5061,-2.5355,-2.5702,-2.5907,-2.6165,-2.6326,-2.6539,-2.6659,-2.6712,-2.6674,-2.6727,-2.6765,-2.6586,-2.6256,-2.5771,-2.5186,-2.4701,-2.4205,-2.4096,-2.394,-2.4024,-2.4109,-2.4234,-2.4374,-2.4457,-3.1898,-3.1898,-3.194,-3.2012,-3.2012,-3.2012,-3.2012,-3.2012,-3.2012,-3.2012,-3.2012,-3.2012,-3.2012,-3.2012,-3.1883,-3.1811,-3.1841,-3.1754,-3.1682,-3.1712,-3.1697,-3.1372,-3.0902,-3.0842,-3.0842,-3.0884,-3.0869,-3.1108,-3.1422,-3.1467,-3.1482,-3.1482,-3.1524,-3.1597,-3.1655,-3.164,-3.164,-3.1655,-3.1597,-3.1597,-3.1482,-3.1409,-3.1409,-3.1351,-3.1234,-3.1058,-3.0821,-3.0702,-3.0507,-3.0312,-3.0115,-2.9775,-2.9294,-2.8834,-2.8418,-2.7861,-2.7142,-2.6693,-2.6394,-2.5782,-2.5368,-2.5229,-2.5051,-2.4805,-2.4791,-2.4791,-2.4664,-2.4536,-2.4523,-2.4363,-2.4086,-2.3793,-2.3463,-2.3188,-2.3055,-2.2994,-2.2946,-2.2982,-2.3042,-2.321,-2.339,-2.3522,-2.37,-2.3923,-2.4099,-2.4287,-2.4434,-2.4664,-2.4892,-2.5005,-2.523,-2.5578,-2.5798,-2.6071,-2.634,-2.6486,-2.6592,-2.6727,-2.6832,-2.6846,-2.6846,-2.6907,-2.6469,-2.6135,-2.5734,-2.5284,-2.4642,-2.423,-2.4149,-2.4067,-2.4166,-2.4291,-2.4374,-2.4482,-2.4564,-3.1996,-3.1996,-3.2053,-3.2053,-3.2109,-3.2053,-3.2109,-3.2109,-3.2109,-3.2109,-3.2094,-3.2053,-3.2109,-3.2038,-3.2094,-3.2038,-3.2038,-3.1981,-3.1981,-3.194,-3.194,-3.1823,-3.1736,-3.1649,-3.1705,-3.1777,-3.1981,-3.191,-3.1883,-3.194,-3.1996,-3.194,-3.194,-3.1996,-3.194,-3.194,-3.1955,-3.1841,-3.1784,-3.1727,-3.1597,-3.1539,-3.1467,-3.1467,-3.1292,-3.1117,-3.0881,-3.0687,-3.0507,-3.0326,-3.0312,-3.0251,-2.9997,-2.9377,-2.8997,-2.8736,-2.8078,-2.7583,-2.7294,-2.6689,-2.6147,-2.5925,-2.5401,-2.5046,-2.5046,-2.4948,-2.4948,-2.4821,-2.4835,-2.465,-2.4408,-2.4086,-2.3772,-2.3501,-2.3416,-2.333,-2.3198,-2.3271,-2.3403,-2.3463,-2.3713,-2.3832,-2.3995,-2.4144,-2.435,-2.4447,-2.4607,-2.4835,-2.5005,-2.5188,-2.5453,-2.5784,-2.6002,-2.6218,-2.6433,-2.6659,-2.6727,-2.6779,-2.6832,-2.6846,-2.6899,-2.6747,-2.63,-2.5904,-2.5667,-2.5077,-2.4247,-2.4028,-2.4082,-2.4208,-2.4333,-2.4416,-2.4498,-2.458,-2.4701,-3.215,-3.2135,-3.2287,-3.2358,-3.2468,-3.2484,-3.2468,-3.2484,-3.2484,-3.2428,-3.2302,-3.2287,-3.2302,-3.2287,-3.2302,-3.2247,-3.215,-3.2135,-3.2094,-3.2012,-3.2012,-3.2053,-3.2094,-3.2053,-3.1996,-3.2053,-3.2012,-3.1996,-3.1996,-3.2053,-3.1996,-3.1981,-3.2053,-3.2012,-3.2053,-3.2053,-3.1981,-3.194,-3.1841,-3.1784,-3.1727,-3.1597,-3.1467,-3.1467,-3.1292,-3.1117,-3.1014,-3.0762,-3.0582,-3.0507,-3.0507,-3.0447,-3.0222,-3.0047,-2.9811,-2.9426,-2.8969,-2.8422,-2.7954,-2.7478,-2.6751,-2.598,-2.5898,-2.5707,-2.5145,-2.5075,-2.5061,-2.5061,-2.5118,-2.5046,-2.4862,-2.4332,-2.4158,-2.402,-2.3816,-2.3658,-2.3535,-2.3463,-2.3522,-2.37,-2.3832,-2.3936,-2.4054,-2.4189,-2.4421,-2.4563,-2.4734,-2.4948,-2.5131,-2.53,-2.5633,-2.5907,-2.6111,-2.6272,-2.6606,-2.6765,-2.6884,-2.6884,-2.6937,-2.7041,-2.7041,-2.6828,-2.6391,-2.602,-2.5766,-2.4987,-2.4164,-2.4109,-2.4208,-2.4333,-2.4457,-2.4539,-2.462,-2.4701,-2.4766,-3.2539,-3.2554,-3.2594,-3.2703,-3.2718,-3.2718,-3.2718,-3.2718,-3.2718,-3.2648,-3.2523,-3.2468,-3.2468,-3.2398,-3.2398,-3.2327,-3.2342,-3.2358,-3.2428,-3.2459,-3.2459,-3.2499,-3.2499,-3.2444,-3.2373,-3.2191,-3.2191,-3.2191,-3.2191,-3.2191,-3.2206,-3.2191,-3.2191,-3.2191,-3.2191,-3.2191,-3.2135,-3.2094,-3.194,-3.1841,-3.1784,-3.1597,-3.1467,-3.1467,-3.1292,-3.1176,-3.119,-3.094,-3.0821,-3.0702,-3.0702,-3.0642,-3.0447,-3.0326,-3.019,-2.9997,-2.9614,-2.9252,-2.89,-2.8326,-2.7819,-2.7298,-2.6779,-2.6153,-2.5768,-2.5435,-2.5257,-2.5382,-2.5603,-2.5782,-2.5852,-2.5635,-2.5322,-2.5077,-2.487,-2.4762,-2.4637,-2.4154,-2.37,-2.3891,-2.3936,-2.4041,-2.4203,-2.4424,-2.4518,-2.4731,-2.4848,-2.5005,-2.5257,-2.5494,-2.5743,-2.5962,-2.6165,-2.6379,-2.6712,-2.6884,-2.7041,-2.7041,-2.7078,-2.7181,-2.7335,-2.6985,-2.6574,-2.6123,-2.5665,-2.5046,-2.4383,-2.4388,-2.4333,-2.4416,-2.4539,-2.4661,-2.4766,-2.4806,-2.4926,-3.2951,-3.2912,-3.2912,-3.2897,-3.2912,-3.2897,-3.2897,-3.2951,-3.2897,-3.2827,-3.2664,-3.2648,-3.2578,-3.2523,-3.2523,-3.2468,-3.2523,-3.2594,-3.2664,-3.2788,-3.2788,-3.2788,-3.2843,-3.2788,-3.2718,-3.2523,-3.2468,-3.2468,-3.2453,-3.2382,-3.2398,-3.2398,-3.2398,-3.2342,-3.2398,-3.2398,-3.2287,-3.2191,-3.2053,-3.1898,-3.1784,-3.1597,-3.1524,-3.1467,-3.1351,-3.1292,-3.1234,-3.1132,-3.1014,-3.0895,-3.0836,-3.0762,-3.0642,-3.0447,-3.0326,-3.0326,-2.9997,-2.9756,-2.9534,-2.913,-2.8933,-2.9472,-2.797,-2.684,-2.6519,-2.6185,-2.6005,-2.609,-2.6311,-2.6789,-2.7159,-2.682,-2.6633,-2.6485,-2.6329,-2.6259,-2.6012,-2.5043,-2.4668,-2.4445,-2.4708,-2.4879,-2.4826,-2.4917,-2.4918,-2.4886,-2.4989,-2.5131,-2.5425,-2.5661,-2.5867,-2.6125,-2.6379,-2.6592,-2.687,-2.7041,-2.7144,-2.7233,-2.7233,-2.7372,-2.747,-2.6928,-2.6434,-2.5967,-2.5455,-2.4917,-2.4556,-2.4467,-2.4457,-2.4554,-2.4636,-2.4742,-2.4846,-2.491,-2.5029,-3.3058,-3.3058,-3.2951,-3.2951,-3.3058,-3.3043,-3.3043,-3.3043,-3.3112,-3.3005,-3.2858,-3.2827,-3.2827,-3.2788,-3.2843,-3.2843,-3.2788,-3.2843,-3.2843,-3.2912,-3.2951,-3.2951,-3.2951,-3.2951,-3.2897,-3.2827,-3.2827,-3.2757,-3.2578,-3.2578,-3.2523,-3.2453,-3.2398,-3.2398,-3.2398,-3.2398,-3.2342,-3.2247,-3.2094,-3.194,-3.1784,-3.1597,-3.1467,-3.1467,-3.1409,-3.1351,-3.1292,-3.119,-3.1087,-3.1087,-3.1073,-3.0999,-3.094,-3.0702,-3.0507,-3.0387,-3.0251,-3.0101,-2.9803,-2.9728,-2.9604,-2.9465,-2.8714,-2.7939,-2.7457,-2.7162,-2.6967,-2.7151,-2.7365,-2.7694,-2.7839,-2.767,-2.729,-2.7124,-2.7053,-2.6945,-2.6803,-2.6526,-2.619,-2.5942,-2.5935,-2.5728,-2.5514,-2.5325,-2.5212,-2.5195,-2.5269,-2.5425,-2.5674,-2.5853,-2.6056,-2.6326,-2.6606,-2.687,-2.7078,-2.7181,-2.7248,-2.7386,-2.7423,-2.759,-2.7444,-2.6777,-2.6291,-2.6077,-2.5557,-2.4925,-2.4683,-2.456,-2.458,-2.4677,-2.4742,-2.4862,-2.4926,-2.5029,-2.5107,-3.3398,-3.3414,-3.3256,-3.3256,-3.3293,-3.3293,-3.3293,-3.3309,-3.3414,-3.3309,-3.315,-3.3096,-3.3005,-3.2966,-3.2912,-3.2912,-3.3005,-3.3005,-3.3058,-3.3112,-3.3096,-3.3096,-3.3096,-3.3096,-3.3112,-3.3096,-3.3096,-3.3005,-3.2788,-3.2773,-3.2648,-3.2523,-3.2523,-3.2453,-3.2382,-3.2398,-3.2342,-3.2231,-3.2094,-3.1996,-3.1898,-3.1655,-3.1524,-3.1482,-3.1482,-3.1424,-3.1424,-3.1366,-3.1249,-3.1249,-3.119,-3.119,-3.1073,-3.0955,-3.0836,-3.0702,-3.0582,-3.0358,-3.0119,-3.0115,-3.0025,-2.9929,-2.9348,-2.8831,-2.8403,-2.8076,-2.7989,-2.826,-2.8432,-2.8677,-2.9066,-2.8725,-2.8601,-2.8526,-2.8344,-2.8235,-2.8194,-2.7972,-2.7685,-2.725,-2.6511,-2.6126,-2.6018,-2.5778,-2.5608,-2.5531,-2.5563,-2.573,-2.5974,-2.6136,-2.6312,-2.6645,-2.6974,-2.7181,-2.7386,-2.7437,-2.7539,-2.7625,-2.7725,-2.7875,-2.7799,-2.7303,-2.687,-2.6603,-2.5936,-2.5113,-2.4746,-2.4605,-2.4701,-2.4822,-2.4926,-2.5005,-2.5068,-2.5146,-2.5262,-3.3761,-3.3694,-3.3607,-3.3555,-3.3555,-3.3555,-3.3555,-3.3555,-3.3658,-3.3555,-3.3398,-3.3361,-3.3256,-3.3112,-3.3112,-3.315,-3.3187,-3.3203,-3.3256,-3.3309,-3.3309,-3.3309,-3.3309,-3.3293,-3.3256,-3.3256,-3.3256,-3.3165,-3.3005,-3.2951,-3.2827,-3.2703,-3.2648,-3.2578,-3.2468,-3.2398,-3.2382,-3.2287,-3.2135,-3.2038,-3.1925,-3.1754,-3.1597,-3.1597,-3.1582,-3.1597,-3.1655,-3.1597,-3.1582,-3.1524,-3.1409,-3.1351,-3.1264,-3.1205,-3.119,-3.1132,-3.0895,-3.0702,-3.0568,-3.0505,-3.0398,-3.019,-2.9729,-2.9485,-2.9297,-2.9009,-2.881,-2.9299,-2.9428,-2.9617,-2.9903,-2.9922,-2.986,-2.9756,-2.9709,-2.9656,-2.9402,-2.9106,-2.8757,-2.8082,-2.7034,-2.6569,-2.6613,-2.6378,-2.6216,-2.6106,-2.6133,-2.6139,-2.6336,-2.651,-2.6736,-2.7078,-2.735,-2.7539,-2.769,-2.779,-2.7925,-2.8008,-2.8155,-2.8301,-2.8199,-2.7984,-2.7606,-2.7107,-2.6261,-2.5519,-2.5123,-2.4766,-2.4886,-2.5005,-2.5068,-2.5146,-2.5224,-2.5378,-2.553,-3.3915,-3.3848,-3.3745,-3.3642,-3.3694,-3.371,-3.3694,-3.3694,-3.3745,-3.371,-3.3642,-3.3658,-3.3607,-3.3555,-3.3555,-3.3607,-3.3555,-3.3503,-3.345,-3.345,-3.3398,-3.3346,-3.3293,-3.3293,-3.3346,-3.3346,-3.3346,-3.3203,-3.3165,-3.3096,-3.2989,-3.2881,-3.2718,-3.2594,-3.2594,-3.2523,-3.2327,-3.2247,-3.2191,-3.2135,-3.1981,-3.1925,-3.194,-3.1925,-3.1868,-3.1883,-3.1883,-3.1883,-3.1883,-3.1868,-3.1769,-3.1727,-3.1685,-3.1554,-3.1482,-3.138,-3.1205,-3.0955,-3.0718,-3.0717,-3.064,-3.043,-3.0197,-3.009,-2.99,-2.9886,-2.9832,-3.0093,-3.0122,-3.0228,-3.0389,-3.0312,-3.0266,-3.0251,-3.0251,-3.0205,-3.0151,-2.9461,-2.9189,-2.8771,-2.7711,-2.7471,-2.7371,-2.7103,-2.6821,-2.6734,-2.6671,-2.6669,-2.6759,-2.6982,-2.7203,-2.7539,-2.769,-2.789,-2.8024,-2.8122,-2.8268,-2.8446,-2.859,-2.8732,-2.8685,-2.8555,-2.8084,-2.7508,-2.6768,-2.6117,-2.5686,-2.5416,-2.521,-2.5201,-2.5339,-2.5339,-2.5378,-2.5567,-2.5844,-3.4399,-3.4234,-3.4101,-3.405,-3.405,-3.405,-3.405,-3.405,-3.405,-3.4,-3.3899,-3.3848,-3.3745,-3.3745,-3.3694,-3.3694,-3.371,-3.3642,-3.3591,-3.3607,-3.3555,-3.3503,-3.3555,-3.3503,-3.3555,-3.3503,-3.3503,-3.3555,-3.3398,-3.324,-3.315,-3.2989,-3.2935,-3.2812,-3.2773,-3.2718,-3.2664,-3.2554,-3.2428,-3.2191,-3.2053,-3.2012,-3.2012,-3.2012,-3.2012,-3.1996,-3.1996,-3.2012,-3.2012,-3.1996,-3.1841,-3.1784,-3.1727,-3.1597,-3.1467,-3.1482,-3.1439,-3.1234,-3.1029,-3.0955,-3.0776,-3.0642,-3.0507,-3.0418,-3.0401,-3.0401,-3.0401,-3.0447,-3.0447,-3.0582,-3.0642,-3.0628,-3.0687,-3.0687,-3.0687,-3.0687,-3.0469,-2.9652,-2.9139,-2.8785,-2.8444,-2.805,-2.7657,-2.7368,-2.7161,-2.7128,-2.7141,-2.7218,-2.7357,-2.7625,-2.784,-2.8054,-2.8152,-2.8235,-2.8365,-2.8494,-2.8637,-2.8826,-2.9059,-2.9182,-2.9241,-2.901,-2.8683,-2.853,-2.8176,-2.7436,-2.6542,-2.5891,-2.5599,-2.5556,-2.56,-2.5642,-2.5701,-2.5957,-2.6225,-3.4977,-3.4771,-3.4529,-3.4448,-3.4431,-3.4448,-3.4448,-3.4399,-3.4399,-3.4349,-3.4201,-3.4101,-3.4,-3.3899,-3.3899,-3.3899,-3.3848,-3.3813,-3.3797,-3.3797,-3.3745,-3.3694,-3.371,-3.371,-3.3694,-3.3694,-3.3642,-3.3642,-3.3591,-3.3503,-3.3346,-3.3203,-3.3096,-3.3043,-3.2951,-3.2897,-3.2843,-3.2843,-3.2664,-3.2428,-3.2221,-3.215,-3.215,-3.2094,-3.2094,-3.2094,-3.2094,-3.2094,-3.2094,-3.2094,-3.1996,-3.194,-3.1883,-3.1769,-3.1712,-3.1655,-3.1612,-3.1554,-3.1351,-3.119,-3.1028,-3.0895,-3.0762,-3.0702,-3.0642,-3.0687,-3.0687,-3.0642,-3.0702,-3.0762,-3.0836,-3.0881,-3.0881,-3.0999,-3.1073,-3.1132,-3.094,-3.0095,-2.944,-2.9139,-2.8725,-2.8008,-2.7675,-2.749,-2.7401,-2.7467,-2.7604,-2.7705,-2.7905,-2.8152,-2.8332,-2.8477,-2.8525,-2.8605,-2.8795,-2.8873,-2.9013,-2.9198,-2.947,-2.9649,-2.9661,-2.968,-2.9522,-2.9419,-2.9288,-2.8613,-2.7635,-2.6754,-2.5966,-2.5926,-2.5917,-2.5974,-2.6082,-2.6365,-2.6538,-3.5532,-3.5487,-3.5024,-3.4883,-3.4835,-3.4851,-3.4787,-3.4675,-3.4691,-3.4594,-3.4497,-3.4448,-3.4448,-3.4399,-3.43,-3.4234,-3.4234,-3.3984,-3.4,-3.3949,-3.3832,-3.3848,-3.3899,-3.3848,-3.3745,-3.3761,-3.3745,-3.3745,-3.3694,-3.3694,-3.3555,-3.345,-3.3309,-3.315,-3.3096,-3.3112,-3.3005,-3.2951,-3.2881,-3.2711,-3.2547,-3.2477,-3.2437,-3.2296,-3.2327,-3.2398,-3.2413,-3.2342,-3.2287,-3.2287,-3.2191,-3.2094,-3.2038,-3.194,-3.1883,-3.1868,-3.1841,-3.1727,-3.1612,-3.1424,-3.1249,-3.1132,-3.1028,-3.0955,-3.0836,-3.0955,-3.0955,-3.0836,-3.0895,-3.1014,-3.1087,-3.1087,-3.1073,-3.119,-3.1249,-3.1249,-3.1053,-3.0447,-2.9843,-2.9561,-2.9048,-2.8379,-2.7989,-2.781,-2.776,-2.7855,-2.794,-2.8039,-2.8284,-2.8525,-2.87,-2.8842,-2.8873,-2.9013,-2.9198,-2.9335,-2.947,-2.9605,-2.9842,-2.9973,-3.0087,-3.0126,-3.0137,-2.9996,-2.9762,-2.9249,-2.8791,-2.8077,-2.7317,-2.6538,-2.6225,-2.6295,-2.6435,-2.664,-2.6792,-3.5844,-3.5844,-3.5667,-3.5487,-3.5333,-3.5241,-3.5195,-3.5102,-3.4977,-3.4851,-3.4756,-3.4739,-3.4707,-3.4643,-3.4594,-3.4497,-3.4448,-3.4333,-3.43,-3.43,-3.4234,-3.425,-3.4184,-3.4151,-3.405,-3.405,-3.4,-3.3965,-3.3949,-3.3848,-3.3797,-3.3694,-3.3555,-3.3503,-3.3466,-3.3346,-3.3293,-3.315,-3.3049,-3.2886,-3.2298,-3.2555,-3.2517,-3.1921,-3.24,-3.2422,-3.2398,-3.2398,-3.2398,-3.2398,-3.2247,-3.2262,-3.2206,-3.2094,-3.2023,-3.2007,-3.1925,-3.1898,-3.1784,-3.1539,-3.1249,-3.1132,-3.1087,-3.1087,-3.1014,-3.1087,-3.1058,-3.1058,-3.1087,-3.1146,-3.122,-3.1264,-3.1249,-3.1292,-3.1351,-3.1409,-3.1138,-3.0603,-3.015,-2.9773,-2.931,-2.8747,-2.8511,-2.8299,-2.825,-2.8201,-2.8284,-2.8429,-2.8621,-2.8858,-2.8982,-2.9152,-2.9243,-2.938,-2.956,-2.9694,-2.9842,-3.0017,-3.0146,-3.0231,-3.0359,-3.0468,-3.046,-3.0373,-3.0342,-3.0051,-2.9758,-2.9353,-2.8558,-2.7391,-2.6806,-2.6624,-2.6775,-2.6925,-2.704,-3.6105,-3.6088,-3.6105,-3.5932,-3.5711,-3.5622,-3.556,-3.547,-3.535,-3.5228,-3.5118,-3.5135,-3.5024,-3.493,-3.4883,-3.4804,-3.4739,-3.4626,-3.4643,-3.4643,-3.4594,-3.4594,-3.4546,-3.4448,-3.43,-3.4349,-3.425,-3.4151,-3.4151,-3.405,-3.3949,-3.3899,-3.3848,-3.3813,-3.371,-3.3694,-3.3591,-3.345,-3.3298,-3.2877,-3.2181,-3.2279,-3.2211,-3.1601,-3.1989,-3.216,-3.223,-3.2322,-3.2453,-3.2398,-3.2342,-3.2247,-3.2206,-3.2206,-3.212,-3.2104,-3.2064,-3.1996,-3.1883,-3.1655,-3.1424,-3.138,-3.1322,-3.1307,-3.1249,-3.119,-3.122,-3.1176,-3.1205,-3.1249,-3.1366,-3.1366,-3.1366,-3.1424,-3.1409,-3.1452,-3.1315,-3.096,-3.0437,-3.0,-2.9526,-2.9005,-2.8737,-2.8493,-2.8493,-2.8429,-2.8558,-2.87,-2.8842,-2.9029,-2.9198,-2.938,-2.956,-2.9738,-2.9913,-3.0,-3.0103,-3.0189,-3.0316,-3.0443,-3.0526,-3.0692,-3.0814,-3.0841,-3.0842,-3.0852,-3.059,-3.0099,-2.9113,-2.7992,-2.7453,-2.6858,-2.694,-2.7055,-2.7169,-3.6301,-3.6284,-3.6301,-3.6174,-3.6036,-3.5975,-3.5888,-3.5817,-3.5773,-3.5667,-3.5577,-3.5577,-3.547,-3.5379,-3.5304,-3.5182,-3.5088,-3.493,-3.493,-3.4994,-3.4851,-3.4787,-3.4756,-3.4659,-3.4513,-3.4448,-3.4349,-3.43,-3.43,-3.4151,-3.4101,-3.4101,-3.405,-3.3949,-3.3745,-3.371,-3.371,-3.3658,-3.3555,-3.3022,-3.2408,-3.219,-3.1773,-3.1337,-3.1488,-3.1731,-3.1734,-3.2129,-3.2261,-3.2237,-3.2336,-3.2327,-3.2358,-3.2358,-3.2342,-3.2342,-3.2231,-3.2191,-3.2135,-3.194,-3.1784,-3.1727,-3.1655,-3.1655,-3.1509,-3.1524,-3.1497,-3.1453,-3.1334,-3.1362,-3.1465,-3.142,-3.1315,-3.1447,-3.1402,-3.1477,-3.1396,-3.1222,-3.0721,-3.0175,-2.9674,-2.9231,-2.8914,-2.8684,-2.8684,-2.8716,-2.8779,-2.892,-2.9075,-2.9289,-2.9454,-2.9605,-2.9826,-2.9957,-3.013,-3.0274,-3.0359,-3.0401,-3.0443,-3.0568,-3.0692,-3.0814,-3.0992,-3.1168,-3.1218,-3.1176,-3.1014,-3.0817,-2.9636,-2.8475,-2.7554,-2.707,-2.7152,-2.7201,-2.725,-3.6461,-3.6402,-3.636,-3.6301,-3.6335,-3.6208,-3.6079,-3.6036,-3.5975,-3.5888,-3.5905,-3.5844,-3.58,-3.5667,-3.5639,-3.5549,-3.5441,-3.5304,-3.5304,-3.5258,-3.5135,-3.5088,-3.4994,-3.4851,-3.4707,-3.4594,-3.4497,-3.4448,-3.4448,-3.43,-3.425,-3.425,-3.4151,-3.405,-3.4,-3.3965,-3.3965,-3.3848,-3.3697,-3.3323,-3.2533,-3.2304,-3.1852,-3.097,-3.1158,-3.1248,-3.1125,-3.1663,-3.1866,-3.1921,-3.2106,-3.236,-3.2391,-3.2407,-3.2398,-3.2398,-3.2342,-3.2287,-3.2247,-3.2109,-3.2038,-3.1981,-3.194,-3.1883,-3.1868,-3.1811,-3.1784,-3.1592,-3.1362,-3.1283,-3.1152,-3.0703,-3.0628,-3.1066,-3.1218,-3.152,-3.15,-3.1277,-3.0884,-3.0333,-2.9761,-2.9299,-2.8965,-2.8889,-2.8905,-2.8951,-2.9029,-2.9106,-2.9259,-2.9454,-2.9661,-2.981,-3.0,-3.0172,-3.0316,-3.0401,-3.0485,-3.0526,-3.0609,-3.0692,-3.0855,-3.0992,-3.1134,-3.1252,-3.1385,-3.1428,-3.1179,-3.0825,-2.9953,-2.8922,-2.7908,-2.7238,-2.7233,-2.725,-2.7299,-3.6544,-3.6544,-3.6461,-3.6502,-3.6544,-3.6395,-3.6335,-3.6353,-3.6293,-3.6251,-3.6251,-3.6251,-3.6165,-3.6062,-3.5975,-3.5905,-3.58,-3.565,-3.5605,-3.5605,-3.5458,-3.5367,-3.5211,-3.5088,-3.4947,-3.4787,-3.4643,-3.4529,-3.4546,-3.4448,-3.4349,-3.425,-3.4201,-3.4101,-3.4101,-3.405,-3.4066,-3.3949,-3.3834,-3.346,-3.2812,-3.2376,-3.1861,-3.1142,-3.0885,-3.0945,-3.0795,-3.0974,-3.1389,-3.1471,-3.1774,-3.2137,-3.2238,-3.2423,-3.2461,-3.2523,-3.2398,-3.2342,-3.2302,-3.2302,-3.2191,-3.2135,-3.2079,-3.2094,-3.2038,-3.1981,-3.1758,-3.1546,-3.1293,-3.0913,-3.0632,-3.0107,-3.022,-3.0693,-3.0791,-3.108,-3.108,-3.0838,-3.0661,-3.0099,-2.9821,-2.9384,-2.9045,-2.9077,-2.9121,-2.9167,-2.9275,-2.9366,-2.9396,-2.9649,-2.9853,-3.0044,-3.013,-3.03,-3.0443,-3.0526,-3.0609,-3.0692,-3.0773,-3.0855,-3.0992,-3.1112,-3.1252,-3.1351,-3.1483,-3.1473,-3.1256,-3.0762,-2.9868,-2.899,-2.8111,-2.7594,-2.7368,-2.733,-2.733,-3.6597,-3.6632,-3.6615,-3.6563,-3.658,-3.6342,-3.6411,-3.658,-3.6615,-3.6557,-3.6615,-3.6574,-3.6561,-3.6461,-3.636,-3.6276,-3.6165,-3.6062,-3.5975,-3.5932,-3.5756,-3.5622,-3.5487,-3.5258,-3.5135,-3.4994,-3.4835,-3.4739,-3.4707,-3.4546,-3.4448,-3.43,-3.4201,-3.4151,-3.4151,-3.4101,-3.4101,-3.405,-3.3951,-3.3542,-3.3022,-3.2586,-3.1833,-3.1098,-3.0747,-3.0525,-3.0396,-3.0535,-3.0748,-3.1009,-3.1363,-3.1665,-3.1992,-3.246,-3.2571,-3.2586,-3.2415,-3.2453,-3.2398,-3.2398,-3.2382,-3.2342,-3.2247,-3.2247,-3.2191,-3.2104,-3.1835,-3.1494,-3.1121,-3.0624,-3.0144,-3.0066,-3.0001,-3.0134,-3.0158,-3.0243,-3.0319,-3.021,-3.0074,-2.9805,-2.9726,-2.9452,-2.9264,-2.9229,-2.9305,-2.9396,-2.9502,-2.9576,-2.9665,-2.9782,-3.0,-3.0189,-3.0316,-3.0384,-3.0526,-3.0609,-3.0692,-3.0773,-3.0895,-3.0975,-3.1112,-3.123,-3.1368,-3.1466,-3.1542,-3.1551,-3.1433,-3.0747,-2.973,-2.8903,-2.8213,-2.7676,-2.7362,-2.7362,-2.7376,-3.5189,-3.5189,-3.5105,-3.5087,-3.5147,-3.5203,-3.5182,-3.5136,-3.5605,-3.5849,-3.5884,-3.6458,-3.6528,-3.6643,-3.6602,-3.6527,-3.6444,-3.6335,-3.6233,-3.6148,-3.5958,-3.58,-3.5622,-3.5487,-3.5321,-3.5135,-3.4994,-3.4899,-3.4835,-3.4691,-3.4546,-3.4464,-3.43,-3.425,-3.4201,-3.4151,-3.4101,-3.4101,-3.405,-3.3738,-3.3363,-3.2942,-3.201,-3.1353,-3.067,-3.0354,-2.9927,-3.0036,-3.0254,-3.0445,-3.0911,-3.124,-3.1357,-3.1546,-3.1683,-3.2217,-3.2438,-3.2703,-3.2578,-3.2508,-3.2492,-3.2422,-3.2398,-3.2342,-3.2342,-3.2149,-3.1903,-3.142,-3.0874,-3.0366,-2.9878,-2.9651,-2.967,-2.9728,-2.9755,-2.9847,-2.9909,-2.9867,-2.9738,-2.9746,-2.961,-2.9486,-2.9369,-2.9366,-2.9457,-2.9592,-2.9726,-2.9798,-2.9886,-3.0017,-3.0087,-3.0274,-3.0401,-3.051,-3.0609,-3.0692,-3.0773,-3.0895,-3.1015,-3.1134,-3.1235,-3.1351,-3.1466,-3.1579,-3.1671,-3.1709,-3.1728,-3.08,-2.9609,-2.9108,-2.8434,-2.7861,-2.7376,-2.7407,-2.7438,-3.4727,-3.4691,-3.4596,-3.4419,-3.4158,-3.4177,-3.4018,-3.3855,-3.4728,-3.5182,-3.5234,-3.5654,-3.5898,-3.5898,-3.6103,-3.6255,-3.6255,-3.6422,-3.6461,-3.6318,-3.6088,-3.6019,-3.5844,-3.5571,-3.5458,-3.5321,-3.5182,-3.5105,-3.4947,-3.4804,-3.4659,-3.4611,-3.4448,-3.4399,-3.4366,-3.425,-3.4217,-3.4151,-3.4101,-3.3949,-3.3655,-3.3297,-3.2567,-3.1768,-3.102,-3.0355,-2.9705,-2.9911,-2.9816,-2.9958,-3.0481,-3.0862,-3.1054,-3.1148,-3.132,-3.1785,-3.1872,-3.2154,-3.222,-3.2306,-3.2423,-3.254,-3.2516,-3.2392,-3.2207,-3.1967,-3.1597,-3.1186,-3.0623,-3.0102,-2.9574,-2.917,-2.9247,-2.9372,-2.9465,-2.9559,-2.9607,-2.9592,-2.9642,-2.9612,-2.9563,-2.948,-2.9473,-2.9563,-2.9653,-2.977,-2.9902,-2.9989,-3.0119,-3.0205,-3.0274,-3.0401,-3.051,-3.0634,-3.0692,-3.0814,-3.0895,-3.1015,-3.1117,-3.1235,-3.1372,-3.1504,-3.1579,-3.1671,-3.1763,-3.18,-3.1856,-3.0594,-2.9505,-2.9089,-2.8618,-2.7869,-2.7483,-2.7513,-2.7526,-3.4695,-3.4677,-3.4641,-3.4075,-3.3476,-3.3424,-3.3073,-3.2581,-3.3898,-3.453,-3.4582,-3.4705,-3.4934,-3.5262,-3.5504,-3.5727,-3.5828,-3.608,-3.6035,-3.6295,-3.5842,-3.5641,-3.548,-3.5518,-3.5121,-3.5206,-3.5266,-3.5011,-3.5008,-3.4899,-3.4804,-3.4707,-3.4594,-3.4497,-3.4497,-3.4399,-3.43,-3.43,-3.4201,-3.4101,-3.3899,-3.3633,-3.3323,-3.2538,-3.1819,-3.1182,-3.0449,-2.997,-2.9566,-2.982,-3.009,-3.0615,-3.0808,-3.1117,-3.1326,-3.1469,-3.1464,-3.1662,-3.1892,-3.1966,-3.216,-3.242,-3.2748,-3.2226,-3.1867,-3.1818,-3.1539,-3.0829,-3.0245,-2.9844,-2.9343,-2.914,-2.9171,-2.9203,-2.925,-2.9297,-2.9265,-2.9375,-2.9578,-2.9575,-2.9619,-2.9547,-2.9681,-2.9786,-2.9814,-2.9946,-3.0076,-3.0205,-3.029,-3.0417,-3.0485,-3.0526,-3.0651,-3.0773,-3.0855,-3.0952,-3.1072,-3.1173,-3.1274,-3.1351,-3.1466,-3.1596,-3.1671,-3.1746,-3.1819,-3.1856,-3.1686,-3.0526,-2.971,-2.9447,-2.8818,-2.7875,-2.7557,-2.7587,-2.76,-3.329,-3.329,-3.3172,-3.2963,-3.2839,-3.2772,-3.2667,-3.2508,-3.2774,-3.3336,-3.381,-3.4389,-3.4934,-3.5267,-3.5074,-3.5212,-3.556,-3.536,-3.5077,-3.5048,-3.4948,-3.4938,-3.4494,-3.4499,-3.4406,-3.452,-3.4606,-3.4784,-3.4935,-3.4975,-3.4947,-3.4851,-3.4739,-3.4643,-3.4643,-3.4497,-3.4448,-3.4464,-3.4415,-3.425,-3.4,-3.3802,-3.346,-3.2912,-3.2351,-3.1759,-3.1115,-3.0629,-3.0235,-3.0129,-3.0064,-3.0217,-3.0337,-3.0888,-3.1105,-3.1205,-3.1308,-3.1438,-3.158,-3.1625,-3.1715,-3.1631,-3.1675,-3.1467,-3.1416,-3.1638,-3.1368,-3.0579,-2.9923,-2.9501,-2.9234,-2.9139,-2.9075,-2.9059,-2.9044,-2.9012,-2.9042,-2.9273,-2.9489,-2.9563,-2.9637,-2.9726,-2.9902,-2.9946,-3.0033,-3.0119,-3.0248,-3.0375,-3.0443,-3.0568,-3.0651,-3.0692,-3.079,-3.0912,-3.0992,-3.1112,-3.123,-3.1329,-3.1428,-3.1504,-3.1596,-3.1671,-3.1783,-3.1839,-3.1875,-3.1948,-3.1619,-3.0646,-2.9967,-2.9719,-2.8893,-2.7874,-2.7659,-2.7689,-2.7689,-3.2838,-3.2838,-3.2722,-3.2639,-3.2606,-3.2539,-3.2557,-3.261,-3.286,-3.3036,-3.3178,-3.39,-3.4515,-3.499,-3.4726,-3.4549,-3.4881,-3.4701,-3.4699,-3.4536,-3.4231,-3.4224,-3.3962,-3.3642,-3.3811,-3.3938,-3.4257,-3.451,-3.476,-3.5035,-3.5041,-3.4994,-3.4851,-3.4804,-3.4804,-3.4643,-3.4643,-3.4707,-3.4659,-3.4497,-3.43,-3.4119,-3.3955,-3.3484,-3.2999,-3.2384,-3.1751,-3.118,-3.0652,-3.0315,-3.0211,-3.0238,-3.0363,-3.0598,-3.0735,-3.0745,-3.0855,-3.1108,-3.1273,-3.1308,-3.1262,-3.123,-3.1406,-3.1566,-3.1071,-3.1212,-3.095,-3.0243,-2.9675,-2.9202,-2.9233,-2.9122,-2.9199,-2.9183,-2.9275,-2.9305,-2.9364,-2.9515,-2.9726,-2.9814,-2.9886,-2.9973,-3.0076,-3.0076,-3.0162,-3.0333,-3.0459,-3.0584,-3.0651,-3.0733,-3.0814,-3.0895,-3.0992,-3.1055,-3.1157,-3.1252,-3.1368,-3.1445,-3.1542,-3.1634,-3.1688,-3.1783,-3.1875,-3.1912,-3.1984,-3.202,-3.1568,-3.0696,-3.0206,-2.9939,-2.8934,-2.7771,-2.7766,-2.7777,-2.7766,-3.2916,-3.2884,-3.282,-3.2773,-3.2621,-3.2639,-3.2639,-3.2712,-3.3312,-3.333,-3.3013,-3.3528,-3.367,-3.3953,-3.4111,-3.3864,-3.3776,-3.3898,-3.4088,-3.4086,-3.3975,-3.3595,-3.3382,-3.3357,-3.3298,-3.349,-3.3828,-3.4139,-3.4404,-3.4688,-3.4931,-3.5021,-3.5041,-3.493,-3.4899,-3.4899,-3.4835,-3.493,-3.493,-3.493,-3.4787,-3.4578,-3.4399,-3.4121,-3.3762,-3.3043,-3.2354,-3.1745,-3.1145,-3.0685,-3.0556,-3.0803,-3.0945,-3.1127,-3.1018,-3.1063,-3.0828,-3.1018,-3.1087,-3.1014,-3.1229,-3.1443,-3.1639,-3.1461,-3.0898,-3.0677,-3.043,-3.0083,-2.9497,-2.9247,-2.9231,-2.9277,-2.9307,-2.9382,-2.9473,-2.9579,-2.9681,-2.9798,-2.9886,-3.0017,-3.0103,-3.0189,-3.0231,-3.0231,-3.0316,-3.0485,-3.0609,-3.0749,-3.0814,-3.0895,-3.0935,-3.1055,-3.119,-3.1252,-3.1312,-3.1389,-3.1483,-3.1559,-3.1617,-3.1709,-3.18,-3.1839,-3.1894,-3.2001,-3.2073,-3.2179,-3.1724,-3.0951,-3.0545,-3.012,-2.8921,-2.7888,-2.7871,-2.7871,-2.7888,-3.2916,-3.2916,-3.2884,-3.2852,-3.2852,-3.2805,-3.2755,-3.2758,-3.2816,-3.3082,-3.3488,-3.3649,-3.3757,-3.3653,-3.302,-3.288,-3.3336,-3.3283,-3.2915,-3.2774,-3.2983,-3.2645,-3.2444,-3.2565,-3.2444,-3.2781,-3.3271,-3.376,-3.3903,-3.4236,-3.4717,-3.5128,-3.5178,-3.5148,-3.5198,-3.5148,-3.5065,-3.5107,-3.5069,-3.5019,-3.5136,-3.4985,-3.4818,-3.4752,-3.475,-3.3856,-3.3122,-3.2702,-3.1788,-3.1165,-3.1106,-3.162,-3.1868,-3.2,-3.1984,-3.1731,-3.1506,-3.1314,-3.1342,-3.1002,-3.1095,-3.074,-3.0854,-3.0773,-3.0435,-3.0375,-3.0182,-3.0138,-2.9697,-2.9534,-2.9473,-2.9489,-2.9534,-2.9547,-2.9637,-2.9786,-2.9918,-3.0006,-3.0092,-3.0119,-3.0189,-3.0316,-3.0443,-3.0485,-3.0526,-3.0651,-3.0773,-3.0912,-3.0935,-3.1015,-3.1078,-3.1213,-3.1346,-3.1423,-3.1462,-3.1504,-3.1579,-3.1617,-3.1691,-3.1783,-3.1839,-3.1877,-3.1949,-3.2055,-3.2232,-3.2336,-3.1772,-3.1155,-3.0603,-3.0035,-2.8877,-2.8039,-2.7993,-2.7946,-2.7946]},{"header":{"parameterUnit":"m.s-1","parameterCategory":1,"la1":31.0,"la2":29.5877,"lo1":-88.7671,"lo2":-86.6584,"dy":0.0162,"dx":0.0185,"nx":115,"ny":88,"refTime":"2023-09-07T00:00:00:Z","depth":0,"parameterNumber":3,"parameterNumberName":"V-component_of_WINDS"},"data":[0.0,0.0,0.0,0.0,0.0,0.0,0.0,0.0,0.0,0.0,0.0,0.0,0.0,0.0,0.0,0.0,0.0,0.0,0.0,0.0,0.0,0.0,0.0,0.0,0.0,0.0,0.0,0.0,0.0,0.0,0.0,0.0,0.0,0.0,0.0,0.0,0.0,0.0,0.0,0.0,0.0,0.0,0.0,0.0,0.0,0.0,0.0,0.0,0.0,0.0,0.0,0.0,0.0,0.0,0.0,0.0,0.0,0.0,0.0,0.0,0.0,0.0,0.0,0.0,0.0,0.0,0.0,0.0,0.0,0.0,0.0,0.0,0.0,0.0,0.0,0.0,0.0,0.0,0.0,0.0,0.0,0.0,0.0,0.0,0.0,0.0,0.0,0.0,0.0,0.0,0.0,0.0,0.0,0.0,0.0,0.0,0.0,0.0,0.0,0.0,0.0,0.0,0.0,0.0,0.0,0.0,0.0,0.0,0.0,0.0,0.0,0.0,0.0,0.0,0.0,0.0,0.0,0.0,0.0,0.0,0.0,0.0,0.0,0.0,0.0,0.0,0.0,0.0,0.0,0.0,0.0,0.0,0.0,0.0,0.0,0.0,0.0,0.0,0.0,0.0,0.0,0.0,0.0,0.0,0.0,0.0,0.0,0.0,0.0,0.0,0.0,0.0,0.0,0.0,0.0,0.0,0.0,0.0,0.0,0.0,0.0,0.0,0.0,0.0,0.0,0.0,0.0,0.0,0.0,0.0,0.0,0.0,0.0,0.0,0.0,0.0,0.0,0.0,0.0,0.0,0.0,0.0,0.0,0.0,0.0,0.0,0.0,0.0,0.0,0.0,0.0,0.0,0.0,0.0,0.0,0.0,0.0,0.0,0.0,0.0,0.0,0.0,0.0,0.0,0.0,0.0,0.0,0.0,0.0,0.0,0.0,0.0,0.0,0.0,0.0,0.0,0.0,0.0,0.0,0.0,0.0,0.0,0.0,0.0,0.0,0.0,0.0,0.0,0.0,0.0,0.0,0.0,0.0,0.0,0.0,0.0,0.0,0.0,0.0,0.0,0.0,0.0,0.0,0.0,0.0,0.0,0.0,0.0,0.0,0.0,0.0,0.0,0.0,0.0,0.0,0.0,0.0,0.0,0.0,0.0,0.0,0.0,0.0,0.0,0.0,0.0,0.0,0.0,0.0,0.0,0.0,0.0,0.0,0.0,0.0,0.0,0.0,0.0,0.0,0.0,0.0,0.0,0.0,0.0,0.0,0.0,0.0,0.0,0.0,0.0,0.0,0.0,0.0,0.0,0.0,0.0,0.0,0.0,0.0,0.0,0.0,0.0,0.0,0.0,0.0,0.0,0.0,0.0,0.0,0.0,0.0,0.0,0.0,0.0,0.0,0.0,0.0,0.0,0.0,0.0,0.0,0.0,0.0,0.0,0.0,0.0,0.0,0.0,0.0,0.0,0.0,0.0,0.0,0.0,0.0,0.0,0.0,0.0,0.0,0.0,0.0,0.0,0.0,0.0,0.0,0.0,0.0,0.0,0.0,0.0,0.0,0.0,0.0,0.0,0.0,0.0,0.0,0.0,0.0,0.0,0.0,0.0,0.0,0.0,0.0,0.0,0.0,0.0,0.0,0.0,0.0,0.0,0.0,0.0,0.0,0.0,0.0,0.0,0.0,0.0,0.0,0.0,0.0,0.0,0.0,0.0,0.0,0.0,0.0,0.0,0.0,0.0,0.0,0.0,0.0,0.0,0.0,0.0,0.0,0.0,0.0,0.0,0.0,0.0,0.0,0.0,0.0,0.0,0.0,0.0,0.0,0.0,0.0,0.0,0.0,0.0,0.0,0.0,0.0,0.0,0.0,0.0,0.0,0.0,0.0,0.0,0.0,0.0,0.0,0.0,0.0,0.0,0.0,0.0,0.0,0.0,0.0,0.0,0.0,0.0,0.0,0.0,0.0,0.0,0.0,0.0,0.0,0.0,0.0,0.0,0.0,0.0,0.0,0.0,0.0,0.0,0.0,0.0,0.0,0.0,0.0,0.0,0.0,0.0,0.0,0.0,0.0,0.0,0.0,0.0,0.0,0.0,0.0,0.0,0.0,0.0,0.0,0.0,0.0,0.0,0.0,0.0,0.0,0.0,0.0,0.0,0.0,0.0,0.0,0.0,0.0,0.0,0.0,0.0,0.0,0.0,0.0,0.0,0.0,0.0,0.0,0.0,0.0,0.0,0.0,0.0,0.0,0.0,0.0,0.0,0.0,0.0,0.0,0.0,0.0,0.0,0.0,0.0,0.0,0.0,0.0,0.0,0.0,0.0,0.0,0.0,0.0,0.0,0.0,0.0,0.0,0.0,0.0,0.0,0.0,0.0,0.0,0.0,0.0,0.0,0.0,0.0,0.0,0.0,0.0,0.0,0.0,0.0,0.0,0.0,0.0,0.0,0.0,0.0,0.0,0.0,0.0,0.0,0.0,0.0,0.0,0.0,0.0,0.0,0.0,0.0,0.0,0.0,0.0,0.0,0.0,0.0,0.0,0.0,0.0,0.0,0.0,0.0,0.0,0.0,0.0,0.0,0.0,0.0,0.0,0.0,0.0,0.0,0.0,0.0,0.0,0.0,0.0,0.0,0.0,0.0,0.0,0.0,0.0,0.0,0.0,0.0,0.0,0.0,0.0,0.0,0.0,0.0,0.0,0.0,0.0,0.0,0.0,0.0,0.0,0.0,0.0,0.0,0.0,0.0,0.0,0.0,0.0,0.0,0.0,0.0,0.0,0.0,0.0,0.0,0.0,0.0,0.0,0.0,0.0,0.0,0.0,0.0,0.0,0.0,0.0,0.0,0.0,0.0,0.0,0.0,0.0,0.0,0.0,0.0,0.0,0.0,0.0,0.0,0.0,0.0,0.0,0.0,0.0,0.0,0.0,0.0,0.0,0.0,0.0,0.0,0.0,0.0,0.0,0.0,0.0,0.0,0.0,0.0,0.0,0.0,0.0,0.0,0.0,0.0,0.0,0.0,0.0,0.0,0.0,0.0,0.0,0.0,0.0,0.0,0.0,0.0,0.0,0.0,0.0,0.0,0.0,0.0,0.0,0.0,0.0,0.0,0.0,0.0,0.0,0.0,0.0,0.0,0.0,0.0,0.0,0.0,0.0,0.0,0.0,0.0,0.0,0.0,0.0,0.0,0.0,0.0,0.0,0.0,0.0,0.0,0.0,0.0,0.0,0.0,0.0,0.0,0.0,0.0,0.0,0.0,0.0,0.0,0.0,0.0,0.0,0.0,0.0,0.0,0.0,0.0,0.0,0.0,0.0,0.0,0.0,0.0,0.0,0.0,0.0,0.0,0.0,0.0,0.0,0.0,0.0,0.0,0.0,0.0,0.0,0.0,0.0,0.0,0.0,0.0,0.0,0.0,0.0,0.0,0.0,0.0,0.0,0.0,0.0,0.0,0.0,0.0,0.0,0.0,0.0,0.0,0.0,0.0,0.0,0.0,0.0,0.0,0.0,0.0,0.0,0.0,0.0,0.0,0.0,0.0,0.0,0.0,0.0,0.0,0.0,0.0,0.0,0.0,0.0,0.0,0.0,0.0,0.0,0.0,0.0,0.0,0.0,0.0,0.0,0.0,0.0,0.0,0.0,0.0,0.0,0.0,0.0,0.0,0.0,0.0,0.0,0.0,0.0,0.0,0.0,0.0,0.0,0.0,0.0,0.0,0.0,0.0,0.0,0.0,0.0,0.0,0.0,0.0,0.0,0.0,0.0,0.0,0.0,0.0,0.0,0.0,0.0,0.0,0.0,0.0,0.0,0.0,0.0,0.0,0.0,0.0,0.0,0.0,0.0,0.0,0.0,0.0,0.0,0.0,0.0,0.0,0.0,0.0,0.0,0.0,0.0,0.0,0.0,0.0,0.0,0.0,0.0,0.0,0.0,0.0,0.0,0.0,0.0,0.0,0.0,0.0,0.0,0.0,0.0,0.0,0.0,0.0,0.0,0.0,0.0,0.0,0.0,0.0,0.0,0.0,0.0,0.0,0.0,0.0,0.0,0.0,0.0,0.0,0.0,0.0,0.0,0.0,0.0,0.0,0.0,0.0,0.0,0.0,0.0,0.0,0.0,0.0,0.0,0.0,0.0,0.0,0.0,0.0,0.0,0.0,0.0,0.0,0.0,0.0,0.0,0.0,0.0,0.0,0.0,0.0,0.0,0.0,0.0,0.0,0.0,0.0,0.0,0.0,0.0,0.0,0.0,0.0,0.0,0.0,0.0,0.0,0.7305,0.0,0.0,0.0,0.0,0.0,0.0,0.0,0.0,0.0,0.0,0.0,0.0,0.0,0.0,0.0,0.0,0.0,0.0,0.0,0.0,0.0,0.0,0.0,0.0,0.0,0.0,0.0,0.0,0.0,0.0,0.0,0.0,0.0,0.0,0.0,0.0,0.0,0.0,0.0,0.0,0.0,0.0,0.0,0.0,0.0,0.0,0.0,0.0,0.0,0.0,0.0,0.0,0.0,0.0,0.0,0.0,0.0,0.0,0.0,0.0,0.0,0.0,0.0,0.0,0.0,0.0,0.0,0.0,0.0,0.0,0.0,0.0,0.0,0.0,0.0,0.0,0.0,0.0,0.0,0.0,0.0,0.0,0.0,0.0,0.0,0.0,0.0,0.0,0.0,0.0,0.0,0.0,0.0,0.0,0.0,0.0,0.0,0.0,0.0,0.0,0.0,0.0,0.0,0.0,0.0,0.0,0.0,0.0,0.0,0.0,0.6358,0.657,0.6708,0.6648,0.6449,0.0,0.0,0.0,0.0,0.0,0.0,0.0,0.0,0.0,0.0,0.0,0.0,0.0,0.0,0.0,0.0,0.0,0.0,0.0,0.0,0.0,0.0,0.0,0.0,0.0,0.0,0.0,0.0,0.0,0.0,0.0,0.0,0.0,0.0,0.0,0.0,0.0,0.0,0.0,0.0,0.0,0.0,0.0,0.0,0.0,0.0,0.0,0.0,0.0,0.0,0.0,0.0,0.0,0.0,0.0,0.0,0.0,0.0,0.0,0.0,0.0,0.0,0.0,0.0,0.0,0.0,0.0,0.0,0.0,0.0,0.0,0.0,0.0,0.0,0.0,0.0,0.0,0.0,0.0,0.0,0.0,0.0,0.0,0.0,0.0,0.0,0.0,0.0,0.0,0.0,0.0,0.0,0.0,0.0,0.0,0.0,0.0,0.0,0.0,0.0,0.0,0.0,0.0,0.0,0.0,0.0,0.0,0.0,0.0,0.0,0.0,0.0,0.582,0.5758,0.5387,0.0,0.0,0.0,0.0,0.0,0.0,0.0,0.0,0.0,0.0,0.0,0.0,0.0,0.0,0.0,0.0,0.0,0.0,0.0,0.0,0.0,0.0,0.0,0.0,0.0,0.0,0.0,0.0,0.0,0.0,0.0,0.0,0.0,0.0,0.0,0.0,0.0,0.0,0.0,0.0,0.0,0.0,0.0,0.0,0.0,0.0,0.0,0.0,0.0,0.0,0.0,0.0,0.0,0.0,0.0,0.0,0.0,0.0,0.0,0.0,0.0,0.0,0.0,0.0,0.0,0.0,0.0,0.0,0.0,0.0,0.0,0.0,0.0,0.0,0.0,0.0,0.0,0.0,0.0,0.0,0.0,0.0,0.0,0.0,0.0,0.0,0.0,0.0,0.0,0.0,0.0,0.0,0.0,0.0,0.0,0.0,0.0,0.0,0.0,0.0,0.0,0.0,0.0,0.0,0.0,0.0,0.0,0.0,0.0,0.0,0.4332,0.4448,0.4593,0.0,0.4183,0.0,0.0,0.0,0.0,0.0,0.0,0.0,0.0,0.0,0.0,0.0,0.0,0.0,0.0,0.0,0.0,0.0,0.0,0.0,0.0,0.0,0.0,0.0,0.0,0.0,0.0,0.0,0.0,0.0,0.0,0.0,0.0,0.0,0.0,0.0,0.0,0.0,0.0,0.0,0.0,0.0,0.0,0.0,0.0,0.0,0.0,0.0,0.0,0.0,0.0,0.0,0.0,0.0,0.0,0.0,0.0,0.0,0.0,0.0,0.0,0.0,0.0,0.0,0.0,0.0,0.0,0.0,0.0,0.0,0.0,0.0,0.0,0.0,0.0,0.0,0.0,0.0,0.0,0.0,0.0,0.0,0.0,0.0,0.0,0.0,0.0,0.0,0.0,0.0,0.0,0.0,0.0,0.0,0.0,0.0,0.0,0.0,0.0,0.0,0.0,0.0,0.0,0.0,0.0,0.0,0.0,0.0,0.0,0.0,0.0,0.3232,0.3542,0.3853,0.3923,0.0,0.0,0.0,0.0,0.0,0.0,0.0,0.0,0.0,0.0,0.0,0.0,0.0,0.0,0.0,0.0,0.0,0.0,0.0,0.0,0.0,0.0,0.0,0.0,0.0,0.0,0.0,0.0,0.0,0.0,0.0,0.0,0.0,0.0,0.0,0.0,0.0,0.0,0.0,0.0,0.0,0.0,0.0,0.0,0.0,0.0,0.0,0.0,0.0,0.0,0.0,0.0,0.0,0.0,0.0,0.0,0.0,0.0,0.0,0.0,0.0,0.0,0.0,0.0,0.0,0.0,0.0,0.0,0.0,0.0,0.0,0.0,0.0,0.0,0.0,0.0,0.0,0.0,0.0,0.0,0.0,0.0,0.0,0.0,0.0,0.0,0.0,0.0,0.0,0.0,0.0,0.0,0.0,0.0,0.0,0.0,0.0,0.0,0.0,0.0,0.0,0.0,0.0,0.0,0.0,0.0,0.0,0.0,0.0,0.0,0.1186,0.1718,0.2159,0.2501,0.2633,0.2557,0.0,0.0,0.0,0.0,0.0,0.0,0.0,0.0,0.0,0.0,0.0,0.0,0.0,0.0,0.0,0.0,0.0,0.0,0.0,0.0,0.0,0.0,0.0,0.0,0.0,0.0,0.0,0.0,0.0,0.0,0.0,0.0,0.0,0.0,0.0,0.0,0.0,0.0,0.0,0.0,0.0,0.0,0.0,0.0,0.0,0.0,0.0,0.0,0.0,0.0,0.0,0.0,0.0,0.0,0.0,0.0,0.0,0.0,0.0,0.0,0.0,0.0,0.0,0.0,0.0,0.0,0.0,0.0,0.0,0.0,0.0,0.0,0.0,0.0,0.0,0.0,0.0,0.0,0.0,0.0,0.0,0.0,0.0,0.0,0.0,0.0,0.0,0.0,0.0,0.0,0.0,0.0,0.0,0.0,0.0,0.0,0.0,0.0,0.0,0.0,0.0,0.0,0.0,0.0,0.0,0.0,0.0,0.0,-0.1188,-0.0857,-0.0396,0.0133,0.0166,0.0234,0.0,0.0,0.0,0.0,0.0,0.0,0.0,0.0,0.0,0.0,0.0,0.0,0.0,0.0,0.0,0.0,0.0,0.0,0.0,0.0,0.0,0.0,0.0,0.0,0.0,0.0,0.0,0.0,0.0,0.0,0.0,0.0,0.0,0.0,0.0,0.0,0.0,0.0,0.0,0.0,0.0,0.0,0.0,0.0,0.0,0.0,0.0,0.0,0.0,0.0,0.0,0.0,0.0,0.0,0.0,0.0,0.0,0.0,0.0,0.0,0.0,0.0,0.0,0.0,0.0,0.0,0.0,0.0,0.0,0.0,0.0,0.0,0.0,0.0,0.0,0.0,0.0,0.0,0.0,0.0,0.0,0.0,0.0,0.0,0.0,0.0,0.0,0.0,0.0,0.0,0.0,0.0,0.0,0.0,0.0,0.0,0.0,0.0,0.0,0.0,0.0,0.0,0.0,0.0,0.0,0.0,0.0,0.0,0.0,-0.3038,-0.2589,-0.2128,-0.1702,-0.1718,-0.1495,0.0,0.0,0.0,0.0,0.0,0.0,0.0,0.0,0.0,0.0,0.0,0.0,0.0,0.0,0.0,0.0,0.0,0.0,0.0,0.0,0.0,0.0,0.0,0.0,0.0,0.0,0.0,0.0,0.0,0.0,0.0,0.0,0.0,0.0,0.0,0.0,0.0,0.0,0.0,0.0,0.0,0.0,0.0,0.0,0.0,0.0,0.0,0.0,0.0,0.0,0.0,0.0,0.0,0.0,0.0,0.0,0.0,0.0,0.0,0.0,0.0,0.0,0.0,0.0,0.0,0.0,0.0,0.0,0.0,0.0,0.0,0.0,0.0,0.0,0.0,0.0,0.0,0.0,0.0,0.0,0.0,0.0,0.0,0.0,0.0,0.0,0.0,0.0,0.0,0.0,0.0,0.0,0.0,0.0,0.0,0.0,0.0,0.0,0.0,0.0,0.0,0.0,0.0,0.0,0.0,0.0,0.0,0.0,0.0,-0.5257,0.0,-0.4387,-0.4103,-0.374,-0.328,0.0,0.0,0.0,0.0,0.0,0.0,0.0,0.0,0.0,0.0,0.0,0.0,0.0,0.0,0.0,0.0,0.0,0.0,0.0,0.0,0.0,0.0,0.0,0.0,0.0,0.0,0.0,0.0,0.0,0.0,0.0,0.0,0.0,0.0,0.0,0.0,0.0,0.0,0.0,0.0,0.0,0.0,0.0,0.0,0.0,0.0,0.0,0.0,0.0,0.0,0.0,0.0,0.0,0.0,0.0,0.0,0.0,0.0,0.0,0.0,0.0,0.0,0.0,0.0,0.0,0.0,0.0,0.0,0.0,0.0,0.0,0.0,0.0,0.0,0.0,0.0,0.0,0.0,0.0,0.0,0.0,0.0,0.0,0.0,0.0,0.0,0.0,0.0,0.0,0.0,0.0,0.0,0.0,0.0,0.0,0.0,0.0,0.0,0.0,0.0,0.0,0.0,0.0,0.0,0.0,0.0,0.0,0.0,-0.7459,-0.7914,-0.7539,-0.7293,-0.7204,-0.6106,-0.528,0.0,0.0,0.0,0.0,0.0,0.0,0.0,0.0,0.0,0.0,0.0,0.0,0.0,0.0,0.0,0.0,0.0,0.0,0.0,0.0,0.0,0.0,0.0,0.0,0.0,0.0,0.0,0.0,0.0,0.0,0.0,0.0,0.0,0.0,0.0,0.0,0.0,0.0,0.0,0.0,0.0,0.0,0.0,0.0,0.0,0.0,0.0,0.0,0.0,0.0,0.0,0.0,0.0,0.0,0.0,0.0,0.0,0.0,0.0,0.0,0.0,0.0,0.0,0.0,0.0,0.0,0.0,0.0,0.0,0.0,0.0,0.0,0.0,0.0,0.0,0.0,0.0,0.0,0.0,0.0,0.0,0.0,0.0,0.0,0.0,0.0,0.0,0.0,0.0,0.0,0.0,0.0,0.0,0.0,0.0,0.0,0.0,0.0,0.0,0.0,0.0,0.0,0.0,0.0,0.0,0.0,0.0,0.0,0.0,-1.0834,-1.0526,-1.0363,-1.0278,-0.9293,-0.8379,0.0,0.0,0.0,0.0,0.0,0.0,0.0,0.0,0.0,0.0,0.0,0.0,0.0,0.0,0.0,0.0,0.0,0.0,0.0,0.0,0.0,0.0,0.0,0.0,0.0,0.0,0.0,0.0,0.0,0.0,0.0,0.0,0.0,0.0,0.0,0.0,0.0,0.0,0.0,0.0,0.0,0.0,0.0,0.0,0.0,0.0,0.0,0.0,0.0,0.0,0.0,0.0,0.0,0.0,0.0,0.0,0.0,0.0,0.0,0.0,0.0,0.0,0.0,0.0,0.0,0.0,0.0,0.0,0.0,0.0,0.0,0.0,0.0,0.0,0.0,0.0,0.0,0.0,0.0,0.0,0.0,0.0,0.0,0.0,0.0,0.0,0.0,0.0,0.0,0.0,0.0,0.0,0.0,0.0,0.0,0.0,0.0,0.0,0.0,0.0,0.0,0.0,0.0,0.0,0.0,0.0,0.0,0.0,0.0,-1.4581,-1.3679,-1.3191,-1.3142,-1.2165,-1.1241,-1.0403,0.0,0.0,0.0,0.0,0.0,0.0,0.0,0.0,0.0,0.0,0.0,0.0,0.0,0.0,0.0,0.0,0.0,0.0,0.0,0.0,0.0,0.0,0.0,0.0,0.0,0.0,0.0,0.0,0.0,0.0,0.0,0.0,0.0,0.0,0.0,0.0,0.0,0.0,0.0,0.0,0.0,0.0,0.0,0.0,0.0,0.0,0.0,0.0,0.0,0.0,0.0,0.0,0.0,0.0,0.0,0.0,0.0,0.0,0.0,0.0,0.0,0.0,0.0,0.0,0.0,0.0,0.0,0.0,0.0,0.0,0.0,0.0,0.0,0.0,0.0,0.0,0.0,0.0,0.0,0.0,0.0,0.0,0.0,0.0,0.0,0.0,0.0,0.0,0.0,0.0,0.0,0.0,0.0,0.0,0.0,0.0,0.0,0.0,0.0,0.0,0.0,0.0,0.0,0.0,0.0,0.0,0.0,0.0,-1.8764,-1.6857,-1.5833,-1.5773,-1.4708,-1.3848,0.0,0.0,0.0,0.0,0.0,0.0,0.0,0.0,0.0,0.0,0.0,0.0,0.0,0.0,0.0,0.0,0.0,0.0,0.0,0.0,0.0,0.0,0.0,0.0,0.0,0.0,0.0,0.0,0.0,0.0,0.0,0.0,0.0,0.0,0.0,0.0,0.0,0.0,0.0,0.0,0.0,0.0,0.0,0.0,0.0,0.0,0.0,0.0,0.0,0.0,0.0,0.0,0.0,0.0,0.0,0.0,0.0,0.0,0.0,0.0,0.0,0.0,0.0,0.0,0.0,0.0,0.0,0.0,0.0,0.0,0.0,0.0,0.0,0.0,0.0,0.0,0.0,0.0,0.0,0.0,0.0,0.0,0.0,0.0,0.0,0.0,0.0,0.0,0.0,0.0,0.0,0.0,0.0,0.0,0.0,0.0,0.0,0.0,0.0,0.0,0.0,0.0,0.0,0.0,0.0,0.0,0.0,0.0,0.0,-1.9487,-1.9126,-1.8656,-1.8129,-1.7436,-1.6682,0.0,0.0,0.0,0.0,0.0,0.0,0.0,0.0,0.0,0.0,0.0,0.0,0.0,0.0,0.0,0.0,0.0,0.0,0.0,0.0,0.0,0.0,0.0,0.0,0.0,0.0,0.0,0.0,0.0,0.0,0.0,0.0,0.0,0.0,0.0,0.0,0.0,0.0,0.0,0.0,0.0,0.0,0.0,0.0,0.0,0.0,0.0,0.0,0.0,0.0,0.0,0.0,0.0,0.0,0.0,0.0,0.0,0.0,0.0,0.0,0.0,0.0,0.0,0.0,0.0,0.0,0.0,0.0,0.0,0.0,0.0,0.0,0.0,0.0,0.0,0.0,0.0,0.0,0.0,0.0,0.0,0.0,0.0,0.0,0.0,0.0,0.0,0.0,0.0,0.0,0.0,0.0,0.0,0.0,0.0,0.0,0.0,0.0,0.0,0.0,0.0,0.0,0.0,0.0,0.0,0.0,0.0,0.0,-1.982,-2.0044,-2.0179,-2.0057,-1.9628,-1.9143,-1.8564,0.0,0.0,0.0,0.0,0.0,0.0,0.0,0.0,0.0,0.0,0.0,0.0,0.0,0.0,0.0,0.0,0.0,0.0,0.0,0.0,0.0,0.0,0.0,0.0,0.0,0.0,0.0,0.0,0.0,0.0,0.0,0.0,0.0,0.0,0.0,0.0,0.0,0.0,0.0,0.0,0.0,0.0,0.0,0.0,0.0,0.0,0.0,0.0,0.0,0.0,0.0,0.0,0.0,0.0,0.0,0.0,0.0,0.0,0.0,0.0,0.0,0.0,0.0,0.0,0.0,0.0,0.0,0.0,0.0,0.0,0.0,0.0,0.0,0.0,0.0,0.0,0.0,0.0,0.0,0.0,0.0,0.0,0.0,0.0,0.0,0.0,0.0,0.0,0.0,0.0,0.0,0.0,0.0,0.0,0.0,0.0,0.0,0.0,0.0,0.0,0.0,0.0,0.0,0.0,0.0,0.0,0.0,0.0,-2.0543,-2.0678,-2.0654,-2.0641,-2.0619,-2.0138,-1.9756,0.0,0.0,0.0,0.0,0.0,0.0,0.0,0.0,0.0,0.0,0.0,0.0,0.0,0.0,0.0,0.0,0.0,0.0,0.0,0.0,0.0,0.0,0.0,0.0,0.0,0.0,0.0,0.0,0.0,0.0,0.0,0.0,0.0,0.0,0.0,0.0,0.0,0.0,0.0,0.0,0.0,0.0,0.0,0.0,0.0,0.0,0.0,0.0,0.0,0.0,0.0,0.0,0.0,0.0,0.0,0.0,0.0,0.0,0.0,0.0,0.0,0.0,0.0,0.0,0.0,0.0,0.0,0.0,0.0,0.0,0.0,0.0,0.0,0.0,0.0,0.0,0.0,0.0,0.0,0.0,0.0,0.0,0.0,0.0,0.0,0.0,0.0,0.0,0.0,0.0,0.0,0.0,0.0,0.0,0.0,0.0,0.0,0.0,0.0,0.0,0.0,0.0,0.0,0.0,0.0,0.0,0.0,0.0,-2.182,-2.2486,-2.1852,-2.1535,-2.1525,-2.0708,-2.0201,0.0,0.0,0.0,0.0,0.0,0.0,0.0,0.0,0.0,0.0,0.0,0.0,0.0,0.0,0.0,0.0,0.0,0.0,0.0,0.0,0.0,0.0,0.0,0.0,0.0,0.0,0.0,0.0,0.0,0.0,0.0,0.0,0.0,0.0,0.0,0.0,0.0,0.0,0.0,0.0,0.0,0.0,0.0,0.0,0.0,0.0,0.0,0.0,-1.9344,0.0,0.0,0.0,0.0,0.0,0.0,0.0,0.0,0.0,0.0,0.0,0.0,0.0,0.0,0.0,0.0,0.0,0.0,0.0,0.0,0.0,0.0,0.0,0.0,0.0,0.0,0.0,0.0,0.0,0.0,0.0,0.0,0.0,0.0,0.0,0.0,0.0,0.0,0.0,0.0,0.0,0.0,0.0,0.0,0.0,0.0,0.0,0.0,0.0,0.0,0.0,0.0,0.0,0.0,0.0,0.0,0.0,0.0,0.0,-2.265,-2.3065,-2.2645,-2.2392,-2.2332,-2.1485,-2.0799,0.0,0.0,0.0,0.0,0.0,0.0,0.0,0.0,0.0,0.0,0.0,0.0,0.0,0.0,0.0,0.0,0.0,0.0,0.0,0.0,0.0,0.0,0.0,0.0,0.0,0.0,0.0,0.0,0.0,0.0,0.0,0.0,0.0,0.0,0.0,0.0,0.0,0.0,0.0,0.0,0.0,0.0,0.0,0.0,0.0,0.0,0.0,0.0,0.0,0.0,0.0,0.0,0.0,0.0,0.0,0.0,0.0,0.0,0.0,0.0,0.0,0.0,0.0,0.0,0.0,0.0,0.0,0.0,0.0,0.0,0.0,0.0,0.0,0.0,0.0,0.0,0.0,0.0,0.0,0.0,0.0,0.0,0.0,0.0,0.0,0.0,0.0,0.0,0.0,0.0,0.0,0.0,0.0,0.0,0.0,0.0,0.0,0.0,0.0,0.0,0.0,0.0,0.0,0.0,0.0,0.0,0.0,-2.2899,-2.3357,-2.3475,-2.3353,-2.3242,-2.3148,-2.2177,-2.136,-2.0679,0.0,0.0,0.0,0.0,0.0,0.0,0.0,0.0,0.0,0.0,0.0,0.0,0.0,0.0,0.0,0.0,0.0,0.0,0.0,0.0,0.0,0.0,0.0,0.0,0.0,0.0,0.0,0.0,0.0,0.0,0.0,0.0,0.0,0.0,0.0,0.0,0.0,0.0,-2.0306,-2.0214,0.0,0.0,0.0,0.0,0.0,0.0,0.0,0.0,-2.0313,0.0,0.0,0.0,0.0,0.0,0.0,0.0,0.0,0.0,0.0,0.0,0.0,0.0,0.0,0.0,0.0,0.0,0.0,0.0,0.0,0.0,0.0,0.0,0.0,0.0,0.0,0.0,0.0,0.0,0.0,0.0,0.0,0.0,0.0,0.0,0.0,0.0,0.0,0.0,0.0,0.0,0.0,0.0,0.0,0.0,0.0,0.0,0.0,0.0,0.0,0.0,0.0,0.0,0.0,0.0,0.0,-2.3859,-2.4028,-2.4444,-2.5168,-2.4418,-2.3987,-2.3879,-2.2357,-2.1473,-2.1313,0.0,0.0,0.0,0.0,0.0,0.0,0.0,0.0,0.0,0.0,0.0,0.0,0.0,0.0,0.0,0.0,0.0,0.0,0.0,0.0,0.0,0.0,0.0,0.0,0.0,0.0,0.0,0.0,0.0,0.0,0.0,0.0,0.0,0.0,0.0,0.0,0.0,0.0,0.0,-2.0116,-2.0268,0.0,0.0,0.0,0.0,0.0,0.0,0.0,0.0,-2.0985,0.0,0.0,0.0,0.0,0.0,0.0,0.0,0.0,0.0,0.0,0.0,0.0,0.0,0.0,0.0,0.0,0.0,0.0,0.0,0.0,0.0,0.0,0.0,0.0,0.0,0.0,0.0,0.0,0.0,0.0,0.0,0.0,0.0,0.0,0.0,0.0,0.0,0.0,0.0,0.0,0.0,0.0,0.0,0.0,0.0,0.0,0.0,0.0,0.0,0.0,0.0,0.0,0.0,0.0,0.0,-2.4213,-2.4651,-2.5081,-2.5456,-2.5026,-2.4743,-2.4649,-2.3409,-2.2517,0.0,0.0,0.0,0.0,0.0,0.0,0.0,0.0,0.0,0.0,0.0,0.0,0.0,0.0,0.0,0.0,0.0,0.0,0.0,0.0,0.0,0.0,0.0,0.0,0.0,0.0,0.0,0.0,0.0,0.0,0.0,0.0,0.0,0.0,0.0,0.0,0.0,0.0,0.0,0.0,-2.1346,-2.1411,-2.1789,0.0,0.0,0.0,0.0,0.0,0.0,-2.1711,-2.1211,0.0,0.0,0.0,0.0,0.0,0.0,0.0,0.0,0.0,0.0,0.0,0.0,0.0,0.0,0.0,0.0,0.0,0.0,0.0,0.0,0.0,0.0,0.0,0.0,0.0,0.0,0.0,0.0,0.0,0.0,0.0,0.0,0.0,0.0,0.0,0.0,0.0,0.0,0.0,0.0,0.0,0.0,0.0,0.0,0.0,0.0,0.0,0.0,0.0,0.0,0.0,0.0,0.0,0.0,0.0,-2.4432,-2.5045,-2.5357,-2.533,-2.5265,-2.5205,-2.5118,-2.4282,-2.3438,0.0,0.0,0.0,0.0,0.0,0.0,0.0,0.0,0.0,0.0,0.0,0.0,0.0,0.0,0.0,0.0,0.0,0.0,0.0,0.0,0.0,0.0,0.0,0.0,0.0,0.0,0.0,0.0,0.0,0.0,0.0,0.0,0.0,0.0,0.0,0.0,0.0,0.0,0.0,0.0,0.0,-2.252,-2.2595,-2.2601,0.0,0.0,0.0,0.0,-2.2811,-2.2154,0.0,0.0,0.0,0.0,0.0,0.0,0.0,0.0,0.0,0.0,0.0,0.0,0.0,0.0,0.0,0.0,0.0,0.0,0.0,0.0,0.0,0.0,0.0,0.0,0.0,0.0,0.0,0.0,0.0,0.0,0.0,0.0,0.0,0.0,0.0,0.0,0.0,0.0,0.0,0.0,0.0,0.0,0.0,0.0,0.0,0.0,0.0,0.0,0.0,0.0,0.0,0.0,0.0,0.0,0.0,0.0,-2.5149,-2.5205,-2.5209,-2.513,-2.508,-2.4994,-2.494,-2.4093,-2.3246,0.0,0.0,0.0,0.0,0.0,0.0,0.0,0.0,0.0,0.0,0.0,0.0,0.0,0.0,0.0,0.0,0.0,0.0,0.0,0.0,0.0,0.0,0.0,0.0,0.0,0.0,0.0,0.0,0.0,0.0,0.0,0.0,0.0,0.0,0.0,0.0,0.0,0.0,0.0,0.0,0.0,-2.2646,-2.3281,-2.3404,-2.37,0.0,0.0,-2.4559,-2.4505,-2.3882,0.0,0.0,0.0,0.0,0.0,0.0,0.0,0.0,0.0,0.0,0.0,0.0,0.0,0.0,0.0,0.0,0.0,0.0,0.0,0.0,0.0,0.0,0.0,0.0,0.0,0.0,0.0,0.0,0.0,0.0,0.0,0.0,0.0,0.0,0.0,0.0,0.0,0.0,0.0,0.0,0.0,0.0,0.0,0.0,0.0,0.0,0.0,0.0,0.0,0.0,0.0,0.0,0.0,0.0,0.0,-2.4818,-2.5126,-2.5056,-2.5025,-2.4987,-2.4926,-2.4823,-2.4734,-2.4377,-2.3779,0.0,0.0,0.0,0.0,0.0,0.0,0.0,0.0,0.0,0.0,0.0,0.0,0.0,0.0,0.0,0.0,0.0,0.0,0.0,0.0,0.0,0.0,0.0,0.0,0.0,0.0,0.0,0.0,0.0,0.0,0.0,0.0,0.0,0.0,0.0,0.0,0.0,0.0,0.0,0.0,0.0,0.0,-2.4214,-2.4266,0.0,0.0,0.0,-2.4917,-2.4898,0.0,0.0,0.0,0.0,0.0,0.0,0.0,0.0,0.0,0.0,0.0,0.0,0.0,0.0,0.0,0.0,0.0,0.0,0.0,0.0,0.0,0.0,0.0,0.0,0.0,0.0,0.0,0.0,0.0,0.0,0.0,0.0,0.0,0.0,0.0,0.0,0.0,0.0,0.0,0.0,0.0,0.0,0.0,0.0,0.0,0.0,0.0,0.0,0.0,0.0,0.0,0.0,0.0,0.0,0.0,0.0,0.0,-2.4942,-2.4874,-2.4818,-2.4813,-2.4723,-2.4645,-2.451,-2.4526,0.0,0.0,0.0,0.0,0.0,0.0,0.0,0.0,0.0,0.0,0.0,0.0,0.0,0.0,0.0,0.0,0.0,0.0,0.0,0.0,0.0,0.0,0.0,0.0,0.0,0.0,0.0,-2.0047,0.0,0.0,0.0,0.0,0.0,0.0,0.0,0.0,0.0,0.0,0.0,0.0,0.0,0.0,-2.487,-2.4827,-2.4808,-2.4856,0.0,0.0,-2.4985,-2.5032,-2.4567,-2.3888,0.0,0.0,0.0,0.0,0.0,0.0,0.0,0.0,0.0,0.0,0.0,0.0,0.0,0.0,0.0,0.0,0.0,0.0,0.0,0.0,0.0,0.0,0.0,0.0,0.0,0.0,0.0,0.0,0.0,0.0,0.0,0.0,0.0,0.0,0.0,0.0,0.0,0.0,0.0,0.0,0.0,0.0,0.0,0.0,0.0,0.0,0.0,0.0,0.0,0.0,0.0,0.0,0.0,0.0,0.0,-2.4808,-2.4685,-2.4629,-2.4528,-2.4459,-2.4373,-2.4248,-2.4358,-2.4004,0.0,0.0,0.0,0.0,0.0,0.0,0.0,0.0,0.0,0.0,0.0,0.0,0.0,0.0,0.0,0.0,0.0,0.0,0.0,0.0,0.0,0.0,0.0,0.0,0.0,0.0,0.0,0.0,0.0,0.0,0.0,0.0,0.0,0.0,0.0,0.0,0.0,0.0,0.0,0.0,0.0,-2.487,-2.4813,-2.4856,-2.4898,0.0,0.0,-2.5113,-2.5187,-2.519,-2.4877,-2.3962,0.0,0.0,0.0,0.0,0.0,0.0,0.0,0.0,0.0,0.0,0.0,0.0,0.0,0.0,0.0,0.0,0.0,0.0,0.0,0.0,0.0,0.0,0.0,0.0,0.0,0.0,0.0,0.0,0.0,0.0,0.0,0.0,0.0,0.0,0.0,0.0,0.0,0.0,0.0,0.0,0.0,0.0,0.0,0.0,0.0,0.0,0.0,0.0,0.0,0.0,0.0,0.0,0.0,-2.5649,-2.6002,-2.6004,-2.5894,-2.5741,-2.5663,-2.5326,-2.4766,-2.4846,-2.4501,0.0,0.0,0.0,0.0,0.0,0.0,0.0,0.0,0.0,0.0,0.0,0.0,0.0,0.0,0.0,0.0,0.0,0.0,0.0,0.0,0.0,0.0,0.0,0.0,0.0,0.0,0.0,0.0,-2.1005,-2.1258,-2.1861,0.0,0.0,0.0,0.0,0.0,0.0,0.0,0.0,0.0,0.0,-2.4842,-2.4813,-2.4827,0.0,0.0,-2.4987,-2.5253,-2.5841,-2.5543,-2.5094,-2.4694,-2.4081,0.0,0.0,0.0,0.0,0.0,0.0,0.0,0.0,0.0,0.0,0.0,0.0,0.0,0.0,0.0,0.0,0.0,0.0,0.0,0.0,0.0,0.0,0.0,0.0,0.0,0.0,0.0,0.0,0.0,0.0,0.0,0.0,0.0,0.0,0.0,0.0,0.0,0.0,0.0,0.0,0.0,0.0,0.0,0.0,0.0,0.0,0.0,0.0,0.0,0.0,0.0,0.0,-2.6265,-2.6665,-2.6622,-2.6515,-2.6304,-2.6277,-2.5955,-2.5366,-2.5411,-2.5074,0.0,0.0,0.0,0.0,0.0,0.0,0.0,0.0,0.0,0.0,0.0,0.0,0.0,0.0,0.0,0.0,0.0,0.0,0.0,0.0,0.0,0.0,0.0,0.0,0.0,0.0,0.0,0.0,-2.1641,-2.1969,-2.2665,0.0,0.0,0.0,0.0,0.0,0.0,0.0,0.0,0.0,0.0,-2.5133,-2.5239,-2.5389,-2.5589,-2.5882,-2.5787,-2.5937,-2.66,-2.6212,-2.5787,-2.569,0.0,0.0,0.0,0.0,0.0,0.0,0.0,0.0,0.0,0.0,0.0,0.0,0.0,0.0,0.0,0.0,0.0,0.0,0.0,0.0,0.0,0.0,0.0,0.0,0.0,0.0,0.0,0.0,0.0,0.0,-2.0673,0.0,0.0,0.0,0.0,0.0,0.0,0.0,0.0,0.0,0.0,0.0,0.0,0.0,0.0,0.0,0.0,0.0,0.0,0.0,0.0,0.0,0.0,-2.6602,-2.641,-2.6309,-2.6092,-2.5967,-2.5929,-2.5947,-2.59,-2.5949,-2.5661,-2.4879,0.0,0.0,0.0,0.0,0.0,0.0,0.0,0.0,0.0,0.0,0.0,0.0,0.0,0.0,0.0,0.0,0.0,0.0,0.0,0.0,0.0,0.0,0.0,0.0,0.0,0.0,-2.1458,-2.1553,-2.1698,0.0,0.0,0.0,0.0,0.0,0.0,0.0,0.0,0.0,0.0,-2.5288,-2.5887,-2.6216,-2.6705,-2.7187,-2.7865,-2.7557,-2.727,-2.7358,-2.7282,-2.7182,0.0,0.0,0.0,0.0,0.0,0.0,0.0,0.0,0.0,0.0,0.0,0.0,0.0,0.0,0.0,0.0,0.0,0.0,0.0,0.0,0.0,0.0,0.0,0.0,0.0,0.0,0.0,-2.0902,-2.0767,0.0,0.0,0.0,0.0,0.0,0.0,0.0,0.0,0.0,0.0,0.0,-2.2839,-2.3288,0.0,0.0,0.0,0.0,0.0,0.0,0.0,0.0,0.0,0.0,0.0,0.0,-2.7367,-2.7705,-2.7623,-2.7494,-2.738,-2.7353,-2.7077,-2.6535,-2.6551,-2.5997,-2.47,0.0,0.0,0.0,0.0,0.0,0.0,0.0,0.0,0.0,0.0,0.0,0.0,0.0,0.0,0.0,0.0,0.0,0.0,0.0,0.0,0.0,0.0,0.0,0.0,0.0,-2.2337,0.0,0.0,0.0,0.0,0.0,0.0,0.0,0.0,0.0,0.0,0.0,-2.4595,-2.5132,-2.543,-2.5838,-2.6544,-2.6786,-2.6991,0.0,0.0,0.0,0.0,0.0,0.0,0.0,0.0,0.0,0.0,0.0,0.0,0.0,0.0,-2.2271,-2.2248,-2.2032,-2.1781,-2.154,0.0,0.0,0.0,0.0,0.0,0.0,0.0,0.0,0.0,0.0,0.0,0.0,0.0,0.0,-2.1274,0.0,-2.1045,0.0,0.0,0.0,0.0,0.0,0.0,0.0,0.0,-2.2773,-2.322,-2.3688,-2.3837,-2.4211,0.0,-2.4832,-2.4951,0.0,0.0,0.0,0.0,0.0,0.0,0.0,0.0,-2.7797,-2.8201,-2.8091,-2.7996,-2.7882,-2.7882,-2.7624,-2.7056,-2.6803,-2.6169,-2.5094,-2.4761,-2.4244,0.0,0.0,0.0,0.0,0.0,0.0,0.0,0.0,0.0,0.0,0.0,0.0,0.0,0.0,0.0,0.0,0.0,0.0,0.0,0.0,0.0,0.0,0.0,-2.3084,0.0,0.0,0.0,0.0,0.0,0.0,0.0,0.0,0.0,-2.4919,-2.4904,-2.5124,-2.566,-2.5991,-2.6413,-2.7027,0.0,0.0,0.0,0.0,0.0,0.0,0.0,-2.7698,-2.8017,-2.7327,-2.6478,-2.586,-2.478,-2.3738,-2.3088,0.0,0.0,-2.2173,-2.1945,-2.1721,-2.1448,-2.1293,-2.1135,-2.0926,-2.0861,-2.0794,0.0,0.0,0.0,0.0,0.0,0.0,0.0,0.0,-2.2466,-2.2275,0.0,-2.2118,0.0,0.0,0.0,0.0,0.0,-2.2835,0.0,0.0,-2.3794,-2.4178,-2.4147,-2.4258,-2.4353,-2.437,-2.4543,-2.4978,-2.5686,-2.5524,0.0,0.0,0.0,0.0,0.0,0.0,-2.7915,-2.7789,-2.7659,-2.7539,-2.7496,-2.7496,-2.7496,-2.7478,-2.6753,-2.6246,-2.6074,-2.5326,-2.4586,-2.3857,-2.3877,0.0,0.0,0.0,0.0,0.0,0.0,0.0,0.0,0.0,0.0,0.0,0.0,0.0,0.0,0.0,0.0,0.0,0.0,0.0,0.0,-2.3454,0.0,0.0,0.0,0.0,0.0,0.0,0.0,0.0,0.0,0.0,-2.602,-2.6051,-2.6121,-2.6209,0.0,0.0,0.0,0.0,-2.891,-2.903,-2.9067,-2.9048,-2.8962,-2.8915,-2.8731,-2.8422,0.0,0.0,-2.6182,-2.5045,-2.4288,-2.4193,-2.3901,-2.3407,-2.2205,-2.1873,-2.1673,-2.1516,-2.1375,-2.1135,-2.0941,-2.0872,-2.0771,-2.4355,0.0,0.0,0.0,0.0,-2.2773,-2.252,-2.232,-2.2593,-2.2635,-2.2562,-2.3011,0.0,0.0,0.0,0.0,0.0,0.0,-2.3523,-2.3506,-2.3786,-2.4232,-2.4829,-2.4896,-2.5263,-2.5849,-2.59,-2.6068,-2.632,-2.6282,-2.6522,-2.7052,0.0,0.0,0.0,0.0,-2.7569,-2.7569,-2.74,-2.7307,-2.7293,-2.7293,-2.7261,-2.7213,-2.6928,-2.6473,-2.5848,-2.545,-2.4929,-2.4279,-2.4241,0.0,0.0,0.0,0.0,0.0,0.0,0.0,0.0,0.0,0.0,0.0,0.0,0.0,0.0,0.0,0.0,0.0,0.0,0.0,-2.4882,-2.4856,-2.4918,0.0,0.0,0.0,0.0,0.0,0.0,0.0,0.0,0.0,-2.6964,-2.6366,-2.6133,0.0,0.0,-2.7468,-2.8178,-2.8449,-2.8644,-2.8737,-2.8718,0.0,-2.8626,-2.8587,-2.844,-2.811,-2.7666,-2.6937,-2.5776,-2.5228,-2.4697,-2.4017,-2.3685,-2.3369,-2.3028,-2.2815,-2.2696,-2.2559,-2.2401,-2.2051,-2.1541,-2.1377,-2.1202,-2.4413,-2.3648,-2.3772,-2.3709,-2.3474,-2.3238,-2.2958,-2.2718,-2.2931,-2.2965,-2.2882,-2.3236,-2.3414,-2.343,-2.3565,0.0,0.0,0.0,-2.406,-2.4076,-2.4439,-2.4921,-2.5403,-2.5473,-2.5775,-2.6277,-2.6345,-2.6415,-2.645,-2.6468,-2.6607,-2.6858,0.0,0.0,-2.7837,-2.7742,-2.7866,-2.8174,-2.8028,-2.7962,-2.7928,-2.7604,-2.7334,-2.7267,-2.6911,-2.6438,-2.5849,-2.5715,-2.5296,-2.4645,-2.4644,-2.4622,0.0,0.0,0.0,0.0,0.0,0.0,0.0,0.0,0.0,0.0,0.0,-2.387,-2.4382,0.0,0.0,0.0,-2.516,-2.5244,-2.53,-2.531,0.0,0.0,0.0,0.0,0.0,0.0,0.0,-2.6461,-2.6557,-2.6743,-2.7255,-2.6749,-2.6602,-2.7281,-2.7406,-2.7665,-2.8308,0.0,-2.8829,-2.8882,-2.8882,-2.8856,-2.8775,-2.847,-2.8136,-2.7742,-2.7338,-2.6821,-2.6051,-2.5714,-2.5376,-2.472,-2.4359,-2.418,-2.4108,-2.3962,-2.3576,-2.3027,-2.2718,-2.2409,-2.1947,-2.1885,-2.1709,-2.454,-2.4477,-2.4893,-2.4788,-2.4334,-2.4129,-2.3852,-2.3515,-2.3476,-2.3353,-2.3175,-2.3239,-2.3219,-2.3255,-2.3394,0.0,-2.3587,-2.4308,-2.4671,-2.4688,-2.5497,-2.586,-2.5881,-2.5937,-2.599,-2.6026,-2.6115,-2.6168,-2.6184,-2.6308,-2.6343,-2.6378,-2.6843,-2.7469,-2.8134,-2.8186,-2.8562,-2.9247,-2.9121,-2.9066,-2.9013,-2.821,-2.7696,-2.7551,-2.6814,-2.6289,-2.6092,-2.6007,-2.5661,-2.502,-2.5023,-2.4829,-2.4378,0.0,0.0,0.0,0.0,0.0,0.0,0.0,0.0,0.0,0.0,0.0,0.0,0.0,0.0,0.0,-2.5148,0.0,-2.5178,-2.5294,0.0,0.0,0.0,-2.644,-2.7063,-2.7055,-2.6975,-2.6975,0.0,0.0,-2.7072,-2.7206,-2.7448,-2.7812,-2.797,-2.812,-2.8324,-2.892,-2.9347,-2.9365,-2.9347,-2.9336,-2.9249,-2.8605,-2.7953,-2.7573,-2.7203,-2.6859,-2.6556,-2.6314,-2.6082,-2.5835,-2.5605,-2.5346,-2.5278,-2.491,-2.4374,-2.3158,-2.2736,-2.257,-2.2432,-2.2401,-2.2332,-2.6593,-2.6445,-2.7007,-2.595,-2.3918,-2.3736,-2.3567,-2.346,-2.3795,-2.3872,-2.3883,-2.4255,-2.4398,-2.4398,-2.4553,-2.4614,-2.4729,-2.4981,-2.5174,-2.5196,-2.5411,-2.5589,-2.5738,-2.5775,-2.5828,-2.5934,-2.5954,-2.5974,-2.6003,-2.6496,-2.6796,-2.6958,-2.7561,-2.7868,-2.7823,-2.8275,-2.8662,-2.8904,-2.8811,-2.8736,-2.872,-2.8457,-2.8227,-2.813,-2.7342,-2.6834,-2.6705,-2.6026,-2.5615,-2.553,-2.5473,-2.5464,-2.548,-2.5657,0.0,0.0,0.0,0.0,0.0,0.0,0.0,0.0,0.0,-2.5176,-2.5695,0.0,-2.588,0.0,-2.651,-2.6573,-2.6602,-2.6695,0.0,0.0,-2.6874,-2.6833,-2.6825,-2.6759,-2.6674,-2.6708,-2.7112,-2.7261,-2.7009,-2.7769,-2.8334,-2.8254,-2.838,-2.8745,-2.9449,-2.9708,-2.9849,-2.9832,-2.9849,-2.9818,-2.9653,-2.8935,-2.8207,-2.7978,-2.7317,-2.6674,-2.64,-2.6189,-2.5974,-2.5791,-2.5508,-2.5333,-2.5294,-2.4966,-2.4592,-2.4209,-2.4067,-2.3792,-2.3218,-2.3149,-2.2995,-2.7453,-2.7313,-2.7583,-2.6742,-2.5319,-2.5212,-2.496,-2.4585,-2.4759,-2.4642,-2.4351,-2.461,-2.4726,-2.4726,-2.4806,-2.4871,-2.4966,-2.5084,-2.5201,-2.5278,-2.5637,-2.586,-2.5976,-2.6322,-2.6545,-2.6617,-2.6678,-2.6694,-2.6727,-2.7085,-2.7297,-2.7375,-2.8078,-2.8289,-2.8141,-2.8661,-2.9126,-2.9443,-2.942,-2.9357,-2.9301,-2.8883,-2.8655,-2.8502,-2.7695,-2.7225,-2.7106,-2.6324,-2.5954,-2.596,-2.5663,-2.5594,-2.5766,-2.6278,-2.6531,0.0,0.0,0.0,0.0,0.0,0.0,0.0,0.0,0.0,0.0,0.0,-2.6516,-2.6858,-2.6909,-2.6975,-2.699,-2.7087,-2.712,-2.7055,-2.7263,-2.7368,-2.7199,-2.7328,-2.7456,-2.7456,-2.7627,-2.7665,-2.7462,-2.8002,-2.8543,-2.8812,-2.8996,-2.9283,-2.9676,-3.0021,-3.0213,-3.023,-3.0179,-2.9972,-2.9592,-2.8956,-2.8492,-2.83,-2.7549,-2.685,-2.6617,-2.6171,-2.5811,-2.5589,-2.5378,-2.5201,-2.5178,-2.4886,-2.4589,-2.4564,-2.4539,-2.4318,-2.3881,-2.3804,-2.365,-2.766,-2.756,-2.7482,-2.7434,-2.7363,-2.7418,-2.6915,-2.6052,-2.5953,-2.5483,-2.4772,-2.4813,-2.4772,-2.4813,-2.4813,-2.4911,-2.5008,-2.517,-2.5274,-2.537,-2.6054,-2.6381,-2.6429,-2.7118,-2.7432,-2.7416,-2.7563,-2.7621,-2.7646,-2.7711,-2.78,-2.7833,-2.8446,-2.8742,-2.8661,-2.9098,-2.9642,-3.0192,-3.03,-3.0274,-3.013,-2.9398,-2.8945,-2.886,-2.8014,-2.756,-2.746,-2.6764,-2.6381,-2.6365,-2.5895,-2.5621,-2.5728,-2.6568,-2.6913,0.0,-2.7175,0.0,0.0,0.0,0.0,0.0,0.0,0.0,0.0,-2.6893,-2.6825,-2.6691,-2.6792,-2.6893,-2.6893,-2.7027,-2.7111,-2.7112,-2.7606,-2.7924,-2.7923,-2.8223,-2.8417,-2.8434,-2.825,-2.8165,-2.8043,-2.8158,-2.8631,-2.932,-2.9619,-2.9732,-2.9721,-3.0206,-3.0583,-3.06,-3.0472,-3.016,-2.9505,-2.905,-2.88,-2.8636,-2.7914,-2.7212,-2.6858,-2.6238,-2.5718,-2.541,-2.5185,-2.5029,-2.4966,-2.4766,-2.4549,-2.4441,-2.4416,-2.4359,-2.4271,-2.4256,-2.4234,-2.786,-2.7863,-2.8154,-2.828,-2.8233,-2.8107,-2.7457,-2.6486,-2.6414,-2.6176,-2.5831,-2.5831,-2.5831,-2.5891,-2.5949,-2.6037,-2.6184,-2.6287,-2.6401,-2.6498,-2.6623,-2.6745,-2.6862,-2.7028,-2.7091,-2.7094,-2.7127,-2.717,-2.7312,-2.7838,-2.8136,-2.8297,-2.8882,-2.9143,-2.9023,0.0,0.0,0.0,-2.9837,-2.9897,-2.9837,-2.9548,-2.9367,-2.9351,-2.8427,0.0,-2.7854,-2.7135,-2.6745,-2.6846,-2.6778,0.0,0.0,0.0,0.0,0.0,0.0,0.0,0.0,0.0,0.0,0.0,-2.8263,-2.7921,-2.6978,-2.6775,-2.6742,-2.6691,-2.6725,-2.6742,-2.6742,-2.7369,-2.7777,-2.769,-2.8298,-2.8592,-2.8386,-2.8257,-2.8129,-2.7987,-2.8248,-2.8323,-2.7955,-2.8683,-2.9437,-2.9675,-3.0002,-3.0137,-3.0259,-3.0701,-3.0992,-3.0915,-3.0729,-3.0616,-3.0413,-2.9782,-2.9297,-2.9055,-2.8385,-2.7532,-2.671,-2.6366,-2.5878,-2.525,-2.4966,-2.4806,-2.4686,-2.4508,-2.4302,-2.4219,-2.4151,-2.4151,-2.4261,-2.4302,-2.4219,-2.8077,0.0,-2.8211,-2.8238,0.0,-2.8088,-2.758,-2.6974,-2.681,-2.6505,-2.6062,-2.6047,-2.6062,-2.6108,-2.6214,-2.6304,-2.6378,-2.6543,-2.666,-2.6764,-2.7076,-2.7261,-2.7337,-2.7731,-2.7903,-2.787,-2.792,-2.792,-2.7992,-2.8381,-2.8568,-2.8659,-2.8978,-2.9029,-2.8858,-2.8653,-2.8764,-2.9273,-2.9364,-2.9409,-2.9348,-2.9182,-2.9106,-2.8982,-2.8482,0.0,0.0,0.0,0.0,0.0,0.0,0.0,0.0,-2.7796,0.0,-2.7989,-2.8233,-2.8339,-2.8178,-2.8223,-2.8318,-2.8434,-2.8531,-2.8343,-2.7786,-2.7754,-2.7737,-2.7737,-2.7772,-2.7824,-2.7841,-2.825,-2.8435,-2.8361,-2.8878,-2.9219,-2.8982,-2.9081,-2.9017,-2.8842,-2.8936,-2.8894,-2.8586,-2.9074,-2.9483,-2.9524,-2.975,-2.9973,-3.0103,-3.0485,-3.0733,-3.0551,-3.041,-3.0309,-3.0208,-2.991,-2.9505,-2.928,-2.8592,-2.7688,-2.6719,-2.6198,-2.5674,-2.4883,-2.4549,-2.4426,-2.4385,-2.4177,-2.4036,-2.3952,-2.3867,-2.3782,-2.3867,-2.3952,-2.4009,-2.8164,-2.8369,-2.8091,-2.8041,-2.7991,-2.7906,-2.7643,-2.7372,0.0,0.0,0.0,-2.6287,-2.6257,-2.6319,-2.6443,-2.652,-2.6596,-2.6703,-2.6825,-2.6946,-2.7519,-2.7798,-2.7844,-2.8404,-2.87,-2.87,-2.8652,-2.87,-2.87,-2.8811,-2.8889,-2.8998,-2.9046,-2.8934,-2.8832,-2.8636,-2.867,-2.9027,-2.9014,-2.8936,-2.8826,-2.8685,-2.8542,-2.8431,-2.8332,-2.8299,-2.8299,-2.7684,-2.7487,-2.7628,-2.7611,-2.7512,-2.7347,-2.8434,-2.8662,-2.7913,-2.8388,-2.8581,-2.8192,-2.8241,-2.842,-2.8675,-2.8816,-2.8815,-2.8603,-2.8736,-2.8827,-2.8827,-2.8938,-2.9011,-2.9011,-2.911,-2.9141,-2.9013,-2.9537,-2.9838,-2.9632,-2.9896,-2.9978,-2.9826,-2.9528,-2.9412,-2.9335,-2.9273,-2.9243,-2.9225,-2.9454,-2.9637,-2.9681,-3.0033,-3.0189,-3.0017,-2.9853,-2.9722,-2.9677,-2.9528,-2.9425,-2.93,-2.8659,-2.7774,-2.6829,-2.6134,-2.5354,-2.4399,-2.4135,-2.4078,-2.3994,-2.3882,-2.3739,-2.3711,-2.3595,-2.3465,-2.3334,-2.3421,-2.3581,-2.7816,-2.8293,-2.8151,-2.8098,-2.8098,-2.806,-2.775,-2.7233,-2.7297,-2.7309,-2.722,-2.7305,-2.7455,-2.7569,-2.7569,-2.7618,-2.778,-2.778,-2.7765,-2.7829,-2.8051,-2.813,-2.8146,-2.8238,-2.8284,-2.8299,-2.8152,-2.8152,-2.8299,-2.8396,-2.8819,-2.9428,-2.949,-2.9585,-2.9779,-2.9772,-2.972,-2.9652,-2.8882,-2.8493,-2.8493,-2.8332,-2.822,-2.8057,-2.7925,-2.7905,-2.789,-2.7799,-2.7838,-2.8097,-2.8227,-2.8309,-2.8389,-2.8716,-2.8917,-2.8898,-2.9053,-2.9278,-2.9502,-2.9562,-2.9734,-3.0062,-3.0146,-2.9698,-2.8703,-2.8736,-2.8827,-2.8827,-2.8969,-2.9011,-2.9045,-2.9583,-2.9901,-2.9787,-3.0331,-3.0583,-3.0245,-3.0107,-2.9973,-2.9726,-2.9486,-2.9273,-2.918,-2.912,-2.9183,-2.9321,-2.9366,-2.935,-2.9412,-2.9592,-2.9726,-2.9621,-2.947,-2.9335,-2.9213,-2.9044,-2.8997,-2.9013,-2.867,-2.7938,-2.6608,-2.6181,-2.5496,-2.4137,-2.394,-2.3882,-2.3683,-2.361,-2.348,-2.3304,-2.3172,-2.3068,-2.2844,-2.2814,-2.2873,-2.8066,-2.868,-2.8561,-2.8521,-2.8492,-2.7977,-2.7399,-2.6855,-2.6974,-2.7181,-2.7401,-2.7503,-2.759,-2.7675,-2.779,-2.784,-2.7905,-2.7955,-2.8005,-2.8005,-2.8054,-2.8103,-2.8103,-2.8103,-2.8054,-2.7989,-2.7905,-2.8022,-2.8324,-2.8571,-2.9057,-2.972,-2.9663,-2.9674,-2.9681,-2.9604,-2.9495,-2.9456,-2.9282,-2.9053,-2.8601,-2.8586,-2.8268,-2.769,-2.759,-2.7554,-2.7473,-2.7488,-2.759,-2.7875,-2.7925,-2.8137,-2.8493,-2.8573,-2.8716,-2.892,-2.9029,-2.9182,-2.9425,-2.9677,-2.9941,-3.0274,-3.0375,-3.0195,-2.9663,-2.9755,-2.9811,-2.985,-2.9945,-3.0022,-3.0099,-3.0381,-3.0488,-3.0415,-3.067,-3.0651,-3.0359,-3.0189,-2.9973,-2.9726,-2.9547,-2.9335,-2.9132,-2.912,-2.9137,-2.9183,-2.9167,-2.9059,-2.9045,-2.9091,-2.9075,-2.9075,-2.8982,-2.8858,-2.8732,-2.8621,-2.8542,-2.8494,-2.8365,-2.7605,-2.6336,-2.5894,-2.5228,-2.388,-2.3581,-2.3538,-2.3319,-2.326,-2.3113,-2.2904,-2.2768,-2.2632,-2.2402,-2.217,-2.2123,-2.8385,-2.9095,-2.8997,-2.8955,-2.884,-2.7993,-2.7221,-2.6701,-2.6823,-2.6948,-2.7181,-2.7284,-2.7437,-2.7524,-2.764,-2.764,-2.769,-2.774,-2.7821,-2.7806,-2.7855,-2.7855,-2.7871,-2.7871,-2.779,-2.769,-2.764,-2.7793,-2.8107,-2.8344,-2.8921,-2.9674,-2.9943,-2.9983,-2.9913,-2.9651,-2.9484,-2.9484,-2.9888,-2.9717,-2.8922,-2.8704,-2.8256,-2.7602,-2.7373,-2.7248,-2.7196,-2.713,-2.7284,-2.7473,-2.7575,-2.7775,-2.8186,-2.8299,-2.846,-2.8684,-2.8811,-2.892,-2.9075,-2.9515,-2.9826,-3.0087,-3.0189,-3.03,-3.0443,-3.0526,-3.0609,-3.0692,-3.0764,-3.0861,-3.0908,-3.0902,-3.0871,-3.0871,-3.0733,-3.0526,-3.0274,-3.0189,-3.006,-2.9786,-2.9592,-2.9396,-2.9241,-2.912,-2.9075,-2.9045,-2.8936,-2.8795,-2.8732,-2.8589,-2.8525,-2.8462,-2.8462,-2.8381,-2.825,-2.8088,-2.8039,-2.8024,-2.794,-2.7139,-2.5986,-2.5506,-2.483,-2.3569,-2.3172,-2.3083,-2.2949,-2.2844,-2.2723,-2.2509,-2.2356,-2.2231,-2.1935,-2.165,-2.152,-2.8541,-2.907,-2.9113,-2.9054,-2.8954,-2.8195,-2.7641,-2.7226,-2.7072,-2.684,-2.6732,-2.7026,-2.7248,-2.7218,-2.7233,-2.7284,-2.7284,-2.7284,-2.7284,-2.7269,-2.7401,-2.7452,-2.7452,-2.7437,-2.7386,-2.7233,-2.7144,-2.7047,-2.703,-2.7173,-2.7889,-2.9302,-3.0362,-3.0924,-3.1012,-3.0778,-3.0616,-3.0646,-3.0572,-3.0031,-2.9123,-2.8488,-2.8057,-2.7876,-2.7348,-2.7003,-2.7047,-2.6989,-2.7093,-2.7218,-2.7473,-2.7625,-2.7725,-2.8024,-2.8284,-2.8411,-2.8589,-2.8763,-2.9075,-2.9366,-2.9621,-2.981,-2.9853,-3.0,-3.0189,-3.0231,-3.0359,-3.0609,-3.079,-3.0871,-3.0912,-3.0871,-3.0831,-3.0733,-3.0609,-3.0426,-3.0231,-3.0103,-2.9973,-2.9902,-2.9653,-2.9457,-2.9396,-2.9152,-2.8936,-2.8826,-2.8732,-2.8573,-2.8493,-2.8284,-2.8137,-2.7875,-2.7875,-2.7925,-2.7725,-2.7539,-2.7524,-2.7575,-2.7423,-2.6722,-2.5737,-2.5125,-2.4619,-2.3522,-2.2913,-2.2864,-2.2612,-2.2417,-2.2399,-2.2137,-2.1983,-2.1902,-2.1568,-2.1277,-2.1131,-2.8902,-2.9393,-2.9407,-2.9106,-2.8679,-2.8306,-2.7872,-2.7411,-2.7325,-2.7285,-2.7244,-2.7398,-2.7299,-2.6907,-2.6893,-2.6893,-2.6907,-2.6893,-2.6907,-2.6893,-2.6945,-2.7011,-2.7011,-2.6997,-2.6907,-2.6788,-2.675,-2.6847,-2.7158,-2.7932,-2.8737,-2.9446,-3.0236,-3.0613,-3.0687,-3.0522,-3.0341,-3.019,-3.0129,-2.9886,-2.943,-2.9202,-2.8931,-2.8481,-2.7773,-2.7438,-2.7355,-2.6982,-2.6817,-2.7041,-2.7196,-2.7335,-2.756,-2.7775,-2.794,-2.8168,-2.8348,-2.8621,-2.8982,-2.9075,-2.9289,-2.9605,-2.9649,-2.9722,-2.9957,-2.9941,-3.0044,-3.0172,-3.0342,-3.0526,-3.0651,-3.0626,-3.0584,-3.0568,-3.0485,-3.0375,-3.0103,-2.9957,-2.9826,-2.9786,-2.9547,-2.9412,-2.935,-2.9106,-2.8873,-2.8716,-2.8589,-2.8444,-2.8299,-2.8024,-2.779,-2.7524,-2.7386,-2.7284,-2.7233,-2.7063,-2.7049,-2.7049,-2.6997,-2.6484,-2.5626,-2.53,-2.4833,-2.3638,-2.3419,-2.3172,-2.2817,-2.2684,-2.2532,-2.1966,-2.1458,-2.1313,-2.097,-2.0822,-2.0772,-2.9044,-2.9373,-2.9352,-2.9025,-2.8484,-2.8408,-2.8077,-2.7566,-2.7465,-2.7442,-2.7395,-2.7409,-2.7199,-2.6828,-2.6763,-2.6716,-2.6701,-2.6543,-2.6472,-2.6472,-2.6457,-2.6457,-2.6472,-2.6472,-2.6519,-2.6554,-2.6583,-2.6911,-2.7527,-2.8597,-2.9258,-2.9389,-2.9889,-3.0129,-3.0068,-2.9974,-2.9837,-2.9685,-2.9637,-2.9574,-2.9518,-2.9611,-2.9435,-2.89,-2.8192,-2.7717,-2.7544,-2.7029,-2.6751,-2.6794,-2.6832,-2.7026,-2.7372,-2.7423,-2.7625,-2.7905,-2.8152,-2.8429,-2.8685,-2.8732,-2.892,-2.9243,-2.9319,-2.9425,-2.9633,-2.9694,-2.9738,-2.9738,-2.9886,-3.0119,-3.0316,-3.0359,-3.0375,-3.0401,-3.0359,-3.0205,-2.9957,-2.9826,-2.9754,-2.9637,-2.9441,-2.9259,-2.9167,-2.8982,-2.8748,-2.8525,-2.8348,-2.825,-2.8088,-2.7775,-2.7488,-2.7299,-2.6989,-2.6817,-2.6817,-2.6698,-2.6578,-2.6525,-2.651,-2.6189,-2.5436,-2.5242,-2.4925,-2.3719,-2.3821,-2.3497,-2.271,-2.2523,-2.2336,-2.1529,-2.1068,-2.0822,-2.0673,-2.0573,-2.0372,-2.8853,-2.8789,-2.8702,-2.8624,-2.8597,-2.8363,-2.8052,-2.7637,-2.7512,-2.7201,-2.6904,-2.685,-2.6903,-2.7001,-2.6858,-2.6778,-2.675,-2.6258,-2.6004,-2.6004,-2.5948,-2.5934,-2.5948,-2.5962,-2.6147,-2.6441,-2.661,-2.7031,-2.7764,-2.8412,-2.875,-2.8778,-2.9369,-2.9665,-2.9602,-2.9449,-2.9373,-2.931,-2.9212,-2.9149,-2.9247,-2.9254,-2.9133,-2.8842,-2.8264,-2.7726,-2.7411,-2.731,-2.7009,-2.6369,-2.6486,-2.663,-2.6832,-2.7078,-2.7386,-2.774,-2.794,-2.8073,-2.822,-2.8348,-2.8525,-2.8748,-2.8873,-2.9059,-2.9289,-2.9412,-2.9457,-2.9518,-2.9518,-2.9665,-2.9973,-3.0103,-3.0189,-3.0189,-3.0119,-2.9973,-2.981,-2.9754,-2.9653,-2.9518,-2.935,-2.9167,-2.8889,-2.8684,-2.8525,-2.8284,-2.8103,-2.8005,-2.784,-2.7604,-2.735,-2.7041,-2.6765,-2.6525,-2.651,-2.6365,-2.6272,-2.6165,-2.6054,-2.5873,-2.5208,-2.4657,-2.4221,-2.3857,-2.3712,-2.3255,-2.2436,-2.1918,-2.1576,-2.1146,-2.0799,-2.056,-2.0372,-2.0271,-2.0118,-2.8352,-2.817,-2.8118,-2.8197,-2.8276,-2.8183,-2.8063,-2.7954,-2.7876,-2.7782,-2.7581,-2.7554,-2.7645,-2.7669,-2.7263,-2.7064,-2.6993,-2.6495,-2.6231,-2.6175,-2.5828,-2.5578,-2.5453,-2.5453,-2.555,-2.5756,-2.6171,-2.6726,-2.7395,-2.8079,-2.8385,-2.8483,-2.8997,-2.9289,-2.9212,-2.9071,-2.8931,-2.883,-2.8688,-2.8573,-2.8573,-2.8509,-2.8515,-2.8474,-2.833,-2.8212,-2.8104,-2.7414,-2.6862,-2.6775,-2.65,-2.6486,-2.6779,-2.7078,-2.7284,-2.7488,-2.759,-2.774,-2.789,-2.8005,-2.8137,-2.8381,-2.851,-2.8653,-2.8811,-2.8951,-2.906,-2.906,-2.9199,-2.9321,-2.9441,-2.9722,-3.0,-3.006,-2.9957,-2.9853,-2.9733,-2.9589,-2.9441,-2.9335,-2.9198,-2.8982,-2.8826,-2.8684,-2.8477,-2.8235,-2.8103,-2.7905,-2.769,-2.7437,-2.7181,-2.6884,-2.6553,-2.6218,-2.6096,-2.6002,-2.5893,-2.5853,-2.5756,-2.5563,-2.5122,-2.4874,-2.4559,-2.4313,-2.404,-2.3487,-2.2764,-2.148,-2.1103,-2.083,-2.051,-2.0321,-2.0067,-2.0016,-1.9811,-2.7789,-2.759,-2.759,-2.7736,-2.7815,-2.7815,-2.7802,-2.7815,-2.7749,-2.7749,-2.7749,-2.7815,-2.7881,-2.7881,-2.7536,-2.7471,-2.7407,-2.6758,-2.639,-2.6349,-2.5966,-2.5622,-2.5317,-2.529,-2.5303,-2.5439,-2.6176,-2.6963,-2.7693,-2.8147,-2.8291,-2.8345,-2.8716,-2.883,-2.878,-2.8624,-2.8509,-2.8392,-2.8314,-2.8197,-2.8079,-2.8079,-2.8145,-2.8247,-2.8293,-2.8291,-2.833,-2.7611,-2.7183,-2.7002,-2.6637,-2.6446,-2.6635,-2.6855,-2.7078,-2.7248,-2.7248,-2.7386,-2.7575,-2.759,-2.774,-2.7989,-2.8137,-2.8299,-2.8444,-2.8589,-2.87,-2.8732,-2.8811,-2.8936,-2.9075,-2.935,-2.9621,-2.9798,-2.9738,-2.9677,-2.9512,-2.9364,-2.9198,-2.9121,-2.892,-2.8763,-2.87,-2.8541,-2.8332,-2.8088,-2.794,-2.7806,-2.759,-2.7284,-2.6959,-2.6645,-2.6326,-2.6016,-2.5839,-2.5674,-2.5564,-2.5508,-2.5522,-2.5355,-2.5131,-2.5005,-2.4821,-2.4721,-2.4283,-2.3774,-2.2788,-2.142,-2.0783,-2.0461,-2.0271,-2.008,-1.9914,-1.9759,-1.9604,-2.7201,-2.7079,-2.7214,-2.7335,-2.7335,-2.7348,-2.7348,-2.7281,-2.7146,-2.7159,-2.7146,-2.7214,-2.7403,-2.7523,-2.7591,-2.7868,-2.7733,-2.6854,-2.6422,-2.6356,-2.6262,-2.5955,-2.5455,-2.5362,-2.5388,-2.5482,-2.6746,-2.7832,-2.8575,-2.8515,-2.8505,-2.8546,-2.839,-2.83,-2.8145,-2.8131,-2.8079,-2.8079,-2.8,-2.8013,-2.8079,-2.8013,-2.8013,-2.8079,-2.8091,-2.8069,-2.7919,-2.8009,-2.7801,-2.7276,-2.6826,-2.6512,-2.6403,-2.6558,-2.6727,-2.6937,-2.7003,-2.7078,-2.7188,-2.7218,-2.7372,-2.7575,-2.774,-2.794,-2.8088,-2.8284,-2.8396,-2.8493,-2.8573,-2.8668,-2.8826,-2.9014,-2.9247,-2.9428,-2.9502,-2.9412,-2.9213,-2.9075,-2.8998,-2.8826,-2.8684,-2.8541,-2.8396,-2.8299,-2.8088,-2.789,-2.769,-2.7539,-2.735,-2.7041,-2.6698,-2.6365,-2.6096,-2.5839,-2.5578,-2.5355,-2.523,-2.5174,-2.5174,-2.5118,-2.4962,-2.4778,-2.465,-2.4452,-2.39,-2.3339,-2.2515,-2.1237,-2.0515,-2.0182,-2.0029,-1.9888,-1.972,-1.9565,-1.9408,-2.6863,-2.6807,-2.6863,-2.693,-2.7079,-2.7079,-2.7079,-2.7092,-2.7024,-2.7024,-2.7024,-2.7079,-2.7146,-2.7201,-2.7323,-2.7403,-2.7323,-2.7065,-2.6985,-2.6857,-2.6507,-2.6105,-2.5818,-2.5448,-2.5474,-2.5892,-2.6374,-2.7233,-2.8101,-2.8276,-2.8276,-2.821,-2.8052,-2.7973,-2.7855,-2.7669,-2.7536,-2.7536,-2.7429,-2.7348,-2.7348,-2.7482,-2.7536,-2.7603,-2.7789,-2.788,-2.7824,-2.7705,-2.7596,-2.753,-2.7092,-2.6782,-2.6722,-2.6914,-2.6892,-2.6558,-2.6592,-2.675,-2.6922,-2.6974,-2.713,-2.7284,-2.7437,-2.7539,-2.764,-2.779,-2.7875,-2.8024,-2.8122,-2.8253,-2.8414,-2.8621,-2.8889,-2.9183,-2.9229,-2.9152,-2.8982,-2.8889,-2.8842,-2.8684,-2.8541,-2.8396,-2.8235,-2.8088,-2.7825,-2.769,-2.7539,-2.7335,-2.7026,-2.687,-2.6553,-2.6165,-2.5893,-2.5619,-2.5286,-2.5061,-2.4948,-2.4948,-2.4892,-2.4892,-2.4721,-2.4607,-2.4478,-2.4041,-2.3437,-2.276,-2.1998,-2.114,-2.0347,-1.9926,-1.9875,-1.972,-1.9512,-1.9368,-1.9263,-2.6658,-2.6658,-2.6658,-2.6794,-2.6875,-2.6875,-2.6863,-2.6875,-2.6807,-2.6807,-2.6807,-2.6875,-2.6875,-2.693,-2.7066,-2.7146,-2.7024,-2.7146,-2.7167,-2.7079,-2.679,-2.636,-2.6022,-2.5475,-2.5501,-2.6033,-2.6188,-2.6737,-2.7749,-2.7749,-2.7749,-2.7749,-2.7603,-2.7523,-2.7469,-2.7268,-2.7201,-2.7146,-2.7092,-2.7024,-2.7011,-2.7146,-2.7214,-2.7214,-2.7469,-2.759,-2.763,-2.7485,-2.7571,-2.7746,-2.7474,-2.7226,-2.7055,-2.706,-2.6876,-2.6645,-2.644,-2.6418,-2.6578,-2.6712,-2.6765,-2.6922,-2.7026,-2.7078,-2.7115,-2.7203,-2.7306,-2.759,-2.7625,-2.7775,-2.8024,-2.8266,-2.846,-2.8668,-2.8858,-2.8826,-2.8701,-2.8558,-2.846,-2.8348,-2.8235,-2.8137,-2.7989,-2.779,-2.759,-2.7437,-2.7233,-2.7078,-2.6765,-2.6621,-2.6286,-2.5948,-2.5619,-2.5342,-2.5005,-2.4835,-2.4664,-2.4664,-2.4664,-2.4607,-2.4536,-2.4408,-2.4279,-2.3607,-2.2981,-2.2244,-2.1488,-2.069,-1.9914,-1.9811,-1.972,-1.9565,-1.942,-1.9275,-1.917,-2.6465,-2.6533,-2.6589,-2.6577,-2.6658,-2.6658,-2.6589,-2.6577,-2.6521,-2.6465,-2.6465,-2.6589,-2.6658,-2.6658,-2.6794,-2.6875,-2.6956,-2.693,-2.693,-2.696,-2.6845,-2.6575,-2.609,-2.5614,-2.5679,-2.6051,-2.6128,-2.6554,-2.731,-2.7214,-2.7079,-2.7281,-2.7146,-2.7011,-2.7011,-2.6956,-2.6943,-2.6943,-2.6956,-2.6956,-2.6956,-2.6956,-2.6956,-2.7011,-2.7201,-2.7335,-2.739,-2.7458,-2.7683,-2.7999,-2.7813,-2.766,-2.7446,-2.6967,-2.6874,-2.6976,-2.6466,-2.6307,-2.6301,-2.634,-2.6379,-2.65,-2.6539,-2.651,-2.6683,-2.6736,-2.6841,-2.7115,-2.7167,-2.7321,-2.764,-2.7886,-2.8,-2.8069,-2.8348,-2.8429,-2.8235,-2.8103,-2.8054,-2.8005,-2.7855,-2.774,-2.761,-2.7488,-2.7299,-2.7107,-2.6884,-2.6698,-2.6539,-2.6272,-2.6002,-2.5729,-2.5453,-2.5174,-2.4835,-2.4664,-2.4492,-2.4376,-2.4376,-2.4376,-2.4319,-2.4247,-2.3948,-2.3267,-2.251,-2.1796,-2.1046,-2.0265,-1.9809,-1.9617,-1.9512,-1.942,-1.9316,-1.917,-1.9011,-2.627,-2.627,-2.6119,-2.6107,-2.6119,-2.6119,-2.6107,-2.6119,-2.6119,-2.6119,-2.6107,-2.6119,-2.6188,-2.6176,-2.6302,-2.6383,-2.6465,-2.6521,-2.6577,-2.6671,-2.6671,-2.6489,-2.6164,-2.5946,-2.5934,-2.6087,-2.6072,-2.6447,-2.704,-2.6943,-2.7024,-2.7092,-2.6863,-2.6794,-2.6794,-2.6671,-2.6602,-2.6589,-2.6671,-2.6658,-2.6658,-2.6726,-2.6794,-2.6794,-2.6943,-2.7134,-2.7268,-2.739,-2.759,-2.7842,-2.805,-2.7994,-2.7714,-2.755,-2.7354,-2.7103,-2.6776,-2.654,-2.6581,-2.6366,-2.6261,-2.634,-2.6354,-2.6379,-2.6379,-2.6433,-2.6539,-2.663,-2.6683,-2.6841,-2.7144,-2.7401,-2.759,-2.7855,-2.8054,-2.8103,-2.8069,-2.802,-2.7955,-2.774,-2.7675,-2.7524,-2.7335,-2.7181,-2.7041,-2.6884,-2.6645,-2.6472,-2.6258,-2.6096,-2.5839,-2.5578,-2.5257,-2.5018,-2.4721,-2.4549,-2.4319,-2.4216,-2.4157,-2.4229,-2.4171,-2.4099,-2.3625,-2.3026,-2.2304,-2.1606,-2.0819,-2.0042,-1.9775,-1.9473,-1.9368,-1.9263,-1.9105,-1.8958,-1.8851,-2.6062,-2.6062,-2.598,-2.5923,-2.5923,-2.5923,-2.5923,-2.5923,-2.5923,-2.5923,-2.5923,-2.5923,-2.5923,-2.5923,-2.605,-2.6107,-2.6131,-2.6176,-2.6233,-2.6258,-2.6245,-2.6208,-2.616,-2.611,-2.611,-2.603,-2.6017,-2.6219,-2.6483,-2.6521,-2.6533,-2.6533,-2.6452,-2.6396,-2.6327,-2.6314,-2.6314,-2.6327,-2.6396,-2.6396,-2.6533,-2.6589,-2.6589,-2.6658,-2.6794,-2.6998,-2.7268,-2.7403,-2.759,-2.7776,-2.796,-2.8009,-2.7921,-2.7723,-2.7563,-2.7379,-2.7024,-2.681,-2.6858,-2.6582,-2.6384,-2.6355,-2.6283,-2.6139,-2.6125,-2.6125,-2.6218,-2.6312,-2.6297,-2.6472,-2.675,-2.7011,-2.735,-2.7634,-2.772,-2.7771,-2.7836,-2.7755,-2.7705,-2.7539,-2.7386,-2.7299,-2.7144,-2.6922,-2.6765,-2.6621,-2.6433,-2.6218,-2.6002,-2.5893,-2.5674,-2.5355,-2.5131,-2.4848,-2.4563,-2.4376,-2.4261,-2.4171,-2.4054,-2.4067,-2.4067,-2.391,-2.3315,-2.2719,-2.2076,-2.131,-2.0494,-1.9797,-1.9556,-1.9316,-1.9223,-1.9064,-1.8958,-1.8786,-1.8679,-2.591,-2.591,-2.584,-2.584,-2.577,-2.584,-2.577,-2.577,-2.577,-2.577,-2.5758,-2.584,-2.577,-2.5828,-2.5758,-2.5828,-2.5828,-2.5898,-2.5898,-2.598,-2.598,-2.6,-2.6045,-2.6089,-2.602,-2.5963,-2.5898,-2.5955,-2.605,-2.598,-2.591,-2.598,-2.598,-2.591,-2.598,-2.598,-2.5992,-2.6131,-2.6201,-2.627,-2.6396,-2.6465,-2.6521,-2.6521,-2.6726,-2.693,-2.7201,-2.739,-2.759,-2.7789,-2.7776,-2.7842,-2.7973,-2.7635,-2.7638,-2.7629,-2.7353,-2.7105,-2.7175,-2.6923,-2.6608,-2.6497,-2.6189,-2.5936,-2.5936,-2.5948,-2.5948,-2.6042,-2.6056,-2.6204,-2.6404,-2.675,-2.7107,-2.7395,-2.7416,-2.7437,-2.7524,-2.7488,-2.7401,-2.735,-2.7159,-2.7055,-2.6884,-2.6698,-2.6457,-2.6447,-2.6272,-2.6056,-2.5893,-2.5743,-2.5453,-2.5118,-2.4892,-2.4664,-2.4434,-2.4216,-2.4171,-2.4112,-2.4054,-2.4067,-2.4008,-2.3768,-2.3064,-2.2419,-2.1825,-2.0949,-1.9899,-1.9457,-1.9328,-1.917,-1.9011,-1.8905,-1.8798,-1.8691,-1.853,-2.5688,-2.5676,-2.5453,-2.5394,-2.5253,-2.5265,-2.5253,-2.5265,-2.5265,-2.5336,-2.5465,-2.5453,-2.5465,-2.5453,-2.5465,-2.5535,-2.5688,-2.5676,-2.5758,-2.5923,-2.5923,-2.584,-2.5758,-2.584,-2.591,-2.584,-2.5923,-2.591,-2.591,-2.584,-2.591,-2.5898,-2.584,-2.5923,-2.584,-2.584,-2.5898,-2.598,-2.6131,-2.6201,-2.627,-2.6396,-2.6521,-2.6521,-2.6726,-2.693,-2.7079,-2.7335,-2.7536,-2.759,-2.759,-2.7656,-2.7815,-2.7775,-2.7799,-2.7924,-2.7611,-2.7447,-2.7591,-2.7239,-2.6751,-2.6553,-2.6469,-2.6274,-2.5812,-2.5853,-2.5839,-2.5839,-2.5784,-2.5936,-2.6085,-2.6553,-2.6948,-2.715,-2.7277,-2.7336,-2.7314,-2.735,-2.7299,-2.7144,-2.7055,-2.6937,-2.6832,-2.663,-2.6418,-2.634,-2.6179,-2.5948,-2.5798,-2.5633,-2.53,-2.5018,-2.4778,-2.4607,-2.4274,-2.4099,-2.3995,-2.3995,-2.3936,-2.3819,-2.3819,-2.3528,-2.284,-2.2223,-2.1525,-2.0598,-1.9568,-1.9263,-1.917,-1.9011,-1.8851,-1.8744,-1.8637,-1.853,-1.841,-2.5194,-2.5206,-2.5123,-2.4981,-2.4992,-2.4992,-2.4992,-2.4992,-2.4992,-2.5052,-2.5182,-2.5253,-2.5253,-2.5312,-2.5312,-2.537,-2.5382,-2.5394,-2.5336,-2.536,-2.536,-2.5277,-2.5277,-2.5348,-2.5407,-2.5606,-2.5606,-2.5606,-2.5606,-2.5606,-2.5618,-2.5606,-2.5606,-2.5606,-2.5606,-2.5606,-2.5676,-2.5758,-2.598,-2.6131,-2.6201,-2.6396,-2.6521,-2.6521,-2.6726,-2.6863,-2.6875,-2.7134,-2.7268,-2.7403,-2.7403,-2.7469,-2.7656,-2.7789,-2.7908,-2.7973,-2.798,-2.788,-2.7908,-2.7714,-2.7338,-2.7061,-2.6779,-2.6382,-2.5994,-2.5883,-2.5702,-2.5716,-2.5827,-2.6008,-2.5965,-2.6778,-2.7154,-2.7487,-2.7621,-2.7744,-2.7725,-2.7422,-2.7144,-2.7003,-2.6937,-2.6817,-2.6645,-2.6654,-2.6408,-2.629,-2.6071,-2.5893,-2.5702,-2.5494,-2.5188,-2.4962,-2.4721,-2.4492,-2.4157,-2.3995,-2.3819,-2.3819,-2.3747,-2.3628,-2.345,-2.3048,-2.2597,-2.192,-2.1157,-2.0372,-1.9482,-1.9226,-1.9011,-1.8905,-1.8744,-1.8583,-1.841,-1.8356,-1.8193,-2.4718,-2.4801,-2.4801,-2.479,-2.4801,-2.479,-2.479,-2.4718,-2.479,-2.4849,-2.5064,-2.5052,-2.5111,-2.5182,-2.5182,-2.5253,-2.5182,-2.5123,-2.5064,-2.4933,-2.4933,-2.4933,-2.4861,-2.4933,-2.4992,-2.5182,-2.5253,-2.5253,-2.5241,-2.53,-2.5312,-2.5312,-2.5312,-2.5382,-2.5312,-2.5312,-2.5453,-2.5606,-2.584,-2.6062,-2.6201,-2.6396,-2.6452,-2.6521,-2.6658,-2.6726,-2.6794,-2.6943,-2.7079,-2.7214,-2.7281,-2.7335,-2.7469,-2.7656,-2.7789,-2.7789,-2.7973,-2.8115,-2.815,-2.8008,-2.7818,-2.7846,-2.7128,-2.6607,-2.6403,-2.6185,-2.6005,-2.5976,-2.6197,-2.6325,-2.6113,-2.682,-2.7579,-2.791,-2.8111,-2.8283,-2.8139,-2.757,-2.7277,-2.7268,-2.7321,-2.727,-2.6975,-2.6837,-2.6489,-2.6224,-2.599,-2.5798,-2.5536,-2.5327,-2.5089,-2.4791,-2.4492,-2.4261,-2.3982,-2.3819,-2.37,-2.3569,-2.3569,-2.3378,-2.305,-2.2297,-2.1791,-2.1405,-2.0705,-1.9909,-1.9359,-1.903,-1.8851,-1.8756,-1.8649,-1.8476,-1.8302,-1.8182,-1.8018,-2.4574,-2.4574,-2.4718,-2.4718,-2.4574,-2.4562,-2.4562,-2.4562,-2.4502,-2.4646,-2.4873,-2.4849,-2.4849,-2.4933,-2.4861,-2.4861,-2.4933,-2.4861,-2.4861,-2.4801,-2.4718,-2.4718,-2.4718,-2.4718,-2.479,-2.4849,-2.4849,-2.4909,-2.5111,-2.5111,-2.5182,-2.5241,-2.5312,-2.5312,-2.5312,-2.5312,-2.5382,-2.5535,-2.5758,-2.598,-2.6201,-2.6396,-2.6521,-2.6521,-2.6589,-2.6658,-2.6726,-2.6875,-2.7024,-2.7024,-2.7011,-2.7066,-2.7134,-2.7403,-2.759,-2.7723,-2.7842,-2.7947,-2.8036,-2.8088,-2.7849,-2.7597,-2.7368,-2.7216,-2.6982,-2.6809,-2.6617,-2.6681,-2.6658,-2.6627,-2.6418,-2.7072,-2.729,-2.7482,-2.7771,-2.7902,-2.7877,-2.7709,-2.7598,-2.7698,-2.7811,-2.771,-2.7242,-2.6803,-2.6452,-2.609,-2.5827,-2.5536,-2.523,-2.5075,-2.4835,-2.4549,-2.4274,-2.3982,-2.3747,-2.3628,-2.3582,-2.339,-2.3318,-2.315,-2.2623,-2.1587,-2.0913,-2.0742,-2.0329,-1.9649,-1.9198,-1.8845,-1.8691,-1.8595,-1.8476,-1.8313,-1.8193,-1.8018,-1.7909,-2.4043,-2.4055,-2.4273,-2.4273,-2.4189,-2.4189,-2.4189,-2.42,-2.4055,-2.42,-2.4418,-2.449,-2.4646,-2.4729,-2.4801,-2.4801,-2.4646,-2.4646,-2.4574,-2.4502,-2.449,-2.449,-2.449,-2.449,-2.4502,-2.449,-2.449,-2.4646,-2.4933,-2.4921,-2.5052,-2.5182,-2.5182,-2.5241,-2.53,-2.5312,-2.5382,-2.5523,-2.5758,-2.591,-2.6062,-2.6327,-2.6452,-2.6533,-2.6533,-2.6602,-2.6602,-2.6671,-2.6807,-2.6807,-2.6875,-2.6875,-2.7011,-2.7146,-2.7281,-2.7403,-2.7536,-2.7696,-2.7841,-2.796,-2.7999,-2.7787,-2.7608,-2.7359,-2.7072,-2.6877,-2.6911,-2.7053,-2.7099,-2.7095,-2.7223,-2.7498,-2.774,-2.7789,-2.7975,-2.8112,-2.8071,-2.785,-2.7806,-2.7851,-2.7453,-2.7173,-2.706,-2.6694,-2.6288,-2.5981,-2.5675,-2.5285,-2.4865,-2.4694,-2.4536,-2.4203,-2.3865,-2.3628,-2.339,-2.333,-2.321,-2.3078,-2.2957,-2.2775,-2.2311,-2.1332,-2.0711,-2.0321,-1.9811,-1.9183,-1.8988,-1.8625,-1.853,-1.8367,-1.8193,-1.8084,-1.7963,-1.7854,-1.7689,-2.353,-2.3593,-2.3751,-2.3824,-2.3824,-2.3824,-2.3824,-2.3824,-2.3677,-2.3824,-2.4043,-2.4127,-2.4273,-2.4502,-2.4502,-2.4418,-2.4334,-2.4345,-2.4273,-2.42,-2.42,-2.42,-2.42,-2.4189,-2.4273,-2.4273,-2.4273,-2.4429,-2.4646,-2.4718,-2.4849,-2.4981,-2.5052,-2.5111,-2.5253,-2.5312,-2.53,-2.5453,-2.5676,-2.5828,-2.5968,-2.6176,-2.6396,-2.6396,-2.6383,-2.6396,-2.6327,-2.6396,-2.6383,-2.6452,-2.6589,-2.6658,-2.682,-2.6888,-2.6875,-2.6943,-2.7214,-2.7403,-2.7523,-2.7709,-2.7855,-2.7908,-2.7601,-2.7375,-2.732,-2.717,-2.6983,-2.7203,-2.7322,-2.7377,-2.7643,-2.8025,-2.809,-2.8115,-2.8193,-2.839,-2.8147,-2.7863,-2.7409,-2.7237,-2.6799,-2.6685,-2.6613,-2.6378,-2.5988,-2.5654,-2.5347,-2.4805,-2.4452,-2.4292,-2.4073,-2.3747,-2.3463,-2.321,-2.303,-2.2909,-2.2714,-2.258,-2.2396,-2.2211,-2.1834,-2.128,-2.0614,-1.9876,-1.908,-1.854,-1.8421,-1.841,-1.8247,-1.8084,-1.7963,-1.7854,-1.7744,-1.7523,-1.7301,-2.3309,-2.3372,-2.3519,-2.3666,-2.3593,-2.3604,-2.3593,-2.3593,-2.3519,-2.3604,-2.3666,-2.3677,-2.3751,-2.3824,-2.3824,-2.3751,-2.3824,-2.3897,-2.397,-2.397,-2.4043,-2.4116,-2.4189,-2.4189,-2.4116,-2.4116,-2.4116,-2.4345,-2.4429,-2.449,-2.4634,-2.4778,-2.4992,-2.5123,-2.5123,-2.5182,-2.537,-2.5535,-2.5606,-2.5676,-2.5898,-2.5968,-2.598,-2.5968,-2.6037,-2.605,-2.605,-2.605,-2.605,-2.6037,-2.6188,-2.627,-2.6352,-2.6477,-2.6533,-2.6683,-2.6888,-2.7146,-2.7297,-2.7416,-2.7589,-2.7762,-2.767,-2.7815,-2.7761,-2.7748,-2.7576,-2.7696,-2.7723,-2.7578,-2.7604,-2.7776,-2.7855,-2.7842,-2.7842,-2.7921,-2.7749,-2.7114,-2.6746,-2.6364,-2.5841,-2.6069,-2.6202,-2.5945,-2.5675,-2.537,-2.498,-2.4437,-2.3989,-2.3767,-2.3543,-2.321,-2.303,-2.2787,-2.2592,-2.2469,-2.2285,-2.2025,-2.1839,-2.1651,-2.1323,-2.0841,-2.0125,-1.9351,-1.8569,-1.8034,-1.7902,-1.7879,-1.7899,-1.781,-1.7579,-1.7579,-1.7523,-1.7245,-1.6864,-2.2553,-2.2767,-2.3001,-2.3075,-2.3075,-2.3075,-2.3075,-2.3075,-2.3075,-2.315,-2.3298,-2.3372,-2.3519,-2.3519,-2.3593,-2.3593,-2.3604,-2.3666,-2.374,-2.3751,-2.3824,-2.3897,-2.3824,-2.3897,-2.3824,-2.3897,-2.3897,-2.3824,-2.4043,-2.4261,-2.4418,-2.4634,-2.4706,-2.4838,-2.4921,-2.4992,-2.5064,-2.5206,-2.5336,-2.5606,-2.584,-2.5923,-2.5923,-2.5923,-2.5923,-2.591,-2.591,-2.5923,-2.5923,-2.591,-2.6131,-2.6201,-2.627,-2.6396,-2.6521,-2.6533,-2.6615,-2.6794,-2.6973,-2.7146,-2.7348,-2.7469,-2.759,-2.763,-2.7736,-2.7736,-2.7736,-2.7656,-2.7656,-2.7536,-2.7469,-2.7456,-2.739,-2.739,-2.739,-2.739,-2.7194,-2.6349,-2.578,-2.5355,-2.4944,-2.5036,-2.5122,-2.4859,-2.4564,-2.4426,-2.4118,-2.3765,-2.3365,-2.3078,-2.2848,-2.2616,-2.2494,-2.2359,-2.2161,-2.1963,-2.1776,-2.1526,-2.121,-2.1008,-2.0858,-2.0407,-1.9714,-1.9244,-1.8826,-1.8246,-1.7651,-1.7464,-1.7512,-1.7401,-1.7267,-1.7134,-1.7011,-1.6616,-1.6228,-2.1645,-2.1939,-2.2317,-2.2478,-2.2467,-2.2478,-2.2478,-2.2553,-2.2553,-2.2628,-2.2852,-2.3001,-2.315,-2.3298,-2.3298,-2.3298,-2.3372,-2.3457,-2.3446,-2.3446,-2.3519,-2.3593,-2.3604,-2.3604,-2.3593,-2.3593,-2.3666,-2.3666,-2.374,-2.3897,-2.4116,-2.4345,-2.449,-2.4562,-2.4718,-2.479,-2.4861,-2.4861,-2.5064,-2.5336,-2.563,-2.5688,-2.5688,-2.5758,-2.5758,-2.5758,-2.5758,-2.5758,-2.5758,-2.5758,-2.591,-2.598,-2.605,-2.6188,-2.6258,-2.6327,-2.6408,-2.6477,-2.6658,-2.6875,-2.7092,-2.7214,-2.7335,-2.7403,-2.7469,-2.739,-2.739,-2.7469,-2.7403,-2.7335,-2.7281,-2.7201,-2.7201,-2.7066,-2.7011,-2.6943,-2.6777,-2.5932,-2.5256,-2.4887,-2.4318,-2.3502,-2.3533,-2.3479,-2.3403,-2.3356,-2.3163,-2.3042,-2.28,-2.2494,-2.2235,-2.2049,-2.1987,-2.1851,-2.16,-2.1463,-2.1273,-2.1019,-2.0635,-2.0377,-2.0291,-2.0019,-1.9447,-1.9105,-1.8839,-1.8228,-1.7436,-1.7291,-1.7105,-1.6917,-1.6751,-1.6627,-1.6457,-1.5999,-1.571,-2.0722,-2.0799,-2.1568,-2.1797,-2.1873,-2.1883,-2.1949,-2.209,-2.2101,-2.2252,-2.2402,-2.2478,-2.2478,-2.2553,-2.2703,-2.2767,-2.2767,-2.3139,-2.315,-2.3224,-2.3361,-2.3372,-2.3298,-2.3372,-2.3519,-2.353,-2.3519,-2.3519,-2.3593,-2.3593,-2.3824,-2.397,-2.42,-2.4418,-2.449,-2.4502,-2.4646,-2.4718,-2.4778,-2.4874,-2.5087,-2.5146,-2.5229,-2.5346,-2.537,-2.5312,-2.5324,-2.5382,-2.5453,-2.5453,-2.5606,-2.5758,-2.5828,-2.598,-2.605,-2.6037,-2.6131,-2.627,-2.6408,-2.6602,-2.6807,-2.6943,-2.7092,-2.7146,-2.7281,-2.7146,-2.7146,-2.7281,-2.7214,-2.7079,-2.7024,-2.7024,-2.7011,-2.6875,-2.6807,-2.6807,-2.6405,-2.5548,-2.4931,-2.4476,-2.3839,-2.3084,-2.2665,-2.2823,-2.2884,-2.286,-2.2726,-2.2604,-2.2297,-2.1987,-2.1726,-2.1537,-2.1463,-2.1273,-2.1019,-2.0828,-2.0635,-2.0442,-2.0129,-1.9933,-1.9726,-1.9378,-1.9107,-1.8744,-1.8417,-1.7836,-1.7385,-1.7206,-1.6987,-1.6502,-1.6228,-1.6114,-1.5884,-1.5536,-1.5313,-2.0177,-2.0177,-2.0489,-2.0799,-2.1021,-2.1175,-2.1252,-2.1405,-2.1645,-2.1883,-2.2035,-2.2025,-2.2111,-2.2176,-2.2252,-2.2402,-2.2478,-2.2617,-2.2703,-2.2703,-2.2767,-2.2777,-2.2841,-2.2927,-2.3075,-2.3075,-2.315,-2.3235,-2.3224,-2.3372,-2.3446,-2.3593,-2.3824,-2.3897,-2.3982,-2.4116,-2.4189,-2.4418,-2.4455,-2.4446,-2.4449,-2.4756,-2.4838,-2.4716,-2.5087,-2.5217,-2.5312,-2.5312,-2.5312,-2.5312,-2.5535,-2.5548,-2.5618,-2.5758,-2.5816,-2.5804,-2.5968,-2.6062,-2.6201,-2.6465,-2.6807,-2.6943,-2.7024,-2.7024,-2.7079,-2.7024,-2.7117,-2.7117,-2.7024,-2.6956,-2.6901,-2.682,-2.6807,-2.6726,-2.6658,-2.6589,-2.6244,-2.5453,-2.4744,-2.4434,-2.3735,-2.2969,-2.2577,-2.2309,-2.2371,-2.2432,-2.2297,-2.2111,-2.1862,-2.1549,-2.1348,-2.1083,-2.0955,-2.0764,-2.0506,-2.0313,-2.0129,-1.9868,-1.9671,-1.9539,-1.9341,-1.9131,-1.8849,-1.8431,-1.8141,-1.779,-1.7441,-1.7204,-1.6822,-1.6377,-1.5948,-1.5526,-1.5303,-1.5079,-1.4911,-1.9706,-1.9696,-1.9706,-2.002,-2.0411,-2.0566,-2.0634,-2.0789,-2.1031,-2.1272,-2.1415,-2.1425,-2.1568,-2.1721,-2.1797,-2.1959,-2.2025,-2.2166,-2.2176,-2.2176,-2.2252,-2.2252,-2.2327,-2.2478,-2.2703,-2.2628,-2.2777,-2.2927,-2.2927,-2.3075,-2.3224,-2.3298,-2.3372,-2.3457,-2.3604,-2.3593,-2.374,-2.397,-2.4082,-2.3996,-2.3921,-2.4214,-2.4272,-2.4139,-2.4435,-2.4789,-2.4955,-2.5027,-2.5241,-2.5312,-2.5382,-2.5535,-2.5618,-2.5618,-2.5664,-2.5652,-2.5734,-2.591,-2.605,-2.6327,-2.6602,-2.6683,-2.6752,-2.6739,-2.6807,-2.6875,-2.6901,-2.6982,-2.6888,-2.6807,-2.6671,-2.6671,-2.6671,-2.6602,-2.6589,-2.6508,-2.6276,-2.5635,-2.4979,-2.4402,-2.3591,-2.2865,-2.2351,-2.2061,-2.2061,-2.2111,-2.1913,-2.1726,-2.1537,-2.1285,-2.1019,-2.0764,-2.0506,-2.0248,-1.9987,-1.9857,-1.9736,-1.9605,-1.9407,-1.9208,-1.9075,-1.8808,-1.8607,-1.8257,-1.7986,-1.7812,-1.7484,-1.7203,-1.6724,-1.6243,-1.5691,-1.5118,-1.501,-1.4843,-1.4675,-1.9301,-1.9292,-1.9301,-1.9539,-1.9872,-1.9942,-2.0098,-2.0264,-2.0342,-2.0489,-2.0644,-2.0644,-2.0789,-2.0944,-2.1108,-2.1349,-2.1502,-2.1721,-2.1721,-2.1655,-2.1883,-2.1949,-2.2035,-2.2187,-2.2413,-2.2478,-2.2628,-2.2703,-2.2703,-2.2927,-2.3001,-2.3001,-2.3075,-2.3224,-2.3519,-2.3604,-2.3604,-2.3677,-2.3824,-2.3663,-2.3546,-2.3711,-2.3618,-2.3614,-2.3836,-2.4129,-2.435,-2.4765,-2.4979,-2.5073,-2.5264,-2.537,-2.5394,-2.5394,-2.5382,-2.5382,-2.5523,-2.5606,-2.5676,-2.598,-2.6201,-2.627,-2.6327,-2.6327,-2.644,-2.6452,-2.6546,-2.6627,-2.6526,-2.6433,-2.6402,-2.6364,-2.6276,-2.6271,-2.6233,-2.6296,-2.5996,-2.5623,-2.4878,-2.4218,-2.3498,-2.2735,-2.2186,-2.1812,-2.1812,-2.1737,-2.1588,-2.14,-2.1221,-2.0892,-2.0624,-2.0442,-2.0118,-1.9922,-1.966,-1.9473,-1.9341,-1.9274,-1.9208,-1.9008,-1.8808,-1.8607,-1.8347,-1.8086,-1.7842,-1.7639,-1.7369,-1.7082,-1.6512,-1.5947,-1.5273,-1.4775,-1.4666,-1.4616,-1.4565,-1.9082,-1.9152,-1.9231,-1.9301,-1.932,-1.9557,-1.9794,-1.9872,-1.9942,-2.0098,-2.0108,-2.0177,-2.0255,-2.0489,-2.0576,-2.0731,-2.0876,-2.1108,-2.1108,-2.1185,-2.1425,-2.1502,-2.1655,-2.1883,-2.2111,-2.2252,-2.2402,-2.2478,-2.2478,-2.2703,-2.2777,-2.2777,-2.2927,-2.3075,-2.315,-2.3235,-2.3235,-2.3372,-2.3486,-2.3441,-2.3205,-2.3256,-2.3248,-2.3127,-2.3267,-2.344,-2.3668,-2.4186,-2.4563,-2.4716,-2.4859,-2.5169,-2.5193,-2.5205,-2.5312,-2.5312,-2.5382,-2.5453,-2.5535,-2.577,-2.5828,-2.5898,-2.598,-2.605,-2.6037,-2.6107,-2.6201,-2.6158,-2.5853,-2.5673,-2.5339,-2.5086,-2.5024,-2.5382,-2.5506,-2.5753,-2.5623,-2.5215,-2.4676,-2.402,-2.3357,-2.2583,-2.1926,-2.1572,-2.1486,-2.1423,-2.1285,-2.1146,-2.0967,-2.0624,-2.0291,-2.0107,-1.9857,-1.9594,-1.9407,-1.9274,-1.9142,-1.9075,-1.8942,-1.8808,-1.8539,-1.8347,-1.8066,-1.7862,-1.7666,-1.751,-1.7194,-1.6824,-1.6179,-1.5622,-1.5074,-1.4712,-1.4556,-1.4565,-1.4515,-1.8922,-1.8922,-1.9082,-1.9002,-1.8922,-1.925,-1.932,-1.9329,-1.9399,-1.9478,-1.9478,-1.9478,-1.9636,-1.9784,-1.9942,-2.0108,-2.0255,-2.0479,-2.0557,-2.0557,-2.0886,-2.1041,-2.1262,-2.1502,-2.1731,-2.1949,-2.2176,-2.2317,-2.2327,-2.2478,-2.2628,-2.2777,-2.2852,-2.3001,-2.3001,-2.3075,-2.3086,-2.3224,-2.3254,-2.3212,-2.3082,-2.2987,-2.2936,-2.273,-2.275,-2.2898,-2.31,-2.3447,-2.3869,-2.4148,-2.4491,-2.4883,-2.4849,-2.4992,-2.5134,-2.5182,-2.5312,-2.5382,-2.5465,-2.5465,-2.5606,-2.5676,-2.5746,-2.5758,-2.5828,-2.5898,-2.5832,-2.566,-2.5227,-2.4921,-2.4585,-2.4271,-2.4254,-2.4633,-2.4823,-2.5056,-2.5056,-2.464,-2.4171,-2.3622,-2.309,-2.2344,-2.1689,-2.1418,-2.1158,-2.1094,-2.0978,-2.085,-2.0775,-2.0377,-2.0042,-1.9791,-1.966,-1.9396,-1.9208,-1.9075,-1.8942,-1.8808,-1.8674,-1.8539,-1.8347,-1.8144,-1.7862,-1.7647,-1.7451,-1.7267,-1.6971,-1.6529,-1.5965,-1.5495,-1.5026,-1.475,-1.4552,-1.4455,-1.4455,-1.8647,-1.8665,-1.8656,-1.863,-1.8638,-1.8717,-1.8753,-1.8638,-1.8656,-1.8727,-1.8656,-1.8736,-1.8931,-1.9082,-1.9231,-1.939,-1.9636,-1.9784,-1.9942,-2.002,-2.0333,-2.0566,-2.0799,-2.1185,-2.1425,-2.1655,-2.1873,-2.2025,-2.2111,-2.2327,-2.2478,-2.2703,-2.2852,-2.2927,-2.2927,-2.3001,-2.3001,-2.3075,-2.3117,-2.3161,-2.3122,-2.3029,-2.2706,-2.2491,-2.2442,-2.2382,-2.2492,-2.2698,-2.3065,-2.3367,-2.3741,-2.3861,-2.4108,-2.446,-2.4767,-2.5004,-2.5098,-2.5241,-2.5312,-2.5312,-2.53,-2.5382,-2.5535,-2.5535,-2.5606,-2.5652,-2.555,-2.5164,-2.4755,-2.4469,-2.4193,-2.3916,-2.3651,-2.3862,-2.3989,-2.4164,-2.4225,-2.3923,-2.3496,-2.3078,-2.2604,-2.1993,-2.136,-2.1042,-2.0903,-2.0775,-2.0658,-2.0518,-2.0388,-2.0183,-1.9857,-1.9605,-1.9407,-1.9264,-1.9075,-1.8942,-1.8808,-1.8674,-1.8472,-1.8337,-1.8144,-1.794,-1.7657,-1.7442,-1.7304,-1.7042,-1.689,-1.6434,-1.5808,-1.5368,-1.5001,-1.4638,-1.4396,-1.4396,-1.4327,-1.7449,-1.7449,-1.779,-1.7782,-1.762,-1.7552,-1.7637,-1.7902,-1.8142,-1.8266,-1.8284,-1.8576,-1.8612,-1.8772,-1.8851,-1.8913,-1.9073,-1.932,-1.9469,-1.9627,-1.9932,-2.0255,-2.0566,-2.0799,-2.1118,-2.1425,-2.1655,-2.1807,-2.1873,-2.2101,-2.2327,-2.2488,-2.2703,-2.2777,-2.2852,-2.2927,-2.3001,-2.3001,-2.3075,-2.3187,-2.3145,-2.3066,-2.2727,-2.2571,-2.2283,-2.2053,-2.1843,-2.2124,-2.2387,-2.2425,-2.2977,-2.3222,-2.3097,-2.3236,-2.3444,-2.4167,-2.4555,-2.4981,-2.5111,-2.517,-2.5158,-2.5217,-2.5312,-2.5382,-2.5382,-2.5344,-2.5151,-2.4659,-2.4121,-2.3725,-2.3239,-2.2958,-2.287,-2.3018,-2.3143,-2.3215,-2.3263,-2.3125,-2.2716,-2.2415,-2.201,-2.162,-2.0948,-2.085,-2.0722,-2.0529,-2.0335,-2.0194,-2.0064,-1.9868,-1.9726,-1.9473,-1.9274,-1.9065,-1.8942,-1.8808,-1.8674,-1.8472,-1.8269,-1.8066,-1.7852,-1.7647,-1.7442,-1.7235,-1.7107,-1.7038,-1.6959,-1.6376,-1.5661,-1.5314,-1.496,-1.4581,-1.4327,-1.4267,-1.4207,-1.6657,-1.6733,-1.7061,-1.7067,-1.6845,-1.6762,-1.6776,-1.6972,-1.741,-1.7637,-1.7663,-1.7873,-1.7996,-1.7996,-1.8197,-1.8373,-1.8373,-1.8859,-1.9082,-1.9311,-1.9492,-1.9863,-2.0177,-2.0537,-2.0886,-2.1118,-2.1349,-2.1512,-2.1731,-2.1959,-2.2187,-2.2262,-2.2478,-2.2553,-2.2639,-2.2777,-2.2863,-2.2927,-2.3001,-2.3224,-2.3239,-2.3206,-2.3123,-2.2764,-2.2332,-2.1852,-2.1384,-2.1732,-2.1564,-2.1567,-2.2044,-2.2217,-2.2151,-2.2321,-2.2651,-2.3306,-2.3584,-2.412,-2.439,-2.4566,-2.4767,-2.4969,-2.5063,-2.4968,-2.4825,-2.4752,-2.4465,-2.4038,-2.3392,-2.2787,-2.2286,-2.1881,-2.2039,-2.2133,-2.2204,-2.2274,-2.221,-2.2198,-2.1934,-2.1712,-2.138,-2.1028,-2.0733,-2.0604,-2.0475,-2.027,-2.0074,-1.9944,-1.9747,-1.9615,-1.9473,-1.9274,-1.9065,-1.8865,-1.8808,-1.8607,-1.8472,-1.8269,-1.8056,-1.7852,-1.7569,-1.7373,-1.7235,-1.7107,-1.6978,-1.6908,-1.676,-1.6181,-1.5523,-1.5224,-1.4818,-1.4353,-1.4079,-1.4019,-1.395,-1.6178,-1.617,-1.643,-1.6436,-1.6328,-1.6302,-1.6131,-1.5891,-1.6533,-1.6841,-1.6867,-1.6927,-1.7038,-1.7389,-1.7605,-1.7813,-1.7961,-1.8285,-1.846,-1.8894,-1.8957,-1.9251,-1.9667,-2.0198,-2.0379,-2.0738,-2.0981,-2.1141,-2.1558,-2.1807,-2.1959,-2.2111,-2.2252,-2.2402,-2.2402,-2.2553,-2.2703,-2.2703,-2.2852,-2.3001,-2.3298,-2.3441,-2.3441,-2.2996,-2.2592,-2.2139,-2.1619,-2.1181,-2.0702,-2.0783,-2.0874,-2.1041,-2.1174,-2.1586,-2.2037,-2.2343,-2.2651,-2.311,-2.3491,-2.3653,-2.4015,-2.4319,-2.4565,-2.4284,-2.4014,-2.4305,-2.4091,-2.3443,-2.2791,-2.2285,-2.1812,-2.1562,-2.1586,-2.1609,-2.1644,-2.1678,-2.1655,-2.1539,-2.1293,-2.1096,-2.0933,-2.0593,-2.0399,-2.0281,-2.0205,-2.0009,-1.9813,-1.9615,-1.9483,-1.9285,-1.9142,-1.9075,-1.8875,-1.8674,-1.8539,-1.8414,-1.8212,-1.7998,-1.7784,-1.7647,-1.7442,-1.7245,-1.7107,-1.6968,-1.683,-1.676,-1.6495,-1.5891,-1.5384,-1.5085,-1.4684,-1.4126,-1.389,-1.383,-1.3761,-1.5259,-1.5259,-1.5468,-1.5546,-1.5488,-1.5631,-1.5669,-1.5593,-1.5897,-1.6259,-1.649,-1.6773,-1.7038,-1.7201,-1.7107,-1.7269,-1.7536,-1.763,-1.7585,-1.7858,-1.8096,-1.8577,-1.8826,-1.9221,-1.9664,-2.0131,-2.0486,-2.0797,-2.1303,-2.1538,-2.1731,-2.1883,-2.2025,-2.2176,-2.2176,-2.2402,-2.2478,-2.2488,-2.2563,-2.2777,-2.315,-2.3231,-2.3212,-2.2938,-2.2548,-2.2032,-2.1485,-2.0952,-2.049,-2.0227,-2.0183,-2.0095,-1.9985,-2.0639,-2.0981,-2.1147,-2.1618,-2.2115,-2.2422,-2.2662,-2.2937,-2.3087,-2.3225,-2.3178,-2.3247,-2.3733,-2.3638,-2.2834,-2.2243,-2.1829,-2.1533,-2.1366,-2.1221,-2.121,-2.1198,-2.1175,-2.1101,-2.088,-2.0744,-2.0604,-2.0464,-2.0335,-2.0074,-2.0009,-1.9878,-1.9747,-1.955,-1.9351,-1.9208,-1.9008,-1.8875,-1.8808,-1.8684,-1.8482,-1.8347,-1.8144,-1.794,-1.7725,-1.751,-1.7373,-1.7245,-1.7107,-1.6899,-1.6751,-1.6682,-1.6542,-1.6285,-1.5699,-1.5269,-1.498,-1.4406,-1.3822,-1.364,-1.358,-1.358,-1.4792,-1.4792,-1.4999,-1.5133,-1.5204,-1.5346,-1.5355,-1.538,-1.5673,-1.5757,-1.5914,-1.626,-1.6648,-1.6877,-1.675,-1.6757,-1.7013,-1.7113,-1.7206,-1.7313,-1.7441,-1.8006,-1.8249,-1.8552,-1.9129,-1.9693,-2.0078,-2.0532,-2.0989,-2.1364,-2.1578,-2.1655,-2.1883,-2.1959,-2.1959,-2.2176,-2.2176,-2.2111,-2.2187,-2.2402,-2.2703,-2.2798,-2.2903,-2.2692,-2.2363,-2.1843,-2.1315,-2.0834,-2.0288,-1.9876,-1.9713,-1.9637,-1.9624,-1.9871,-2.0055,-2.0253,-2.0617,-2.1081,-2.1393,-2.1618,-2.189,-2.2071,-2.2195,-2.2205,-2.1959,-2.2366,-2.2694,-2.1973,-2.1758,-2.1412,-2.1337,-2.1256,-2.1117,-2.1106,-2.0978,-2.0903,-2.0752,-2.0571,-2.0335,-2.0205,-2.0064,-1.9933,-1.9813,-1.9813,-1.9681,-1.9417,-1.9218,-1.9019,-1.8875,-1.8741,-1.8607,-1.8472,-1.8347,-1.8202,-1.7988,-1.7862,-1.7657,-1.752,-1.7304,-1.7176,-1.7116,-1.6899,-1.6682,-1.6612,-1.6473,-1.6403,-1.5998,-1.5472,-1.5143,-1.4846,-1.419,-1.3545,-1.3467,-1.3398,-1.3467,-1.4569,-1.4641,-1.4784,-1.4935,-1.5125,-1.5133,-1.5133,-1.5254,-1.5445,-1.5454,-1.5394,-1.5813,-1.597,-1.6104,-1.627,-1.6334,-1.6382,-1.6533,-1.681,-1.6902,-1.7125,-1.7396,-1.7843,-1.83,-1.8648,-1.9141,-1.9728,-2.0009,-2.0367,-2.0843,-2.1197,-2.1461,-2.1578,-2.1721,-2.1807,-2.1807,-2.1873,-2.1721,-2.1721,-2.1721,-2.1949,-2.2241,-2.2446,-2.2371,-2.2135,-2.1664,-2.1112,-2.0615,-2.0033,-1.9737,-1.9467,-1.9624,-1.9619,-1.9735,-1.976,-1.998,-2.002,-2.0336,-2.0479,-2.0625,-2.0866,-2.1109,-2.1341,-2.1221,-2.0939,-2.0985,-2.1307,-2.1359,-2.1138,-2.1152,-2.114,-2.1076,-2.1001,-2.0862,-2.0733,-2.0616,-2.0399,-2.0194,-2.0064,-1.9868,-1.9736,-1.9605,-1.9539,-1.9539,-1.9407,-1.9142,-1.8942,-1.8751,-1.8607,-1.8472,-1.8405,-1.8202,-1.8008,-1.7862,-1.7716,-1.7579,-1.7451,-1.7314,-1.7166,-1.7038,-1.6908,-1.6751,-1.6603,-1.6482,-1.6342,-1.6132,-1.5731,-1.5179,-1.4898,-1.4609,-1.395,-1.3302,-1.3294,-1.3294,-1.3302,-1.4569,-1.4569,-1.4641,-1.4713,-1.4713,-1.4864,-1.4927,-1.5015,-1.5215,-1.5339,-1.5438,-1.5601,-1.5831,-1.6052,-1.5927,-1.6036,-1.6259,-1.6233,-1.6054,-1.6074,-1.6445,-1.6723,-1.7069,-1.7589,-1.7892,-1.8452,-1.9209,-1.9688,-1.9871,-2.0267,-2.0757,-2.1211,-2.1242,-2.1328,-2.1359,-2.1328,-2.1278,-2.1094,-2.0968,-2.0938,-2.1008,-2.1334,-2.1863,-2.1821,-2.1714,-2.1155,-2.0597,-2.0237,-1.9671,-1.938,-1.9437,-1.9758,-1.9913,-1.9996,-1.9986,-2.0021,-1.9975,-1.9949,-2.016,-2.0037,-2.029,-2.0154,-2.0229,-2.0175,-2.0049,-2.0105,-2.0358,-2.0424,-2.041,-2.068,-2.0733,-2.0744,-2.068,-2.0593,-2.0464,-2.0281,-2.0085,-1.9955,-1.9823,-1.9747,-1.9605,-1.9407,-1.9208,-1.9142,-1.9075,-1.8875,-1.8674,-1.8482,-1.8405,-1.8269,-1.8124,-1.793,-1.7735,-1.7598,-1.7529,-1.7373,-1.7235,-1.7166,-1.7028,-1.6899,-1.6751,-1.6594,-1.6455,-1.6333,-1.607,-1.5859,-1.5411,-1.5027,-1.4597,-1.4246,-1.3542,-1.3075,-1.3128,-1.318,-1.318]}]]